[[{"header":{"parameterUnit":"m.s-1","parameterCategory":1,"la1":30.6,"la2":28.766,"lo1":-90.7593,"lo2":-88.6598,"dy":0.0162,"dx":0.0183,"nx":116,"ny":114,"refTime":"2023-11-03T00:00:00:Z","depth":0,"parameterNumber":2,"parameterNumberName":"U-component_of_WINDS"},"data":[0.0,0.0,0.0,0.0,0.0,0.0,0.0,0.0,0.0,0.0,0.0,0.0,0.0,0.0,0.0,0.0,0.0,0.0,0.0,0.0,0.0,0.0,0.0,0.0,0.0,0.0,0.0,0.0,0.0,0.0,0.0,0.0,0.0,0.0,0.0,0.0,0.0,0.0,0.0,0.0,0.0,0.0,0.0,0.0,0.0,0.0,0.0,0.0,0.0,0.0,0.0,0.0,0.0,0.0,0.0,0.0,0.0,0.0,0.0,0.0,0.0,0.0,0.0,0.0,0.0,0.0,0.0,0.0,0.0,0.0,0.0,0.0,0.0,0.0,0.0,0.0,0.0,0.0,0.0,0.0,0.0,0.0,0.0,0.0,0.0,0.0,0.0,0.0,0.0,0.0,0.0,0.0,0.0,0.0,0.0,0.0,0.0,0.0,0.0,0.0,0.0,0.0,0.0,0.0,0.0,0.0,0.0,0.0,0.0,0.0,0.0,0.0,0.0,0.0,0.0,0.0,0.0,0.0,0.0,0.0,0.0,0.0,0.0,0.0,0.0,0.0,0.0,0.0,0.0,0.0,0.0,0.0,0.0,0.0,0.0,0.0,0.0,0.0,0.0,0.0,0.0,0.0,0.0,0.0,0.0,0.0,0.0,0.0,0.0,0.0,0.0,0.0,0.0,0.0,0.0,0.0,0.0,0.0,0.0,0.0,0.0,0.0,0.0,0.0,0.0,0.0,0.0,0.0,0.0,0.0,0.0,0.0,0.0,0.0,0.0,0.0,0.0,0.0,0.0,0.0,0.0,0.0,0.0,0.0,0.0,0.0,0.0,0.0,0.0,0.0,0.0,0.0,0.0,0.0,0.0,0.0,0.0,0.0,0.0,0.0,0.0,0.0,0.0,0.0,0.0,0.0,0.0,0.0,0.0,0.0,0.0,0.0,0.0,0.0,0.0,0.0,0.0,0.0,0.0,0.0,0.0,0.0,0.0,0.0,0.0,0.0,0.0,0.0,0.0,0.0,0.0,0.0,0.0,0.0,0.0,0.0,0.0,0.0,0.0,0.0,0.0,0.0,0.0,0.0,0.0,0.0,0.0,0.0,0.0,0.0,0.0,0.0,0.0,0.0,0.0,0.0,0.0,0.0,0.0,0.0,0.0,0.0,0.0,0.0,0.0,0.0,0.0,0.0,0.0,0.0,0.0,0.0,0.0,0.0,0.0,0.0,0.0,0.0,0.0,0.0,0.0,0.0,0.0,0.0,0.0,0.0,0.0,0.0,0.0,0.0,0.0,0.0,0.0,0.0,0.0,0.0,0.0,0.0,0.0,0.0,0.0,0.0,0.0,0.0,0.0,0.0,0.0,0.0,0.0,0.0,0.0,0.0,0.0,0.0,0.0,0.0,0.0,0.0,0.0,0.0,0.0,0.0,0.0,0.0,0.0,0.0,0.0,0.0,0.0,0.0,0.0,0.0,0.0,0.0,0.0,0.0,0.0,0.0,0.0,0.0,0.0,0.0,0.0,0.0,0.0,0.0,0.0,0.0,0.0,0.0,0.0,0.0,0.0,0.0,0.0,0.0,0.0,0.0,0.0,0.0,0.0,0.0,0.0,0.0,0.0,0.0,0.0,0.0,0.0,0.0,0.0,0.0,0.0,0.0,0.0,0.0,0.0,0.0,0.0,0.0,0.0,0.0,0.0,0.0,0.0,0.0,0.0,0.0,0.0,0.0,0.0,0.0,0.0,0.0,0.0,0.0,0.0,0.0,0.0,0.0,0.0,0.0,0.0,0.0,0.0,0.0,0.0,0.0,0.0,0.0,0.0,0.0,0.0,0.0,0.0,0.0,0.0,0.0,0.0,0.0,0.0,0.0,0.0,0.0,0.0,0.0,0.0,0.0,0.0,0.0,0.0,0.0,0.0,0.0,0.0,0.0,0.0,0.0,0.0,0.0,0.0,0.0,0.0,0.0,0.0,0.0,0.0,0.0,0.0,0.0,0.0,0.0,0.0,0.0,0.0,0.0,0.0,0.0,0.0,0.0,0.0,0.0,0.0,0.0,0.0,0.0,0.0,0.0,0.0,0.0,0.0,0.0,0.0,0.0,0.0,0.0,0.0,0.0,0.0,0.0,0.0,0.0,0.0,0.0,0.0,0.0,0.0,0.0,0.0,0.0,0.0,0.0,0.0,0.0,0.0,0.0,0.0,0.0,0.0,0.0,0.0,0.0,0.0,0.0,0.0,0.0,0.0,0.0,0.0,0.0,0.0,0.0,0.0,0.0,0.0,0.0,0.0,0.0,0.0,0.0,0.0,0.0,0.0,0.0,0.0,0.0,0.0,0.0,0.0,0.0,0.0,0.0,0.0,0.0,0.0,0.0,0.0,0.0,0.0,0.0,0.0,0.0,0.0,0.0,0.0,0.0,0.0,0.0,0.0,0.0,0.0,0.0,0.0,0.0,0.0,0.0,0.0,0.0,0.0,0.0,0.0,0.0,0.0,0.0,0.0,0.0,0.0,0.0,0.0,0.0,0.0,0.0,0.0,0.0,0.0,0.0,0.0,0.0,0.0,0.0,0.0,0.0,0.0,0.0,0.0,0.0,0.0,0.0,0.0,0.0,0.0,0.0,0.0,0.0,0.0,0.0,0.0,0.0,0.0,0.0,0.0,0.0,0.0,0.0,0.0,0.0,0.0,0.0,0.0,0.0,0.0,0.0,0.0,0.0,0.0,0.0,0.0,0.0,0.0,0.0,0.0,0.0,0.0,0.0,0.0,0.0,0.0,0.0,0.0,0.0,0.0,0.0,0.0,0.0,0.0,0.0,0.0,0.0,0.0,0.0,0.0,0.0,0.0,0.0,0.0,0.0,0.0,0.0,0.0,0.0,0.0,0.0,0.0,0.0,0.0,0.0,0.0,0.0,0.0,0.0,0.0,0.0,0.0,0.0,0.0,0.0,0.0,0.0,0.0,0.0,0.0,0.0,0.0,0.0,0.0,0.0,0.0,0.0,0.0,0.0,0.0,0.0,0.0,0.0,0.0,0.0,0.0,0.0,0.0,0.0,0.0,0.0,0.0,0.0,0.0,0.0,0.0,0.0,0.0,0.0,0.0,0.0,0.0,0.0,0.0,0.0,0.0,0.0,0.0,0.0,0.0,0.0,0.0,0.0,0.0,0.0,0.0,0.0,0.0,0.0,0.0,0.0,0.0,0.0,0.0,0.0,0.0,0.0,0.0,0.0,0.0,0.0,0.0,0.0,0.0,0.0,0.0,0.0,0.0,0.0,0.0,0.0,0.0,0.0,0.0,0.0,0.0,0.0,0.0,0.0,0.0,0.0,0.0,0.0,0.0,0.0,0.0,0.0,0.0,0.0,0.0,0.0,0.0,0.0,0.0,0.0,0.0,0.0,0.0,0.0,0.0,0.0,0.0,0.0,0.0,0.0,0.0,0.0,0.0,0.0,0.0,0.0,0.0,0.0,0.0,0.0,0.0,0.0,0.0,0.0,0.0,0.0,0.0,0.0,0.0,0.0,0.0,0.0,0.0,0.0,0.0,0.0,0.0,0.0,0.0,0.0,0.0,0.0,0.0,0.0,0.0,0.0,0.0,0.0,0.0,0.0,0.0,0.0,0.0,0.0,0.0,0.0,0.0,0.0,0.0,0.0,0.0,0.0,0.0,0.0,0.0,0.0,0.0,0.0,0.0,0.0,0.0,0.0,0.0,0.0,0.0,0.0,0.0,0.0,0.0,0.0,0.0,0.0,0.0,0.0,0.0,0.0,0.0,0.0,0.0,0.0,0.0,0.0,0.0,0.0,0.0,0.0,0.0,0.0,0.0,0.0,0.0,0.0,0.0,0.0,0.0,0.0,0.0,0.0,0.0,0.0,0.0,0.0,0.0,0.0,0.0,0.0,0.0,0.0,0.0,0.0,0.0,0.0,0.0,0.0,0.0,0.0,0.0,0.0,0.0,0.0,0.0,0.0,0.0,0.0,0.0,0.0,0.0,0.0,0.0,0.0,0.0,0.0,0.0,0.0,0.0,0.0,0.0,0.0,0.0,0.0,0.0,0.0,0.0,0.0,0.0,0.0,0.0,0.0,0.0,0.0,0.0,0.0,0.0,0.0,0.0,0.0,0.0,0.0,0.0,0.0,0.0,0.0,0.0,0.0,0.0,0.0,0.0,0.0,0.0,0.0,0.0,0.0,0.0,0.0,0.0,0.0,0.0,0.0,0.0,0.0,0.0,0.0,0.0,0.0,0.0,0.0,0.0,0.0,0.0,0.0,0.0,0.0,0.0,0.0,0.0,0.0,0.0,0.0,0.0,0.0,0.0,0.0,0.0,0.0,0.0,0.0,0.0,0.0,0.0,0.0,0.0,0.0,0.0,0.0,0.0,0.0,0.0,0.0,0.0,0.0,0.0,0.0,0.0,0.0,0.0,0.0,0.0,0.0,0.0,0.0,0.0,0.0,0.0,0.0,0.0,0.0,0.0,0.0,0.0,0.0,0.0,0.0,0.0,0.0,0.0,0.0,0.0,0.0,0.0,0.0,0.0,0.0,0.0,0.0,0.0,0.0,0.0,0.0,0.0,0.0,0.0,0.0,0.0,0.0,0.0,0.0,0.0,0.0,0.0,0.0,0.0,0.0,0.0,0.0,0.0,0.0,0.0,0.0,0.0,0.0,0.0,0.0,0.0,0.0,0.0,0.0,0.0,0.0,0.0,0.0,0.0,0.0,0.0,0.0,0.0,0.0,0.0,0.0,0.0,0.0,0.0,0.0,0.0,0.0,0.0,0.0,0.0,0.0,0.0,0.0,0.0,0.0,0.0,0.0,0.0,0.0,0.0,0.0,0.0,0.0,0.0,0.0,0.0,0.0,0.0,0.0,0.0,0.0,0.0,0.0,0.0,0.0,0.0,0.0,0.0,0.0,0.0,0.0,0.0,0.0,0.0,0.0,0.0,0.0,0.0,0.0,0.0,0.0,0.0,0.0,0.0,0.0,0.0,0.0,0.0,0.0,0.0,0.0,0.0,0.0,0.0,0.0,0.0,0.0,0.0,0.0,0.0,0.0,0.0,0.0,0.0,0.0,0.0,0.0,0.0,0.0,0.0,0.0,0.0,0.0,0.0,0.0,0.0,0.0,0.0,0.0,0.0,0.0,0.0,0.0,0.0,0.0,0.0,0.0,0.0,0.0,0.0,0.0,0.0,0.0,0.0,0.0,0.0,0.0,0.0,0.0,0.0,0.0,0.0,0.0,0.0,0.0,0.0,0.0,0.0,0.0,0.0,0.0,0.0,0.0,0.0,0.0,0.0,0.0,0.0,0.0,0.0,0.0,0.0,0.0,0.0,0.0,0.0,0.0,0.0,0.0,0.0,0.0,0.0,0.0,0.0,0.0,0.0,0.0,0.0,0.0,0.0,0.0,0.0,0.0,0.0,0.0,0.0,0.0,0.0,0.0,0.0,0.0,0.0,0.0,0.0,0.0,0.0,0.0,0.0,0.0,0.0,0.0,0.0,0.0,0.0,0.0,0.0,0.0,0.0,0.0,0.0,0.0,0.0,0.0,0.0,0.0,0.0,0.0,0.0,0.0,0.0,0.0,0.0,0.0,0.0,0.0,0.0,0.0,0.0,0.0,0.0,0.0,0.0,0.0,0.0,0.0,0.0,0.0,0.0,0.0,0.0,0.0,0.0,0.0,0.0,0.0,0.0,0.0,0.0,0.0,0.0,0.0,0.0,0.0,0.0,0.0,0.0,0.0,0.0,0.0,0.0,0.0,0.0,0.0,0.0,0.0,0.0,0.0,0.0,0.0,0.0,0.0,0.0,0.0,0.0,0.0,0.0,0.0,0.0,0.0,0.0,0.0,0.0,0.0,0.0,0.0,0.0,0.0,0.0,0.0,0.0,0.0,0.0,0.0,0.0,0.0,0.0,0.0,0.0,0.0,0.0,0.0,0.0,0.0,0.0,0.0,0.0,0.0,0.0,0.0,0.0,0.0,0.0,0.0,0.0,0.0,0.0,0.0,0.0,0.0,0.0,0.0,0.0,0.0,0.0,0.0,0.0,0.0,0.0,0.0,0.0,0.0,0.0,0.0,0.0,0.0,0.0,0.0,-1.9588,0.0,0.0,0.0,0.0,0.0,0.0,0.0,0.0,0.0,0.0,0.0,0.0,0.0,0.0,0.0,0.0,0.0,0.0,0.0,0.0,0.0,0.0,0.0,0.0,0.0,0.0,0.0,0.0,0.0,0.0,0.0,0.0,0.0,0.0,0.0,0.0,0.0,0.0,0.0,-2.2758,-2.2353,-2.1949,-2.2275,-2.2937,-2.388,0.0,0.0,0.0,0.0,0.0,0.0,0.0,0.0,0.0,0.0,0.0,0.0,0.0,0.0,0.0,0.0,0.0,0.0,0.0,0.0,0.0,0.0,0.0,0.0,0.0,0.0,0.0,0.0,0.0,0.0,0.0,0.0,0.0,0.0,0.0,0.0,0.0,0.0,0.0,0.0,0.0,0.0,0.0,0.0,0.0,0.0,0.0,0.0,0.0,0.0,0.0,0.0,0.0,0.0,0.0,0.0,0.0,0.0,0.0,0.0,0.0,0.0,0.0,0.0,0.0,0.0,0.0,0.0,0.0,0.0,0.0,-1.9424,0.0,0.0,0.0,0.0,0.0,0.0,0.0,0.0,0.0,0.0,0.0,0.0,0.0,0.0,0.0,0.0,0.0,0.0,0.0,0.0,0.0,0.0,0.0,0.0,0.0,0.0,0.0,0.0,0.0,0.0,0.0,0.0,0.0,0.0,0.0,0.0,0.0,0.0,-2.1804,-2.1089,-2.0377,-2.0489,-2.1382,-2.2928,-2.3421,0.0,0.0,0.0,0.0,0.0,0.0,0.0,0.0,0.0,0.0,0.0,0.0,0.0,0.0,0.0,0.0,0.0,0.0,0.0,0.0,0.0,0.0,0.0,0.0,0.0,0.0,0.0,0.0,0.0,0.0,0.0,0.0,0.0,0.0,0.0,0.0,0.0,0.0,0.0,0.0,0.0,0.0,0.0,0.0,0.0,0.0,0.0,0.0,0.0,0.0,0.0,0.0,0.0,0.0,0.0,0.0,0.0,0.0,0.0,0.0,0.0,0.0,0.0,-1.774,-1.778,-1.778,-1.7713,-1.7801,-1.7967,-1.8588,-1.8869,-1.8936,0.0,0.0,0.0,0.0,0.0,0.0,0.0,0.0,0.0,0.0,0.0,0.0,0.0,0.0,0.0,0.0,0.0,0.0,0.0,0.0,0.0,0.0,0.0,0.0,0.0,0.0,0.0,0.0,0.0,0.0,0.0,0.0,0.0,0.0,-2.0782,-2.0409,-1.9974,-1.9811,-1.9634,-1.9484,-2.0014,-2.0353,-2.059,-2.1217,-2.1396,-2.1238,0.0,0.0,0.0,0.0,0.0,0.0,0.0,0.0,0.0,0.0,0.0,0.0,0.0,0.0,0.0,0.0,0.0,0.0,0.0,0.0,0.0,0.0,0.0,0.0,0.0,0.0,0.0,0.0,0.0,0.0,0.0,0.0,0.0,0.0,0.0,0.0,0.0,0.0,0.0,0.0,0.0,-1.6244,-1.6297,0.0,0.0,0.0,0.0,0.0,0.0,0.0,0.0,0.0,0.0,0.0,0.0,0.0,-1.6685,-1.693,-1.6888,-1.7005,-1.7269,-1.7289,-1.7289,-1.7289,-1.7289,-1.7289,-1.7331,-1.7413,0.0,-1.8898,-1.8993,0.0,0.0,0.0,0.0,0.0,0.0,0.0,0.0,0.0,0.0,0.0,0.0,0.0,0.0,0.0,0.0,0.0,0.0,0.0,0.0,0.0,0.0,0.0,0.0,0.0,0.0,0.0,0.0,0.0,0.0,0.0,0.0,-2.0025,-1.9768,-1.9267,-1.8537,-1.8526,-1.8235,-1.7727,-1.8007,-1.8162,-1.8251,-1.8714,-1.9539,-2.0604,-2.0916,0.0,0.0,0.0,0.0,0.0,0.0,0.0,0.0,0.0,0.0,0.0,0.0,0.0,0.0,0.0,0.0,0.0,0.0,0.0,0.0,0.0,0.0,0.0,0.0,0.0,0.0,0.0,0.0,0.0,0.0,0.0,0.0,0.0,0.0,0.0,0.0,0.0,0.0,0.0,-1.6549,-1.6602,-1.6287,-1.6775,-1.7126,0.0,0.0,0.0,0.0,0.0,0.0,0.0,0.0,0.0,-1.657,-1.6281,-1.6141,-1.6175,-1.6154,-1.6175,-1.625,-1.625,-1.625,-1.625,-1.625,-1.6367,-1.6591,-1.6667,-1.6956,-1.7423,-1.7942,-1.8087,-1.7984,0.0,0.0,0.0,0.0,-1.8243,-1.8027,0.0,0.0,0.0,0.0,0.0,0.0,0.0,0.0,0.0,0.0,0.0,0.0,0.0,0.0,0.0,-2.1145,0.0,0.0,0.0,0.0,0.0,0.0,0.0,-1.8976,-1.8924,-1.8575,-1.8049,-1.7392,-1.7536,-1.7349,-1.6853,-1.6749,-1.6779,-1.6924,-1.7054,-1.8044,-1.9658,-1.9922,-1.968,-1.9112,0.0,0.0,0.0,0.0,0.0,0.0,0.0,0.0,0.0,0.0,0.0,0.0,0.0,0.0,0.0,0.0,0.0,0.0,0.0,0.0,0.0,0.0,0.0,0.0,0.0,0.0,0.0,0.0,0.0,0.0,0.0,0.0,0.0,0.0,0.0,0.0,0.0,-1.6518,-1.6441,-1.6129,-1.6343,-1.6536,0.0,0.0,0.0,0.0,0.0,0.0,-1.5851,-1.5954,-1.588,-1.5566,-1.5656,-1.5538,-1.5146,-1.5102,-1.4981,-1.4783,-1.4783,-1.4783,-1.4783,-1.4783,-1.4968,-1.5279,-1.5389,-1.5412,-1.5507,-1.677,-1.6969,-1.6556,-1.7207,-1.7213,-1.6894,-1.7188,-1.7129,-1.683,0.0,0.0,0.0,0.0,0.0,0.0,0.0,0.0,0.0,0.0,0.0,0.0,0.0,0.0,-1.9948,-1.9118,-1.9007,-1.8617,0.0,0.0,0.0,-1.7971,-1.7986,-1.7869,-1.7599,-1.6831,-1.6391,-1.6278,-1.6789,-1.7319,-1.7819,-1.7437,-1.7273,-1.7256,-1.6958,-1.7088,-1.7572,-1.7844,-1.7962,-1.7997,-1.8152,0.0,0.0,0.0,0.0,0.0,0.0,0.0,0.0,0.0,0.0,0.0,0.0,0.0,0.0,0.0,0.0,0.0,0.0,0.0,0.0,0.0,0.0,0.0,0.0,0.0,0.0,0.0,0.0,0.0,0.0,0.0,0.0,0.0,0.0,0.0,0.0,0.0,0.0,-1.5479,-1.5344,0.0,0.0,0.0,0.0,-1.5661,-1.5174,-1.4809,-1.4604,-1.5008,-1.4983,-1.4405,-1.4764,-1.4526,-1.3618,-1.3485,-1.3226,-1.2848,-1.2848,-1.2848,-1.2848,-1.2848,-1.2932,-1.3058,-1.3069,-1.3141,-1.3433,-1.558,-1.6139,-1.5673,-1.5718,-1.5705,-1.5623,-1.5216,-1.5057,-1.4992,0.0,0.0,0.0,0.0,0.0,0.0,0.0,0.0,0.0,0.0,0.0,0.0,0.0,-1.9569,-1.8914,-1.8621,-1.7961,-1.7311,-1.6704,0.0,0.0,-1.623,-1.623,-1.6273,-1.6328,-1.6439,-1.6461,-1.64,-1.651,-1.6778,-1.7192,-1.7009,-1.7119,-1.7484,-1.7365,-1.7629,-1.8168,-1.8231,-1.8431,-1.8766,-1.9026,-1.8942,0.0,0.0,0.0,0.0,0.0,0.0,0.0,0.0,0.0,0.0,0.0,0.0,0.0,0.0,0.0,0.0,0.0,0.0,0.0,0.0,0.0,0.0,0.0,0.0,0.0,0.0,0.0,0.0,0.0,0.0,0.0,0.0,0.0,0.0,0.0,0.0,0.0,-1.4239,-1.4127,0.0,-1.3769,-1.3769,-1.375,-1.373,-1.3643,-1.3499,-1.3335,-1.3504,-1.3474,-1.3202,-1.3348,-1.3285,-1.2981,-1.2889,-1.2774,-1.2637,-1.2552,-1.2521,-1.2584,-1.2584,-1.2647,-1.2763,-1.2763,-1.2663,-1.2513,-1.3319,-1.3705,-1.3911,-1.4529,-1.4562,-1.4231,-1.4159,-1.4122,-1.4062,0.0,0.0,0.0,0.0,0.0,0.0,0.0,0.0,0.0,0.0,0.0,-2.0012,-1.9419,-1.8582,-1.7826,-1.7236,-1.654,-1.5909,-1.5382,0.0,0.0,-1.5358,-1.5668,-1.5843,-1.5825,-1.6327,-1.6577,-1.6601,-1.6592,-1.6816,-1.7193,-1.6902,-1.6969,-1.7361,-1.7382,-1.7775,-1.8437,-1.8651,-1.8873,-1.9125,-1.9345,-1.9197,-1.8895,0.0,0.0,0.0,0.0,0.0,0.0,0.0,0.0,0.0,0.0,0.0,0.0,0.0,0.0,0.0,0.0,0.0,0.0,0.0,0.0,0.0,0.0,0.0,0.0,0.0,0.0,0.0,0.0,0.0,0.0,0.0,0.0,0.0,0.0,0.0,-1.3664,-1.3281,-1.3085,-1.2892,-1.2648,-1.256,-1.2505,-1.2505,-1.2385,-1.2299,-1.2187,-1.2316,-1.2381,-1.2329,-1.2499,-1.251,-1.2341,-1.2276,-1.219,-1.204,-1.1943,-1.1912,-1.1955,-1.1955,-1.2019,-1.2137,-1.217,-1.2078,-1.1871,-1.2065,-1.2348,-1.2709,-1.3174,-1.3138,-1.2843,-1.2919,-1.2966,-1.293,0.0,0.0,0.0,0.0,0.0,0.0,0.0,0.0,0.0,0.0,-1.9952,-1.9038,-1.7989,-1.7533,-1.6638,-1.4941,-1.4782,-1.4462,-1.3741,-1.4072,0.0,-1.5449,-1.6352,-1.6621,-1.6105,-1.6362,-1.6606,-1.678,-1.7041,-1.7424,-1.7927,-1.7204,-1.6861,-1.6872,-1.6937,-1.7375,-1.8106,-1.8827,-1.9014,-1.8854,-1.8905,-1.8906,-1.8905,0.0,0.0,0.0,0.0,0.0,0.0,0.0,0.0,0.0,0.0,0.0,0.0,0.0,0.0,0.0,0.0,0.0,0.0,0.0,0.0,0.0,0.0,0.0,0.0,0.0,0.0,0.0,0.0,0.0,0.0,0.0,0.0,0.0,-1.3442,-1.3074,-1.2719,-1.2637,-1.2234,-1.2181,-1.2762,-1.2339,-1.2038,-1.2038,-1.1512,-1.1182,-1.1182,-1.1559,-1.1762,-1.1762,-1.2256,-1.2224,-1.1565,-1.1523,-1.1295,-1.0842,-1.082,-1.082,-1.0842,-1.0842,-1.0873,-1.0949,-1.1085,-1.1195,-1.1378,-1.1881,-1.2107,-1.2067,-1.1699,-1.1541,-1.1541,-1.1522,-1.1493,-1.1472,0.0,0.0,0.0,0.0,0.0,0.0,0.0,0.0,0.0,0.0,-1.8966,-1.8097,-1.746,-1.6218,-1.5247,-1.477,-1.4275,-1.3922,-1.3715,0.0,0.0,-1.5051,-1.5498,-1.5676,-1.5529,-1.6259,-1.6617,-1.6578,-1.6419,-1.6527,-1.6896,-1.6207,-1.6072,-1.6386,-1.6407,-1.6659,-1.7116,-1.7471,-1.7721,-1.7972,-1.909,-1.9246,-1.8879,0.0,0.0,0.0,0.0,0.0,0.0,0.0,0.0,0.0,0.0,0.0,0.0,0.0,0.0,0.0,0.0,0.0,0.0,0.0,0.0,0.0,0.0,0.0,0.0,0.0,0.0,0.0,0.0,0.0,0.0,0.0,0.0,-1.3038,-1.3118,-1.2426,-1.179,-1.1447,-1.1272,-1.1102,-1.0895,-1.0814,-1.0734,-1.0587,-1.0735,-1.0763,-1.0631,-1.1004,-1.1214,-1.1152,-1.1022,-1.0841,-1.066,-1.0028,-0.9656,-0.9511,-0.9169,-0.9232,-0.9656,-0.9419,-0.9523,-0.9894,-0.9588,-0.9535,-0.9665,-0.9712,-0.9785,-1.0045,-1.1767,-1.2435,-1.2415,-1.2129,-1.1409,-1.0542,0.0,0.0,0.0,0.0,0.0,0.0,0.0,0.0,0.0,0.0,-1.8088,-1.6942,-1.6231,-1.5135,-1.4286,-1.3892,-1.3517,-1.3278,-1.3279,0.0,-1.4354,-1.453,-1.5123,-1.5435,-1.5341,-1.5788,-1.5998,-1.5925,-1.5377,-1.5224,-1.5398,-1.5133,-1.5127,-1.5423,-1.5758,-1.6005,-1.6216,-1.654,-1.6732,-1.6915,-1.7816,-1.8382,-1.8751,-1.9161,-1.9204,-1.9114,-1.968,-1.9854,-1.9838,-1.9969,0.0,0.0,0.0,0.0,0.0,0.0,0.0,0.0,0.0,0.0,0.0,0.0,0.0,0.0,0.0,0.0,0.0,0.0,0.0,0.0,0.0,0.0,0.0,0.0,-1.2483,-1.1987,-1.1645,-1.1424,-1.1154,-1.0703,-1.0604,-1.0387,-0.9882,-1.0003,-0.991,-0.9486,-0.9757,-0.9837,-0.9624,-0.9781,-0.9939,-1.0088,-0.9887,-0.9843,-1.0009,-0.9503,-0.9244,-0.9244,-0.8966,-0.903,-0.9351,-0.9172,-0.9257,0.0,-0.9313,-0.9278,-0.938,-0.9291,-0.9334,0.0,0.0,0.0,0.0,0.0,-1.0498,-0.9932,0.0,0.0,0.0,0.0,0.0,0.0,0.0,0.0,0.0,0.0,0.0,-1.577,-1.4796,-1.4254,-1.3609,-1.2763,-1.2656,-1.2649,0.0,-1.3463,-1.3903,-1.3969,-1.4917,-1.5384,-1.5193,-1.4998,-1.4917,-1.4898,-1.4095,-1.3728,-1.3759,-1.3923,-1.4029,-1.4088,-1.4803,-1.5109,-1.5159,-1.5599,-1.5703,-1.5571,-1.5558,-1.6643,-1.8258,-1.82,-1.848,-1.8883,-1.8688,-1.8805,-1.898,-1.8797,0.0,0.0,0.0,0.0,0.0,0.0,0.0,0.0,0.0,0.0,0.0,0.0,0.0,0.0,0.0,0.0,0.0,0.0,0.0,0.0,0.0,0.0,0.0,0.0,-1.1361,-1.048,-0.9701,-1.0254,-1.0608,-1.0253,-1.0087,-0.9869,-0.9502,-0.9617,-0.9431,-0.8729,-0.8837,-0.8816,-0.8573,0.0,0.0,0.0,0.0,-0.9179,-0.954,-0.9431,-0.9361,-0.9316,-0.9248,-0.9217,-0.9217,-0.9195,-0.9195,-0.9248,-0.9331,-0.9399,-0.946,-0.9458,-0.954,-0.9617,-0.9224,-0.9033,-0.8984,-0.8909,-0.9115,-0.9405,0.0,0.0,0.0,0.0,0.0,0.0,0.0,0.0,0.0,-1.8411,-1.6445,-1.4999,-1.4721,-1.367,-1.2907,-1.2721,-1.2395,-1.2343,-1.2672,-1.3011,-1.3391,-1.3809,-1.395,-1.3983,-1.395,-1.3806,-1.3735,-1.3728,-1.2869,-1.2595,-1.2833,-1.2347,-1.2278,-1.2531,-1.2684,-1.2757,-1.2782,-1.3135,-1.3401,-1.3541,-1.3438,-1.4522,-1.6186,-1.6163,-1.6078,-1.603,-1.6713,-1.6828,-1.6764,-1.7464,-1.7538,-1.7329,-1.724,0.0,0.0,0.0,0.0,0.0,0.0,0.0,0.0,0.0,0.0,0.0,0.0,0.0,0.0,0.0,0.0,0.0,0.0,0.0,0.0,-1.1084,-1.0323,-0.98,-0.9615,-0.9704,-0.9733,-0.9663,-0.9549,-0.9423,-0.9338,-0.9278,-0.9042,-0.8586,-0.8866,-0.9015,-0.8915,-0.9195,0.0,-0.9468,-0.9157,-0.9044,-0.9109,-0.8413,-0.7879,-0.7503,0.0,0.0,-0.6933,-0.665,-0.6743,-0.7075,-0.6845,-0.6736,-0.6764,-0.6758,-0.686,-0.7201,-0.883,-0.9264,-0.885,-0.8377,-0.8245,-0.8216,0.0,0.0,0.0,0.0,0.0,0.0,0.0,0.0,0.0,0.0,-1.5988,-1.4469,-1.4235,-1.3445,-1.2878,-1.2709,-1.248,-1.2307,-1.2256,-1.2501,-1.2726,-1.2943,-1.2912,-1.2878,-1.2849,-1.2494,-1.2278,-1.2201,-1.1436,-1.112,-1.1287,-1.1124,-1.114,-1.1308,-1.1501,-1.1601,-1.1601,-1.167,-1.175,-1.1859,-1.1902,-1.2304,-1.3042,-1.4286,-1.4826,-1.5006,-1.5563,-1.5647,-1.5554,-1.6028,-1.6061,-1.5923,-1.6068,-1.5937,-1.5784,0.0,0.0,0.0,0.0,0.0,0.0,0.0,0.0,0.0,0.0,0.0,0.0,0.0,0.0,-1.2819,0.0,0.0,-1.0817,-0.9935,-0.9661,-0.939,-0.8957,-0.901,-0.9205,-0.9465,-0.9375,-0.9182,-0.8931,-0.8844,-0.8538,-0.7893,-0.8162,-0.8165,-0.7767,-0.7874,-0.7864,-0.7657,-0.7563,-0.7444,-0.7351,-0.7017,-0.6685,-0.6346,-0.6118,-0.6012,-0.6,-0.5819,-0.5867,-0.6091,-0.5926,-0.5867,-0.5916,-0.6044,-0.5974,-0.5927,-0.7277,-0.7805,-0.7755,-0.747,-0.7351,-0.7287,0.0,0.0,0.0,0.0,0.0,0.0,0.0,0.0,0.0,0.0,-1.5854,-1.4141,-1.3735,-1.3399,-1.3022,0.0,-1.2563,-1.234,-1.1824,-1.2101,-1.22,-1.2101,-1.2078,-1.202,-1.1943,-1.1287,-1.09,-1.0792,-1.0132,-0.9842,-0.9941,-1.0186,-1.0351,-1.0408,-1.0742,-1.0891,-1.0872,-1.0664,-1.0569,-1.0579,-1.0636,-1.0426,-1.0301,-1.2249,-1.3406,-1.3994,-1.4179,-1.4279,-1.4345,-1.4432,-1.4399,-1.4365,-1.4664,-1.462,-1.4506,-1.4664,-1.4697,0.0,0.0,0.0,0.0,0.0,0.0,0.0,0.0,0.0,-1.3273,-1.1814,-1.1676,-1.1495,-1.0511,-1.0056,-0.9614,-0.8928,-0.8987,-0.8875,-0.8139,-0.8286,-0.8621,-0.9007,-0.8997,-0.8754,-0.8202,-0.8106,-0.778,-0.7012,-0.7168,-0.7019,-0.6383,-0.6231,-0.6054,-0.576,-0.5889,-0.5889,-0.576,-0.5889,-0.5825,-0.5567,-0.5567,-0.5524,-0.5437,-0.5437,-0.5437,-0.5437,-0.548,-0.5459,-0.5443,-0.5723,-0.5507,-0.507,-0.5448,-0.5857,-0.6252,-0.6428,-0.6498,-0.6498,0.0,0.0,0.0,0.0,0.0,0.0,0.0,0.0,0.0,0.0,0.0,0.0,0.0,0.0,0.0,-1.2222,-1.2323,-1.2254,-1.1824,-1.1997,-1.2126,-1.2101,-1.1763,-1.1528,-1.1391,-1.0502,-1.0036,-1.0028,-0.9415,-0.9326,-0.9742,-0.9646,-0.9765,-1.0059,-1.0108,-1.0127,-1.0108,-0.9844,-0.9904,-1.0118,-0.9617,-0.952,-0.968,-0.9776,-1.0293,-1.1021,-1.1406,-1.1732,-1.2029,-1.2394,-1.2392,-1.2302,-1.2685,-1.2553,-1.2497,-1.3733,0.0,-1.3894,-1.4525,-1.3852,-1.2885,-1.238,-1.1848,-1.1468,0.0,0.0,-1.1493,-1.1301,-1.0975,-1.0631,-1.0132,-0.9444,-0.8766,-0.8196,-0.7944,-0.7738,-0.7523,-0.7587,-0.7587,-0.7459,-0.7648,-0.7556,-0.6953,-0.6754,-0.6499,-0.6163,-0.6169,-0.6067,-0.5809,-0.5782,-0.5825,-0.5969,-0.5825,-0.5803,-0.5969,-0.5825,-0.5524,-0.5075,-0.5075,-0.4857,-0.4447,-0.4447,-0.4447,-0.4469,-0.4639,-0.4487,-0.4144,-0.4403,-0.4338,-0.4052,-0.4122,-0.4316,-0.4666,-0.5496,-0.5809,-0.5809,0.0,0.0,0.0,0.0,0.0,0.0,0.0,0.0,0.0,0.0,0.0,0.0,0.0,0.0,0.0,-1.2437,-1.239,-1.2224,-1.1835,-1.2001,-1.2095,-1.2092,-1.1485,-1.1053,-1.0847,-0.9992,-0.9497,-0.9368,-0.9116,-0.9105,-0.9286,-0.9237,-0.9288,-0.9417,-0.9417,-0.9357,-0.9228,-0.8999,-0.8889,-0.8872,-0.8765,-0.8594,-0.8399,-0.8509,-0.8731,-0.9122,-1.0193,-1.0646,0.0,0.0,-1.1455,-1.1387,-1.1787,-1.1746,-1.1663,-1.2213,-1.2474,0.0,-1.2994,-1.2307,-1.1516,0.0,-1.1116,-1.0727,-1.0727,-1.0787,-1.0652,-0.9935,-0.9519,-0.9144,-0.8739,-0.8168,-0.772,0.0,-0.7711,-0.7764,-0.7708,-0.7647,-0.7432,-0.6954,-0.676,-0.6684,-0.6692,-0.6453,-0.6231,-0.612,-0.6109,-0.5959,-0.5593,-0.5502,-0.5373,-0.52,-0.5113,-0.5048,-0.5005,-0.4853,-0.4591,-0.4246,-0.4045,-0.3851,-0.3656,-0.3656,-0.3656,-0.3656,-0.3741,-0.3678,-0.3502,-0.3788,-0.3851,-0.3788,-0.3965,-0.414,-0.4338,-0.4736,-0.4888,-0.4888,0.0,0.0,0.0,0.0,0.0,0.0,0.0,0.0,0.0,0.0,0.0,0.0,0.0,0.0,-1.3067,-1.2794,-1.2547,-1.2285,-1.1988,-1.2053,-1.2096,-1.2107,-1.1297,-1.0745,-1.0499,-0.9685,-0.9188,-0.8996,-0.8883,-0.8895,-0.8996,-0.8744,-0.8712,-0.8822,-0.8663,-0.8561,-0.8492,-0.8262,-0.809,-0.8021,-0.8139,-0.7933,-0.7523,-0.7752,-0.778,-0.7863,-0.9076,-0.9532,-0.9646,-1.008,-1.0162,-1.0111,-1.0532,-1.0573,-1.0503,-1.0668,-1.0963,-1.1235,-1.1123,-1.0598,0.0,-1.0381,-1.0131,-0.9855,-0.9855,-0.9917,-0.9755,-0.8883,-0.842,-0.81,-0.7816,-0.741,-0.7156,-0.7327,-0.7542,-0.7665,-0.7519,-0.7403,-0.7025,-0.6221,-0.5854,-0.5719,-0.5871,-0.5875,-0.582,-0.5685,-0.5637,-0.5464,-0.5079,-0.4853,-0.4635,-0.4465,-0.4308,-0.418,-0.4118,-0.3939,-0.3763,-0.3568,-0.3325,-0.3192,-0.3192,-0.3056,-0.2943,-0.2807,-0.2876,-0.2832,-0.2721,-0.3028,-0.3117,-0.3053,-0.3271,-0.3404,-0.3495,-0.3495,-0.3851,-0.4302,0.0,0.0,0.0,0.0,0.0,0.0,0.0,0.0,0.0,0.0,0.0,0.0,0.0,0.0,-1.3199,-1.3182,-1.2707,-1.2385,-1.2383,-1.2201,-1.2096,-1.2107,-1.1195,-1.0633,-1.0499,-0.9652,-0.9136,-0.8996,-0.8618,-0.8618,-0.8975,-0.8136,-0.7979,-0.8394,-0.7814,-0.7731,-0.8,-0.7662,-0.771,-0.7979,-0.7787,-0.7642,-0.7502,-0.7433,-0.7335,-0.7272,-0.7641,-0.7992,-0.8239,-0.8131,-0.8015,-0.7972,-0.8433,-0.8503,0.0,-0.924,-0.9518,-0.9499,-0.9177,-0.8961,-0.8787,-0.8554,-0.8474,-0.8448,-0.8448,-0.8474,-0.8448,-0.8421,-0.8139,-0.7911,-0.7898,-0.7609,-0.7339,-0.7232,-0.7228,-0.703,-0.6509,-0.6447,-0.5992,-0.4794,-0.4772,-0.4565,0.0,-0.4543,-0.4849,-0.4381,-0.4246,-0.4092,-0.3946,-0.3502,-0.352,-0.4089,-0.3542,-0.3369,-0.3631,-0.3366,-0.3214,-0.3214,-0.3214,-0.3192,-0.3192,-0.2741,-0.2268,-0.1844,-0.2045,-0.1869,-0.1493,-0.189,-0.1782,-0.1387,-0.1456,-0.1478,-0.1478,-0.1478,-0.2674,-0.43,0.0,0.0,0.0,0.0,0.0,0.0,0.0,0.0,0.0,0.0,0.0,0.0,0.0,0.0,0.0,0.0,-1.2954,-1.2536,-1.2416,-1.2213,-1.2053,-1.1978,-1.1141,-1.0611,-1.0363,-0.9287,-0.8692,-0.8598,-0.8455,-0.8304,-0.8136,-0.8152,-0.8028,-0.7793,-0.7586,-0.7558,-0.7669,-0.7544,-0.7558,-0.7641,-0.7314,-0.7217,-0.7265,-0.6929,-0.6907,-0.7091,0.0,-0.7419,-0.7697,-0.7821,-0.7599,-0.7308,-0.756,-0.7553,-0.7574,-0.8327,-0.8289,-0.8097,-0.8346,0.0,-0.813,-0.8126,-0.8146,-0.8171,-0.8356,-0.8156,-0.783,-0.7417,-0.7205,-0.7035,-0.6818,-0.6581,-0.6401,-0.6406,-0.6149,-0.586,-0.5565,-0.5221,-0.4906,-0.4642,-0.4287,0.0,0.0,0.0,0.0,-0.3917,-0.3851,-0.3854,-0.3897,-0.3622,-0.3611,-0.3904,-0.3442,-0.3119,-0.2945,-0.2578,-0.223,-0.1871,-0.165,-0.1541,-0.1541,-0.1383,-0.1227,-0.107,-0.1138,-0.1139,-0.1072,-0.1205,-0.1274,-0.1299,-0.1321,-0.1366,-0.1411,-0.1411,-0.1811,-0.238,0.0,0.0,0.0,0.0,0.0,0.0,0.0,0.0,0.0,0.0,0.0,0.0,0.0,0.0,0.0,0.0,0.0,-1.268,-1.2581,-1.2281,-1.1967,-1.1694,-1.1025,-1.0483,-1.0131,-0.9031,-0.8508,-0.8618,-0.8139,-0.7925,-0.7938,-0.7718,-0.7489,-0.728,-0.7014,-0.7035,-0.728,-0.7231,-0.7335,-0.7482,-0.7224,-0.7048,-0.6935,-0.6802,-0.6753,0.0,-0.6656,-0.6747,-0.6915,-0.7098,-0.6881,-0.6531,-0.644,-0.6292,-0.6243,-0.6715,-0.6563,-0.6338,-0.6795,-0.6795,-0.6699,-0.6883,-0.6926,-0.6965,-0.7149,-0.699,-0.6701,-0.6299,-0.6207,-0.6132,-0.591,-0.5779,-0.5708,-0.5747,-0.5464,-0.5144,-0.4942,-0.4624,-0.4358,-0.4181,-0.3829,-0.3502,0.0,0.0,0.0,-0.3507,-0.3417,-0.3407,-0.3571,-0.3265,-0.3109,-0.3151,-0.2776,-0.2352,-0.1925,-0.1674,-0.1362,-0.1027,-0.0804,-0.0626,-0.0514,-0.047,-0.038,-0.0269,-0.0273,-0.0321,-0.0412,-0.0481,-0.0619,-0.0778,-0.0812,-0.0852,-0.0897,-0.0897,-0.0897,-0.0947,0.0,0.0,0.0,0.0,0.0,0.0,0.0,0.0,0.0,0.0,0.0,0.0,0.0,0.0,0.0,0.0,0.0,0.0,-1.291,-1.2413,-1.189,-1.1366,-1.0849,-1.0356,-0.9828,-0.8882,-0.8578,-0.8964,-0.769,-0.751,-0.8291,-0.6937,-0.6505,-0.6851,-0.6157,-0.6243,-0.6914,-0.6774,-0.7014,-0.7502,-0.7461,-0.7084,-0.6568,-0.6999,-0.6816,-0.631,-0.6097,-0.6017,-0.599,-0.5947,-0.5803,-0.5545,-0.5113,-0.4787,-0.457,-0.4596,-0.4469,-0.4375,-0.4686,-0.4686,-0.4654,-0.4922,-0.4968,-0.4972,-0.5009,-0.5115,-0.5185,-0.5168,-0.5229,-0.5296,0.0,0.0,-0.525,-0.5195,-0.5109,-0.4888,-0.4493,-0.4488,-0.4213,0.0,0.0,0.0,0.0,0.0,0.0,-0.3052,0.0,-0.2733,-0.2934,-0.2427,-0.2064,-0.1954,-0.1569,-0.1142,-0.0674,-0.065,-0.0627,-0.0629,-0.0629,-0.0472,-0.0157,-0.0022,0.0225,0.0544,0.0565,0.0575,0.0575,0.0359,0.0263,0.0238,0.0069,0.0,0.0,0.0,0.0,-0.0136,0.0,0.0,0.0,0.0,0.0,0.0,0.0,0.0,0.0,0.0,0.0,0.0,0.0,0.0,0.0,0.0,0.0,0.0,-1.3093,-1.2632,-1.2241,-1.1837,-1.104,-1.0419,-1.0028,-0.8965,-0.8455,-0.8557,-0.8201,-0.7801,-0.7356,-0.7482,-0.721,-0.6611,-0.6611,-0.6808,-0.7111,-0.6985,-0.7112,-0.7391,-0.6943,-0.6795,-0.6852,-0.6613,-0.6662,-0.6761,-0.6301,-0.6087,-0.5926,-0.5416,-0.4983,-0.4639,-0.4513,-0.4355,-0.4286,-0.4526,-0.4574,-0.4499,-0.444,-0.4444,-0.4481,-0.465,-0.4695,-0.4756,-0.4951,-0.5113,-0.5081,-0.4625,-0.4947,-0.5177,0.0,0.0,0.0,-0.3898,-0.3904,0.0,-0.2509,-0.3045,0.0,-0.2041,0.0,-0.2129,-0.1522,-0.1367,0.0,0.0,-0.1765,-0.1914,-0.2034,-0.1418,-0.1128,-0.1246,-0.1017,-0.0681,-0.0258,0.0137,0.0365,0.0423,0.0258,0.0262,0.0392,0.0441,0.0734,0.1248,0.1358,0.1589,0.1884,0.1374,0.1049,0.083,0.0342,0.009,0.0,0.0,0.0,-0.0047,0.0,0.0,0.0,0.0,0.0,0.0,0.0,0.0,0.0,0.0,0.0,0.0,0.0,0.0,0.0,0.0,0.0,0.0,0.0,-1.2962,-1.2268,-1.1762,-1.1122,-1.0484,-0.9851,-0.9016,-0.861,-0.8659,-0.8283,-0.7855,-0.7433,-0.7579,-0.7294,-0.6675,-0.6717,-0.6865,-0.7097,-0.7013,-0.7097,0.0,0.0,-0.6753,-0.6677,-0.6634,-0.6634,-0.6613,-0.6023,0.0,0.0,0.0,0.0,-0.3994,-0.3924,-0.381,-0.3741,-0.3939,0.0,-0.3832,-0.3741,-0.3741,-0.3762,-0.3828,-0.3853,-0.3897,-0.4037,-0.4157,-0.4154,-0.3878,-0.4163,0.0,-0.3795,-0.371,0.0,0.0,0.0,0.0,-0.1789,-0.2062,-0.2096,0.0,-0.1489,0.0,-0.1001,-0.091,-0.0853,0.0,-0.1066,-0.1253,-0.1351,-0.0938,-0.0663,-0.0574,-0.0458,-0.0183,0.0286,0.0593,0.0742,0.071,0.0587,0.0643,0.0832,0.0932,0.1284,0.1811,0.0,0.2043,0.2186,0.1796,0.1474,0.1211,0.0998,0.0829,0.0716,0.0775,0.0791,0.0777,0.0,0.0,0.0,0.0,0.0,0.0,0.0,0.0,0.0,0.0,0.0,0.0,0.0,0.0,0.0,0.0,0.0,0.0,0.0,0.0,0.0,-1.163,-1.1242,-1.0629,-0.9716,-0.9202,-0.901,-0.9136,-0.8321,-0.7992,-0.8054,-0.7579,-0.7217,-0.6956,-0.6732,-0.6789,-0.7063,-0.6971,-0.7041,-0.7195,-0.7188,-0.6859,-0.6437,0.0,0.0,0.0,0.0,0.0,0.0,0.0,-0.3648,-0.3578,-0.3464,-0.3328,-0.3214,-0.3214,-0.3062,-0.2932,-0.297,-0.2951,-0.289,-0.289,-0.2912,-0.2912,-0.2912,-0.2986,-0.308,-0.3169,0.0,-0.3276,-0.2802,-0.2708,-0.2486,-0.179,0.0,-0.1621,-0.1567,-0.1389,-0.1229,-0.1203,-0.101,-0.0824,-0.0625,-0.0597,-0.0562,-0.0516,-0.0514,-0.0591,-0.0777,-0.0617,-0.0314,0.009,0.0113,0.0323,0.0794,0.0795,0.0733,0.0609,0.066,0.084,0.11,0.143,0.1837,0.2327,0.0,0.0,0.2253,0.203,0.1788,0.1571,0.1781,0.1759,0.1625,0.1751,0.1777,0.1751,0.0,0.0,0.0,0.0,0.0,0.0,0.0,0.0,0.0,0.0,0.0,0.0,0.0,0.0,0.0,0.0,0.0,0.0,0.0,0.0,0.0,0.0,-1.1802,-1.1159,-1.0743,-1.0108,-0.9794,-0.9823,-0.9399,-0.8921,-0.8407,-0.8267,-0.787,-0.7307,-0.7321,-0.7356,-0.7398,-0.723,-0.7174,-0.7195,-0.7076,-0.6979,-0.6894,0.0,0.0,0.0,0.0,0.0,0.0,0.0,-0.3928,-0.3604,-0.3578,-0.3464,-0.335,-0.3236,-0.3103,-0.297,-0.2932,-0.2912,-0.289,-0.289,-0.2951,-0.297,-0.2912,-0.3121,0.0,0.0,-0.3393,-0.3385,-0.2802,-0.2708,-0.2347,-0.1232,-0.1456,-0.1427,-0.0448,-0.103,-0.1165,0.0,-0.0269,0.0,0.0,0.0,0.0,0.0,0.0,0.027,-0.0136,0.0225,0.0525,0.0661,0.0662,0.0698,0.0799,0.0804,0.0743,0.0607,0.1003,0.1152,0.113,0.1678,0.228,0.2934,0.2895,0.0,0.3689,0.3001,0.2554,0.2306,0.2186,0.1901,0.1621,0.1746,0.1736,0.1624,0.0,0.0,0.0,0.0,0.0,0.0,0.0,0.0,0.0,0.0,-2.1744,-2.076,0.0,0.0,0.0,0.0,0.0,0.0,0.0,0.0,0.0,0.0,0.0,0.0,0.0,-1.0687,-1.0351,-1.0,0.0,-0.9439,-0.9022,-0.8918,-0.8643,-0.8214,-0.7897,-0.7897,-0.8075,-0.7384,-0.7238,-0.7426,-0.7126,-0.6985,0.0,0.0,0.0,0.0,0.0,0.0,0.0,0.0,-0.4096,-0.3814,-0.3575,-0.3398,-0.3262,-0.3126,-0.3037,-0.2951,-0.2912,-0.2932,-0.2951,-0.2951,-0.3037,-0.3081,-0.297,0.0,0.0,0.0,-0.3368,-0.3329,-0.2802,-0.243,0.0,-0.1037,-0.0868,-0.0672,-0.0084,-0.0336,0.0,0.0224,0.0304,0.0,0.0,0.0,0.0,0.0,0.0,0.0607,0.0381,0.0619,0.0913,0.1264,0.1264,0.1426,0.1733,0.1689,0.1613,0.1421,0.1586,0.1764,0.1958,0.2293,0.2822,0.3458,0.342,0.0,0.3703,0.333,0.298,0.2705,0.271,0.2567,0.2338,0.2479,0.2532,0.2522,0.0,0.0,0.0,0.0,0.0,0.0,0.0,-2.2821,-2.2882,-2.3704,-2.3033,-2.1949,-2.0578,-1.9898,0.0,0.0,0.0,0.0,0.0,0.0,0.0,0.0,0.0,0.0,0.0,0.0,0.0,-1.0448,-1.0254,0.0,0.0,0.0,0.0,0.0,-0.8431,-0.8329,-0.8594,-0.7669,-0.7495,0.0,0.0,-0.7196,0.0,0.0,0.0,0.0,0.0,0.0,0.0,0.0,-0.4316,-0.4049,-0.3527,-0.3262,-0.3148,-0.3056,-0.2973,-0.2912,-0.2909,-0.2948,-0.3012,-0.3034,-0.3059,-0.309,-0.3046,-0.308,0.0,-0.3232,-0.3354,-0.325,-0.2613,-0.2124,-0.1567,0.0,-0.0308,0.0,0.0028,0.0252,0.0393,0.0,0.0701,0.0,0.0,0.0,0.0,0.0,0.0,0.0,0.0911,0.1056,0.137,0.1878,0.1883,0.2103,0.2574,0.2512,0.238,0.2155,0.2183,0.2376,0.2708,0.2933,0.3325,0.3788,0.3741,0.0,0.0,0.3423,0.3239,0.2978,0.3236,0.3242,0.311,0.3227,0.3345,0.3387,0.0,0.0,0.0,0.0,0.0,0.0,0.0,-2.2211,-2.2336,-2.2841,-2.2833,-2.2435,-2.1625,-2.0646,0.0,0.0,0.0,0.0,0.0,0.0,0.0,0.0,0.0,0.0,0.0,0.0,0.0,-1.1902,-1.1534,0.0,0.0,0.0,0.0,0.0,0.0,-0.8594,-0.85,-0.8275,0.0,0.0,0.0,0.0,0.0,0.0,0.0,0.0,0.0,0.0,0.0,0.0,0.0,-0.4162,-0.3435,-0.3126,-0.3034,-0.3148,0.0,0.0,-0.297,-0.299,-0.3034,-0.3148,-0.2973,-0.2825,-0.3115,0.0,-0.3006,-0.3305,-0.3482,-0.3234,-0.2096,-0.1846,-0.1427,0.0,0.0,0.0056,0.0168,0.0308,0.0393,0.0393,0.0,0.0,0.0,0.0,0.0,0.0,0.0,0.0,0.1636,0.2018,0.2332,0.2515,0.2509,0.2506,0.2508,0.249,0.2324,0.2015,0.2571,0.2766,0.2708,0.3272,0.3635,0.3788,0.353,0.0,0.0,0.3459,0.3323,0.3221,0.3599,0.36,0.3371,0.3513,0.3498,0.34,0.0,0.0,0.0,0.0,0.0,0.0,0.0,-2.263,-2.27,-2.3476,-2.3305,-2.3036,-2.2873,-2.1783,0.0,0.0,0.0,0.0,0.0,0.0,0.0,0.0,0.0,0.0,0.0,0.0,0.0,-1.2095,-1.1811,0.0,0.0,0.0,0.0,0.0,0.0,-0.9875,-0.9962,0.0,0.0,0.0,0.0,0.0,0.0,0.0,0.0,0.0,0.0,0.0,0.0,0.0,0.0,0.0,-0.3979,-0.3565,0.0,0.0,-0.3015,-0.2993,-0.3081,-0.317,-0.3195,-0.2951,-0.3075,-0.3173,-0.296,0.0,-0.3341,-0.3392,-0.3498,-0.3444,-0.2965,-0.2293,-0.1651,0.0,0.0,0.0,0.0058,0.0294,0.0413,0.029,0.0,0.0,0.0,0.0,0.0,0.0,0.0,0.0,0.2789,0.2617,0.2703,0.3121,0.3192,0.3359,0.3713,0.3494,0.3327,0.3213,0.3272,0.3299,0.3244,0.3499,0.3638,0.3685,0.3562,0.0,0.0,0.3425,0.3321,0.3224,0.3372,0.3366,0.3292,0.3343,0.3364,0.34,0.0,0.0,0.0,0.0,0.0,0.0,-2.2975,-2.2678,-2.2668,-2.3353,-2.3075,-2.2884,-2.3023,-2.2233,-2.1129,-1.9702,0.0,0.0,0.0,0.0,0.0,0.0,0.0,0.0,0.0,0.0,0.0,-1.2401,-1.221,-1.212,0.0,0.0,-1.156,-1.142,0.0,0.0,0.0,0.0,0.0,0.0,0.0,0.0,0.0,0.0,0.0,0.0,0.0,0.0,0.0,0.0,0.0,0.0,0.0,0.0,0.0,0.0,-0.3066,-0.3123,-0.3278,-0.3405,-0.3451,-0.3152,-0.3269,-0.3372,0.0,0.0,-0.3411,-0.3447,-0.3523,-0.3555,-0.3357,-0.2488,-0.174,-0.1559,0.0,0.0,0.006,0.0304,0.0427,0.0,0.0,0.0,0.0,0.0,0.0,0.0,0.0,0.0,0.0,0.3372,0.3361,0.3791,0.3857,0.4018,0.4353,0.4104,0.3968,0.3885,0.3694,0.3613,0.3613,0.3613,0.3613,0.3608,0.0,0.0,0.0,0.3467,0.3405,0.3327,0.3327,0.3327,0.3327,0.3327,0.3381,0.3455,0.0,0.0,0.0,0.0,0.0,0.0,0.0,-2.2099,-2.1995,-2.1942,-2.1799,-2.1729,-2.1724,-2.171,-2.1425,-2.0733,0.0,0.0,0.0,0.0,0.0,0.0,0.0,0.0,0.0,0.0,0.0,-1.3089,-1.2943,-1.2843,-1.2785,-1.2174,-1.1854,-1.1774,0.0,0.0,0.0,0.0,0.0,0.0,0.0,0.0,0.0,0.0,0.0,0.0,0.0,0.0,0.0,0.0,0.0,0.0,0.0,-0.4286,-0.3806,-0.3324,-0.3251,-0.3351,-0.3535,-0.3692,-0.3835,-0.3963,-0.354,-0.322,0.0,0.0,-0.3028,-0.35,-0.361,-0.3413,-0.2822,-0.2207,-0.1612,-0.0993,-0.0412,0.0,0.0184,0.037,0.0,0.0,0.0,0.0,0.0,0.0,0.0,0.0,0.0,0.0,0.0,0.4382,0.4487,0.4487,0.4491,0.4325,0.3996,0.3996,0.3858,0.3613,0.3613,0.3613,0.3613,0.3613,0.3613,0.0,0.0,0.0,0.0,0.361,0.3608,0.3608,0.3608,0.3608,0.3608,0.3608,0.361,0.361,0.0,0.0,0.0,0.0,0.0,0.0,0.0,-2.1919,-2.173,-2.1932,-2.1608,-2.1444,-2.1689,-2.1695,-2.1605,-2.1395,0.0,0.0,0.0,0.0,0.0,0.0,0.0,0.0,0.0,0.0,0.0,-1.3107,-1.296,-1.2873,-1.2785,-1.2461,-1.2264,-1.2204,-1.1938,0.0,0.0,0.0,0.0,0.0,0.0,0.0,0.0,0.0,0.0,0.0,0.0,0.0,0.0,0.0,0.0,0.0,0.0,0.0,0.0,-0.4625,-0.3989,-0.3426,-0.3683,-0.3845,-0.387,-0.3596,-0.3561,-0.3531,-0.3361,-0.3355,-0.3427,-0.3574,-0.3613,-0.3555,-0.3357,-0.2488,-0.1726,-0.1548,-0.0659,0.0,0.0,0.0,0.0,0.0,0.0,0.0,0.0,0.0,0.0,0.0,0.0,0.0,0.0,0.4385,0.4491,0.4491,0.4356,0.4245,0.4138,0.3965,0.3827,0.3744,0.3638,0.3613,0.3613,0.3613,0.0,0.0,0.0,0.0,0.0,0.3613,0.3613,0.3613,0.3613,0.3613,0.3613,0.3613,0.3613,0.3613,0.0,0.0,0.0,0.0,0.0,0.0,0.0,-2.1827,-2.1516,-2.1582,-2.1139,-2.0953,-2.1285,-2.1321,-2.1321,-2.1321,0.0,0.0,0.0,0.0,0.0,0.0,0.0,0.0,0.0,0.0,-1.3514,-1.3442,-1.319,-1.3022,-1.2948,-1.2615,-1.2437,-1.2383,-1.224,0.0,0.0,0.0,0.0,0.0,0.0,0.0,-1.0273,0.0,0.0,0.0,0.0,0.0,0.0,0.0,0.0,0.0,0.0,0.0,0.0,0.0,-0.4762,-0.4184,-0.4274,-0.4389,-0.4363,-0.3874,-0.3805,0.0,0.0,-0.3526,-0.361,-0.3663,-0.3638,-0.361,-0.3666,-0.2657,-0.1789,-0.1813,-0.0791,0.0,0.0,0.0,0.0,0.0,0.0,0.0,0.0,0.0,0.0,0.0,0.0,0.0,0.0,0.4356,0.4411,0.4491,0.4384,0.4245,0.4138,0.3965,0.3827,0.3716,0.3638,0.3613,0.3613,0.3613,0.0,0.0,0.0,0.0,0.0,0.3613,0.3613,0.3613,0.3613,0.3613,0.3613,0.3613,0.3613,0.3613,0.0,0.0,0.0,0.0,0.0,0.0,0.0,0.0,0.0,0.0,-2.0481,-2.0312,-2.061,-2.0703,0.0,0.0,0.0,0.0,0.0,0.0,0.0,0.0,0.0,0.0,0.0,-1.4206,-1.4081,-1.4,-1.3559,-1.3319,-1.3212,-1.2703,-1.2478,-1.246,-1.2268,0.0,0.0,0.0,0.0,0.0,0.0,0.0,0.0,0.0,0.0,0.0,0.0,0.0,0.0,0.0,0.0,0.0,0.0,0.0,0.0,0.0,0.0,0.0,0.0,-0.5292,-0.5254,-0.4736,-0.4353,0.0,0.0,0.0,0.0,-0.3769,-0.3691,-0.3663,-0.3769,-0.2715,-0.1807,-0.18,-0.0772,0.0,0.0,0.0,0.0,0.0,0.0,0.0,0.0,0.0,0.0,0.0,0.0,0.0,0.0,0.4273,0.4273,0.4436,0.4463,0.4325,0.3996,0.3993,0.3858,0.3613,0.3613,0.3613,0.3613,0.3613,0.0,0.0,0.0,0.0,0.0,0.3613,0.3613,0.3613,0.3613,0.3613,0.3613,0.3613,0.3613,0.3613,0.0,0.0,0.0,0.0,0.0,0.0,0.0,0.0,0.0,0.0,0.0,-2.0146,-1.9954,-2.0842,0.0,0.0,0.0,0.0,0.0,0.0,0.0,0.0,0.0,0.0,0.0,-1.4634,-1.4176,-1.4,-1.3888,-1.3702,-1.3429,-1.3212,-1.3122,-1.3158,-1.3065,0.0,0.0,0.0,0.0,0.0,0.0,0.0,0.0,0.0,0.0,0.0,-1.0245,-0.97,0.0,0.0,0.0,0.0,0.0,0.0,0.0,0.0,-0.6876,-0.6702,-0.6396,0.0,-0.5959,-0.5828,-0.5332,-0.4811,0.0,0.0,0.0,0.0,0.0,-0.3771,-0.3796,-0.2709,-0.1796,-0.1806,-0.0786,0.0,0.0,0.0,0.0,0.0,0.0,0.0,0.0,0.0,0.0,0.0,0.0,0.0,0.0,0.4021,0.4021,0.3962,0.4076,0.4076,0.3996,0.391,0.3771,0.3613,0.3613,0.3613,0.3613,0.3613,0.0,0.0,0.0,0.0,0.3613,0.3613,0.3613,0.3613,0.3613,0.3613,0.3613,0.3613,0.3613,0.3613,0.0,0.0,0.0,0.0,0.0,0.0,0.0,0.0,0.0,0.0,0.0,0.0,0.0,0.0,0.0,0.0,0.0,0.0,0.0,0.0,0.0,0.0,0.0,0.0,0.0,-1.5856,-1.5505,-1.5327,-1.5155,-1.4881,-1.4546,-1.4267,-1.4093,-1.4047,-1.4213,0.0,0.0,0.0,0.0,0.0,-1.3766,0.0,0.0,0.0,0.0,0.0,-1.086,-1.0313,0.0,-0.8892,-0.8367,-0.7946,0.0,0.0,0.0,0.0,-0.6986,-0.7008,-0.6953,-0.6764,-0.6534,-0.6263,-0.5655,-0.5054,-0.4924,0.0,0.0,0.0,0.0,-0.3741,-0.3519,-0.2556,-0.1723,-0.144,-0.0601,0.0,0.0,0.0,0.0,0.0,0.0,0.0,0.0,0.0,0.0,0.0,0.0,0.0,0.0,0.391,0.391,0.3882,0.3965,0.3965,0.391,0.3824,0.3744,0.3613,0.3613,0.3613,0.3613,0.3613,0.3613,0.0,0.0,0.0,0.3613,0.3613,0.3613,0.3613,0.3613,0.3613,0.3613,0.3613,0.3613,0.3613,0.0,0.0,0.0,0.0,0.0,0.0,0.0,0.0,0.0,0.0,0.0,0.0,0.0,0.0,0.0,0.0,0.0,0.0,0.0,0.0,0.0,0.0,0.0,-1.794,-1.7374,-1.7207,-1.7047,-1.691,-1.6564,-1.6208,-1.5826,-1.5442,-1.5152,-1.4969,-1.5303,0.0,0.0,0.0,0.0,0.0,-1.4141,0.0,0.0,0.0,0.0,0.0,0.0,0.0,0.0,-0.9396,-0.8874,-0.8445,-0.7579,0.0,0.0,0.0,0.0,0.0,-0.7127,-0.7129,-0.6929,-0.6448,-0.5792,-0.5218,-0.4979,0.0,0.0,0.0,0.0,0.0,0.0,-0.2395,0.0,0.0,0.0,0.0,0.0,0.0,0.0,0.0,0.0,0.0,0.0,0.0,0.0,0.0,0.0,0.0,0.0,0.3852,0.3882,0.4132,0.4076,0.4021,0.3962,0.3935,0.3827,0.3694,0.3694,0.3666,0.3613,0.3613,0.3613,0.0,0.0,0.0,0.3613,0.3613,0.3613,0.3613,0.3613,0.3613,0.3613,0.3613,0.3613,0.3613,0.0,0.0,0.0,0.0,0.0,0.0,0.0,0.0,0.0,0.0,0.0,0.0,0.0,0.0,0.0,0.0,0.0,0.0,0.0,0.0,0.0,0.0,-1.8437,-1.8158,-1.8056,-1.7473,-1.7081,-1.691,-1.6826,-1.6547,-1.6046,-1.5991,-1.5836,-1.5653,-1.5602,-1.5582,0.0,0.0,0.0,0.0,0.0,0.0,0.0,0.0,0.0,0.0,0.0,0.0,0.0,-1.0364,-0.9738,-0.9334,-0.8852,0.0,0.0,0.0,0.0,0.0,-0.7127,-0.6978,-0.6785,-0.6929,-0.648,-0.585,-0.5218,0.0,0.0,0.0,0.0,0.0,0.0,-0.238,-0.1592,0.0,0.0,0.0,0.0,0.0,0.0,0.0,0.0,0.0,0.0,0.0,0.0,0.0,0.0,0.0,0.0,0.3827,0.3968,0.4736,0.4374,0.4346,0.4732,0.4515,0.4294,0.4098,0.4098,0.3935,0.3613,0.3613,0.3613,0.0,0.0,0.3613,0.3613,0.3613,0.3613,0.3613,0.3613,0.3613,0.3613,0.3613,0.3613,0.3613,0.0,0.0,0.0,0.0,0.0,0.0,0.0,0.0,0.0,0.0,0.0,0.0,0.0,0.0,0.0,0.0,0.0,0.0,0.0,0.0,0.0,0.0,-1.8691,-1.8566,-1.8636,-1.8328,-1.8101,-1.7927,-1.7927,-1.7688,-1.7232,-1.6969,-1.6745,-1.654,-1.6298,-1.6194,-1.6151,0.0,0.0,0.0,0.0,0.0,0.0,0.0,0.0,0.0,0.0,0.0,0.0,0.0,-1.0255,-0.9529,-0.9072,0.0,0.0,0.0,0.0,0.0,-0.7091,-0.7097,-0.6904,-0.6668,-0.6154,-0.5605,0.0,0.0,0.0,0.0,0.0,0.0,0.0,0.0,0.0,0.0,0.0,0.0,0.0,0.0,0.0,0.0,0.0,0.0,0.0,0.0,0.0,0.0,0.0,0.0,0.0,0.0,0.4211,0.4869,0.4704,0.4814,0.5262,0.5152,0.4928,0.4567,0.4315,0.4236,0.4298,0.3805,0.3719,0.391,0.0,0.3613,0.3613,0.3613,0.3613,0.3613,0.3613,0.3613,0.3613,0.3613,0.3613,0.3613,0.0,0.0,0.0,0.0,0.0,0.0,0.0,0.0,0.0,0.0,0.0,0.0,0.0,0.0,0.0,0.0,0.0,0.0,0.0,0.0,-1.8993,-1.896,-1.8851,-1.8831,-1.8941,-1.896,-1.8889,-1.8779,-1.8779,-1.8548,-1.8123,-1.7652,-1.7352,-1.7199,-1.685,-1.6689,-1.6659,-1.601,-1.568,0.0,0.0,0.0,0.0,0.0,0.0,0.0,0.0,0.0,0.0,0.0,0.0,0.0,0.0,0.0,0.0,-0.7293,-0.6802,-0.651,-0.7054,-0.7104,-0.6906,-0.6505,0.0,0.0,0.0,0.0,0.0,0.0,0.0,0.0,0.0,0.0,0.0,0.0,0.0,0.0,0.0,0.0,0.0,0.0,0.0,0.0,0.0,0.0,0.0,0.0,0.0,0.0,0.0,0.0,0.4622,0.5175,0.512,0.5285,0.5732,0.5732,0.5508,0.5066,0.4704,0.4649,0.4873,0.4215,0.4021,0.4177,0.3882,0.3694,0.3613,0.3613,0.3613,0.3613,0.3613,0.3613,0.3613,0.3613,0.3613,0.3613,0.0,0.0,0.0,0.0,0.0,0.0,0.0,0.0,0.0,0.0,0.0,0.0,0.0,0.0,0.0,0.0,0.0,0.0,0.0,0.0,-1.8941,-1.8822,-1.8736,-1.8736,-1.8803,-1.8803,-1.8779,-1.8711,-1.8711,-1.8439,-1.7902,-1.7427,-1.722,-1.7199,-1.685,-1.6689,-1.668,-1.6318,-1.5935,-1.5591,0.0,0.0,0.0,0.0,0.0,0.0,0.0,0.0,0.0,0.0,0.0,0.0,0.0,0.0,-0.8172,-0.777,-0.7048,-0.651,-0.7054,-0.6779,-0.6476,-0.6934,-0.6593,0.0,-0.4791,-0.4515,0.0,-0.4463,0.0,0.0,0.0,0.0,0.0,0.0,0.0,0.0,0.0,0.0,0.0,0.0,0.0,0.0,0.0,0.0,0.0,0.0,0.0,0.0,0.0,0.0,0.0,0.6091,0.5732,0.5732,0.615,0.615,0.5955,0.554,0.5508,0.5285,0.4897,0.4842,0.4594,0.4205,0.4177,0.3938,0.3613,0.3613,0.3613,0.3613,0.3613,0.3613,0.3613,0.3613,0.3613,0.3613,0.0,0.0,0.0,0.0,0.0,0.0,0.0,0.0,0.0,0.0,0.0,0.0,0.0,0.0,0.0,0.0,0.0,0.0,0.0,0.0,-1.8831,-1.8736,-1.862,-1.8595,-1.862,-1.8697,-1.8915,-1.9254,-1.8812,-1.842,-1.8083,-1.7909,-1.7767,-1.7625,-1.7235,-1.693,-1.6667,-1.625,-1.5824,-1.5413,-1.5334,0.0,0.0,0.0,0.0,0.0,0.0,0.0,0.0,0.0,-1.1854,-1.0891,-1.0533,-0.9619,-0.8625,-0.8386,-0.7643,-0.6981,-0.7346,-0.702,-0.6543,-0.654,-0.61,0.0,0.0,-0.4736,-0.4463,-0.4328,-0.3716,0.0,0.0,0.0,0.0,0.0,0.0,0.0,0.0,0.0,0.0,0.0,0.0,0.0,0.0,0.0,0.0,0.0,0.0,0.0,0.0,0.0,0.0,0.6178,0.6064,0.6037,0.6205,0.6205,0.6119,0.5982,0.5732,0.565,0.5704,0.5148,0.4814,0.4622,0.4315,0.3962,0.3613,0.3613,0.3613,0.3613,0.3613,0.3613,0.3613,0.3613,0.3613,0.3613,0.0,0.0,0.0,0.0,0.0,0.0,0.0,0.0,0.0,0.0,0.0,0.0,0.0,0.0,0.0,0.0,0.0,0.0,0.0,-1.8893,-1.8779,-1.8736,-1.8576,-1.8596,-1.8779,-1.8694,-1.8846,-1.925,-1.8675,-1.8341,-1.8202,-1.8143,-1.8023,-1.7882,-1.7618,-1.7338,-1.706,-1.6744,-1.6272,-1.5736,-1.5635,-1.5457,0.0,0.0,0.0,0.0,0.0,0.0,0.0,0.0,-1.2229,-1.1237,-1.1026,-1.0097,-0.9016,-0.8825,-0.8021,-0.7212,-0.7296,-0.7016,-0.6608,-0.6291,0.0,0.0,-0.5304,-0.4897,-0.4463,-0.4328,-0.3519,0.0,0.0,0.0,0.0,0.0,0.0,0.0,0.0,0.0,0.0,0.0,0.0,0.0,0.0,0.0,0.0,0.0,0.0,0.0,0.0,0.0,0.0,0.0,0.6205,0.6205,0.6205,0.6205,0.6205,0.6205,0.5927,0.5927,0.6178,0.5595,0.523,0.5093,0.4787,0.4322,0.3802,0.3802,0.3719,0.3613,0.3613,0.3613,0.3613,0.3613,0.3527,0.3471,0.0,0.0,0.0,0.0,0.0,0.0,0.0,0.0,0.0,0.0,0.0,0.0,0.0,0.0,0.0,0.0,0.0,0.0,0.0,-1.8898,-1.8803,-1.8803,-1.86,-1.8779,-1.9376,-1.8807,-1.8498,-1.8498,-1.8301,-1.8202,-1.8183,-1.8003,-1.7902,-1.7902,-1.7902,-1.7902,-1.7902,-1.7882,-1.7427,-1.6689,-1.6701,-1.6207,-1.5491,0.0,0.0,0.0,0.0,0.0,0.0,0.0,-1.2442,-1.1632,-1.1226,-1.0318,-0.9341,-0.901,-0.8099,-0.7146,-0.6802,-0.6715,-0.6613,0.0,0.0,0.0,-0.5277,-0.4873,-0.4491,-0.446,0.0,-0.1786,-0.0448,0.0,0.0,0.0,0.0,0.0,0.0,0.0,0.0,0.0,0.0,0.0,0.0,0.0,0.0,0.0,0.0,0.0,0.0,0.0,0.0,0.0,0.6205,0.6205,0.6205,0.6205,0.6205,0.6205,0.6205,0.6205,0.6205,0.6205,0.5982,0.5595,0.5595,0.5066,0.4205,0.4205,0.3962,0.3613,0.3613,0.3613,0.3613,0.3613,0.3385,0.316,0.0,0.0,0.0,0.0,0.0,0.0,0.0,0.0,0.0,0.0,0.0,0.0,0.0,0.0,0.0,0.0,0.0,0.0,0.0,-1.8979,-1.8884,-1.8736,-1.8673,-1.868,-1.8764,-1.8596,-1.8498,-1.8498,-1.8439,-1.8248,-1.7922,-1.8208,-1.8149,-1.7835,-1.7835,-1.7835,-1.7781,-1.7055,-1.6646,-1.6389,-1.5998,-1.5702,-1.5491,0.0,0.0,0.0,0.0,0.0,0.0,0.0,0.0,0.0,-1.1297,-1.0589,-0.9827,-0.9163,-0.8454,-0.7757,-0.7146,-0.6685,0.0,-0.5701,0.0,0.0,0.0,-0.3984,0.0,0.0,-0.1983,-0.1276,-0.038,0.0,0.0,0.0,0.0,0.0,0.0,0.0,0.0,0.0,0.0,0.0,0.0,0.0,0.0,0.0,0.0,0.0,0.0,0.0,0.0,0.0,0.6205,0.6205,0.6205,0.6205,0.6205,0.6205,0.6205,0.6205,0.6205,0.6205,0.5982,0.5595,0.5595,0.5066,0.4177,0.3882,0.3719,0.3613,0.3613,0.3613,0.3613,0.3613,0.3385,0.3102,0.0,0.0,0.0,0.0,0.0,0.0,0.0,0.0,0.0,0.0,-1.9748,-1.9302,0.0,0.0,0.0,0.0,0.0,0.0,0.0,0.0,-1.8936,-1.8755,-1.8711,-1.8634,-1.8498,-1.8498,-1.8498,-1.8498,-1.8498,-1.8366,-1.8075,-1.8175,-1.8075,-1.7787,-1.7787,-1.7787,-1.7767,-1.7346,-1.6972,-1.6625,-1.6315,-1.5944,-1.5625,0.0,0.0,0.0,0.0,0.0,0.0,0.0,0.0,0.0,-1.1368,-1.0694,-0.9961,-0.9059,-0.8309,-0.7568,-0.6734,-0.6186,0.0,-0.5117,-0.4288,-0.3486,-0.2986,0.0,0.0,0.0,0.0,0.0,0.0,0.0,0.0,0.0,0.0,0.0,0.0,0.0,0.0,0.0,0.0,0.0,0.0,0.0,0.0,0.0,0.0,0.0,0.0,0.0,0.0,0.0,0.6205,0.6205,0.6205,0.6205,0.6205,0.6205,0.6205,0.6205,0.6205,0.6205,0.6064,0.5841,0.5677,0.5175,0.4457,0.4021,0.3747,0.3613,0.3613,0.3613,0.3583,0.3441,0.3218,0.2938,0.0,0.0,0.0,0.0,0.0,0.0,0.0,0.0,0.0,0.0,-1.999,-1.9305,0.0,0.0,0.0,0.0,0.0,0.0,0.0,0.0,-1.896,-1.8822,-1.8736,-1.8634,-1.8517,-1.8459,-1.8439,-1.8439,-1.8439,-1.842,-1.838,-1.7942,-1.7727,-1.7686,-1.774,-1.7767,-1.7841,-1.8228,-1.7915,-1.7199,-1.7157,-1.6595,-1.5792,-1.5738,0.0,0.0,0.0,0.0,0.0,0.0,0.0,0.0,-1.1393,-1.0668,-0.9825,-0.8797,-0.7839,-0.6918,-0.5918,0.0,0.0,-0.4543,-0.3932,0.0,-0.1986,-0.2147,-0.2342,-0.1603,0.0,0.0,0.0,0.0,0.0,0.0,0.0,0.0,0.0,0.0,0.0,0.0,0.0,0.0,0.0,0.0,0.0,0.0,0.0,0.0,0.0,0.0,0.0,0.6178,0.6205,0.6205,0.6205,0.6205,0.6205,0.0,0.6205,0.6205,0.6205,0.6205,0.6205,0.6178,0.5786,0.5371,0.4928,0.4398,0.399,0.3638,0.3613,0.3613,0.3555,0.3216,0.2938,0.2691,0.0,0.0,0.0,0.0,0.0,0.0,0.0,0.0,0.0,0.0,0.0,0.0,0.0,0.0,0.0,0.0,0.0,0.0,0.0,0.0,-1.904,-1.896,-1.8788,-1.8692,-1.8653,-1.8195,-1.7942,-1.7942,-1.7942,-1.7781,-1.7488,-1.7385,-1.7123,-1.6808,-1.7165,-1.7496,-1.7801,-1.7557,-1.7365,-1.7178,-1.6799,-1.6306,-1.5792,-1.577,-1.576,0.0,0.0,0.0,0.0,0.0,0.0,0.0,-1.0914,-1.0466,-1.0056,-0.8804,-0.7951,-0.723,-0.6317,-0.5355,0.0,0.0,-0.2986,-0.1986,-0.126,-0.1208,-0.1235,0.0,0.0,0.0,0.0,0.0,0.0,0.0,0.0,0.0,0.0,0.0,0.0,0.0,0.0,0.0,0.0,0.0,0.0,0.0,0.0,0.0,0.0,0.0,0.0,0.6205,0.6205,0.6205,0.6205,0.6205,0.6205,0.0,0.6205,0.6205,0.6205,0.6205,0.6205,0.6178,0.5786,0.554,0.5371,0.4539,0.4153,0.4042,0.3719,0.3613,0.3555,0.3216,0.2938,0.2663,0.0,0.0,0.0,0.0,0.0,0.0,0.0,0.0,0.0,0.0,0.0,0.0,0.0,0.0,0.0,0.0,0.0,0.0,0.0,0.0,0.0,0.0,-1.8846,-1.8659,-1.8459,-1.8135,-1.7882,-1.7659,-1.74,-1.7248,-1.7199,-1.6968,-1.6723,-1.6522,-1.6757,-1.6976,-1.7186,-1.7186,-1.7073,-1.6842,-1.6607,-1.6219,-1.5792,-1.5792,-1.577,-1.5726,-1.5637,0.0,0.0,0.0,0.0,0.0,0.0,0.0,-1.0005,-0.8587,-0.7637,-0.6907,-0.6204,0.0,0.0,-0.3403,0.0,-0.1651,-0.1037,-0.0862,-0.0804,0.0,0.0,0.0,0.0,0.0,0.0,0.0,0.0,0.0,0.0,0.0,0.0,0.0,0.0,0.0,0.0,0.0,0.0,0.0,0.0,0.0,0.0,0.5955,0.6119,0.6119,0.6173,0.6205,0.6205,0.6205,0.6205,0.6205,0.6205,0.6205,0.6205,0.6205,0.6205,0.6178,0.5982,0.5786,0.5567,0.5066,0.4594,0.4177,0.3827,0.3552,0.3302,0.2854,0.2575,0.241,0.0,0.0,0.0,0.0,0.0,0.0,0.0,0.0,0.0,0.0,0.0,0.0,0.0,0.0,0.0,0.0,0.0,0.0,0.0,0.0,0.0,0.0,-1.8908,-1.8644,-1.8228,-1.8129,-1.7855,-1.7393,-1.6837,0.0,0.0,-1.6565,-1.6392,-1.6392,-1.6457,-1.65,-1.6543,-1.701,-1.6926,-1.65,-1.65,-1.6219,-1.5792,-1.5792,-1.5792,-1.5792,-1.5715,-1.496,-1.3967,-1.3849,0.0,0.0,0.0,0.0,-0.9953,-0.858,-0.7498,-0.6669,-0.6073,0.0,-0.4073,-0.2847,-0.2097,0.0,-0.1009,-0.0797,-0.0605,0.0,0.0,0.0,0.0,0.0,0.0,0.0,0.0,0.0,0.0,0.0,0.0,0.0,0.0,0.0,0.0,0.0,0.0,0.0,0.0,0.0,0.569,0.5819,0.5873,0.59,0.6044,0.6122,0.6122,0.6159,0.6178,0.6173,0.6173,0.615,0.6123,0.6123,0.615,0.6205,0.6205,0.6009,0.5704,0.5595,0.5093,0.437,0.4042,0.363,0.313,0.2685,0.2434,0.2324,0.0,0.0,0.0,0.0,0.0,0.0,0.0,0.0,0.0,0.0,-2.095,-2.0422,0.0,0.0,0.0,0.0,0.0,0.0,0.0,0.0,0.0,0.0,-1.9017,-1.8755,-1.8299,-1.7841,-1.7385,-1.6981,0.0,0.0,0.0,0.0,0.0,-1.5925,0.0,-1.65,-1.6543,-1.701,-1.6926,-1.65,-1.65,-1.6219,-1.5792,-1.5792,-1.5792,-1.5792,-1.5715,-1.496,-1.3967,-1.3849,-1.304,0.0,0.0,0.0,-1.0218,-0.9432,-0.8408,-0.7369,0.0,0.0,-0.2792,0.0,-0.1456,-0.1009,0.0,0.0,0.0,0.0,0.0,0.0,0.0,0.0,0.0,0.0,0.0,0.0,0.0,0.0,0.0,0.0,0.0,0.0,0.0,0.0,0.0,0.0,0.0,0.0,0.5356,0.5376,0.5426,0.548,0.5658,0.578,0.578,0.6062,0.6146,0.6032,0.6032,0.5978,0.585,0.585,0.5987,0.6205,0.6205,0.6178,0.6091,0.5559,0.5281,0.5113,0.4598,0.4042,0.3544,0.3713,0.3436,0.2935,0.0,0.0,0.0,0.0,0.0,0.0,0.0,0.0,0.0,0.0,0.0,-2.0604,0.0,0.0,0.0,0.0,0.0,0.0,0.0,0.0,0.0,0.0,0.0,-1.8855,-1.8422,-1.7908,-1.7475,-1.7086,0.0,0.0,0.0,-1.61,-1.5947,0.0,0.0,0.0,0.0,-1.6328,-1.6306,-1.611,-1.611,-1.5979,-1.5792,0.0,0.0,0.0,0.0,0.0,-1.4467,-1.4131,-1.3375,-1.2467,-1.1669,0.0,0.0,0.0,-0.8692,-0.7551,-0.6394,-0.447,-0.2738,0.0,-0.1595,-0.0842,-0.0561,0.0,0.0,0.0,0.0,0.0,0.0,0.0,0.0,0.0,0.0,0.0,0.0,0.0,0.0,0.0,0.0,0.0,0.0,0.0,0.0,0.0,0.0,0.4931,0.5026,0.5079,0.5157,0.5182,0.5365,0.5485,0.5485,0.5684,0.5842,0.59,0.59,0.5845,0.5795,0.5795,0.5877,0.5987,0.5987,0.5987,0.5959,0.5677,0.5426,0.5148,0.4759,0.4098,0.3325,0.3294,0.288,0.2354,0.0,0.0,0.0,0.0,0.0,0.0,0.0,0.0,0.0,0.0,0.0,0.0,0.0,0.0,0.0,0.0,0.0,0.0,0.0,0.0,0.0,0.0,0.0,0.0,-1.85,-1.8028,-1.7598,0.0,0.0,0.0,-1.6392,-1.6253,-1.6078,0.0,-1.5903,-1.5881,0.0,0.0,-1.5836,-1.5792,-1.5792,-1.5792,0.0,0.0,0.0,0.0,0.0,0.0,0.0,0.0,0.0,-1.2846,-1.1993,-1.1099,0.0,0.0,0.0,0.0,0.0,0.0,-0.2877,-0.2764,-0.1734,-0.0617,0.0,0.0,0.0,0.0,0.0,0.0,0.0,0.0,0.0,0.0,0.0,0.0,0.0,0.0,0.0,0.0,0.0,0.0,0.0,0.0,0.0,0.0,0.0,0.467,0.467,0.477,0.4842,0.487,0.5077,0.5176,0.5152,0.5348,0.5518,0.5671,0.5714,0.5713,0.5686,0.5686,0.5686,0.5686,0.5768,0.5795,0.5795,0.5768,0.5544,0.5207,0.4952,0.4177,0.3211,0.3183,0.2683,0.2018,0.0,0.0,0.0,0.0,0.0,0.0,0.0,0.0,0.0,0.0,0.0,0.0,0.0,0.0,-1.9101,-1.9101,0.0,0.0,0.0,0.0,0.0,0.0,0.0,0.0,0.0,-1.8028,-1.7598,0.0,0.0,0.0,-1.6392,-1.6253,-1.62,-1.6178,-1.6178,-1.6122,-1.5988,0.0,0.0,0.0,0.0,0.0,0.0,0.0,0.0,0.0,0.0,0.0,0.0,0.0,0.0,0.0,0.0,0.0,0.0,0.0,0.0,0.0,0.0,-0.4909,0.0,-0.2877,-0.1566,0.0,0.0,0.0,0.0,0.0,0.0,0.0,0.0,0.0,0.0,0.0,0.0,0.0,0.0,0.0,0.0,0.0,0.0,0.0,0.0,0.0,0.0,0.0,0.0,0.4322,0.4322,0.4322,0.4393,0.4529,0.4723,0.4785,0.4735,0.5111,0.5305,0.534,0.5514,0.5513,0.5325,0.5325,0.5325,0.5352,0.5658,0.5795,0.5795,0.565,0.5595,0.5567,0.5352,0.457,0.3655,0.4211,0.3655,0.2653,0.0,0.0,0.0,0.0,0.0,0.0,0.0,0.0,0.0,0.0,0.0,0.0,0.0,-1.9265,-1.9176,-1.9101,-1.9101,0.0,0.0,0.0,0.0,0.0,0.0,0.0,0.0,-1.8167,0.0,0.0,0.0,-1.6457,-1.6457,-1.6414,-1.6392,-1.6392,-1.6253,-1.6166,-1.6122,-1.6044,0.0,0.0,0.0,0.0,0.0,0.0,0.0,0.0,0.0,0.0,0.0,0.0,0.0,0.0,0.0,0.0,0.0,0.0,0.0,0.0,0.0,0.0,0.0,-0.3044,-0.19,-0.0728,0.0,0.0,0.0,0.0,0.0,0.0,0.0,0.0,0.0,0.0,0.0,0.0,0.0,0.0,0.0,0.0,0.0,0.0,0.0,0.0,0.0,0.0,0.0,0.0,0.4294,0.4294,0.432,0.4364,0.4448,0.4517,0.4563,0.4722,0.4907,0.5162,0.5251,0.5292,0.5297,0.5297,0.5297,0.5301,0.5434,0.5489,0.5462,0.5434,0.5407,0.5407,0.5325,0.4853,0.4156,0.3987,0.3403,0.2653,0.0,0.0,0.0,0.0,0.0,0.0,0.0,0.0,0.0,0.0,0.0,0.0,0.0,0.0,-1.9195,-1.9101,-1.9101,-1.9101,-1.9101,-1.9101,0.0,0.0,0.0,0.0,0.0,-1.8187,0.0,0.0,0.0,0.0,0.0,-1.65,-1.65,-1.65,-1.6362,-1.6297,0.0,0.0,0.0,-1.5988,0.0,0.0,-1.5792,0.0,0.0,0.0,0.0,0.0,0.0,0.0,0.0,0.0,0.0,0.0,0.0,0.0,0.0,0.0,-0.6563,0.0,0.0,0.0,0.0,-0.1099,0.0,0.0,0.0,0.0,0.0,0.0,0.0,0.0,0.0,0.0,0.0,0.0,0.0,0.0,0.0,0.0,0.0,0.0,0.0,0.0,0.0,0.0,0.0,0.0,0.4294,0.4294,0.4294,0.4294,0.4294,0.4333,0.4432,0.4469,0.4642,0.4905,0.5023,0.5145,0.5236,0.5273,0.5297,0.5297,0.5297,0.5297,0.5297,0.5297,0.5297,0.5297,0.5297,0.4849,0.4184,0.3987,0.3267,0.2378,0.0,0.0,0.0,0.0,0.0,0.0,0.0,0.0,0.0,0.0,0.0,0.0,0.0,0.0,0.0,-1.9101,-1.9101,-1.9101,-1.9101,-1.9101,0.0,0.0,0.0,0.0,0.0,-1.8048,-1.7618,-1.722,-1.6735,0.0,0.0,0.0,-1.65,-1.65,-1.65,-1.6457,-1.6392,0.0,-1.6262,-1.601,0.0,-1.5913,-1.5814,0.0,0.0,0.0,-1.5792,-1.5792,0.0,-1.5266,0.0,0.0,0.0,0.0,0.0,0.0,0.0,0.0,0.0,0.0,0.0,0.0,0.0,0.0,-0.0345,0.0,0.0,0.0,0.0,0.0,0.0,0.0,0.0,0.0,0.0,0.0,0.0,0.0,0.0,0.0,0.0,0.0,0.0,0.0,0.0,0.0,0.0,0.4294,0.4294,0.4294,0.4294,0.4294,0.4294,0.4294,0.4294,0.4428,0.4493,0.4505,0.4905,0.5102,0.5114,0.5244,0.5297,0.5297,0.5297,0.5297,0.5297,0.5297,0.5297,0.5297,0.5297,0.4629,0.371,0.4294,0.338,0.1936,0.0,0.0,0.0,0.0,0.0,0.0,0.0,0.0,0.0,0.0,0.0,0.0,0.0,0.0,-1.9265,-1.9321,-1.9176,-1.9101,-1.9101,-1.9101,-1.9101,-1.9101,-1.9101,0.0,0.0,-1.8187,-1.776,-1.7639,-1.6871,-1.65,-1.65,0.0,0.0,0.0,-1.65,-1.65,-1.6479,-1.6414,0.0,-1.6262,-1.6088,-1.5979,0.0,0.0,0.0,0.0,0.0,-1.5792,-1.5726,0.0,-1.4994,-1.4686,0.0,0.0,0.0,0.0,0.0,0.0,-0.6777,0.0,0.0,0.0,0.0,0.0,-0.1225,-0.0546,0.0096,0.0,0.0,0.0,0.0,0.0,0.0,0.0,0.0,0.0,0.0,0.0,0.0,0.0,0.0,0.0,0.0,0.0,0.0,0.0,0.4294,0.4294,0.4294,0.4294,0.4294,0.4294,0.4294,0.4294,0.4294,0.4347,0.4395,0.4501,0.4747,0.495,0.5114,0.5244,0.5297,0.5297,0.5297,0.5297,0.5297,0.5297,0.5297,0.5297,0.5297,0.5101,0.4794,0.4574,0.3907,0.3072,0.0,0.0,0.0,0.0,0.0,0.0,0.0,0.0,0.0,0.0,0.0,0.0,0.0,0.0,0.0,-1.9395,-1.9265,-1.9176,-1.9176,-1.912,-1.9101,-1.9101,-1.9101,-1.8917,-1.8572,-1.8048,-1.7625,-1.7256,-1.6744,-1.65,-1.65,-1.65,0.0,0.0,0.0,0.0,0.0,0.0,0.0,0.0,-1.6175,0.0,0.0,-1.5859,-1.5792,0.0,0.0,0.0,-1.577,-1.5468,-1.5096,0.0,0.0,0.0,0.0,0.0,0.0,0.0,0.0,0.0,0.0,0.0,0.0,0.0,-0.184,-0.1279,-0.0686,0.0,0.0,0.0,0.0,0.0,0.0,0.0,0.0,0.0,0.0,0.0,0.0,0.0,0.0,0.0,0.0,0.0,0.0,0.4294,0.4294,0.4294,0.4294,0.4294,0.4294,0.4294,0.4294,0.4294,0.4294,0.4294,0.4347,0.4412,0.4686,0.4861,0.4974,0.5207,0.5297,0.5297,0.5297,0.5297,0.5297,0.5297,0.5297,0.5297,0.5297,0.516,0.4936,0.4601,0.3959,0.3181,0.0,0.0,0.0,0.0,0.0,0.0,0.0,0.0,0.0,0.0,0.0,0.0,0.0,0.0,0.0,0.0,-1.9358,-1.9321,-1.9321,-1.9195,0.0,0.0,-1.912,-1.8745,-1.7928,-1.7868,-1.7441,-1.6595,-1.6543,-1.6522,-1.6522,-1.65,0.0,0.0,0.0,0.0,0.0,0.0,0.0,-1.6328,-1.6253,-1.6166,0.0,0.0,-1.5814,-1.5814,-1.5814,-1.5792,-1.5792,-1.5792,-1.5096,0.0,0.0,0.0,0.0,0.0,-0.9721,0.0,0.0,0.0,0.0,0.0,0.0,0.0,-0.2332,-0.2027,-0.1563,-0.009,0.0,0.0,0.0,0.0,0.0,0.0,0.0,0.0,0.0,0.0,0.0,0.0,0.0,0.0,0.4294,0.4294,0.4294,0.4294,0.4294,0.4294,0.4294,0.4294,0.4294,0.4294,0.4294,0.4294,0.4294,0.4294,0.4294,0.4298,0.4613,0.4784,0.4816,0.5139,0.5281,0.5297,0.5297,0.5297,0.5297,0.5297,0.5297,0.5297,0.5297,0.4963,0.4491,0.4491,0.3735,0.2708,0.0,0.0,0.0,0.0,0.0,0.0,0.0,0.0,0.0,0.0,0.0,0.0,0.0,0.0,0.0,0.0,-1.9465,-1.9376,-1.9376,-1.9358,-1.9339,-1.9339,-1.9339,-1.9101,-1.863,-1.8238,-1.7801,-1.731,-1.6876,-1.6654,-1.6654,-1.6543,0.0,0.0,0.0,0.0,0.0,0.0,0.0,-1.5932,-1.6241,0.0,-1.6306,-1.6044,-1.5957,-1.5957,-1.5836,-1.5792,-1.5792,-1.5792,-1.488,-1.3737,0.0,0.0,0.0,0.0,0.0,0.0,0.0,0.0,0.0,0.0,0.0,0.0,-0.3158,-0.2738,-0.2236,0.0,0.0,0.0,0.0,0.0,0.0,0.0,0.0,0.0,0.0,0.0,0.0,0.0,0.0,0.0,0.4294,0.4294,0.4294,0.4294,0.4294,0.4294,0.4294,0.4294,0.4294,0.4294,0.4294,0.4294,0.4294,0.4294,0.4294,0.4298,0.4468,0.4646,0.4812,0.5035,0.5187,0.5297,0.5297,0.5297,0.5297,0.5297,0.5297,0.5297,0.5297,0.4963,0.4491,0.4491,0.3735,0.2708,0.0,0.0,0.0,0.0,0.0,0.0,0.0,0.0,0.0,0.0,0.0,0.0,0.0,0.0,0.0,0.0,0.0,0.0,0.0,0.0,0.0,-1.9395,-1.9195,-1.8898,-1.8467,-1.802,-1.7592,-1.7199,-1.6918,-1.6803,-1.6803,-1.6663,0.0,0.0,0.0,0.0,0.0,0.0,-1.6151,-1.6151,-1.6328,0.0,-1.6022,-1.6066,-1.61,-1.6066,-1.5957,-1.5859,-1.5792,-1.5792,-1.498,0.0,0.0,-1.2711,-1.1413,0.0,-1.0051,-0.939,0.0,0.0,0.0,-0.6343,0.0,0.0,0.0,-0.3476,-0.2901,-0.1854,-0.1587,0.0,0.0,0.0,0.0,0.0,0.0,0.0,0.0,0.0,0.0,0.0,0.0,0.0,0.4294,0.4294,0.4294,0.4294,0.4294,0.4294,0.4294,0.4294,0.4294,0.4294,0.4294,0.4294,0.4294,0.4294,0.4294,0.4298,0.4436,0.4614,0.4812,0.4995,0.5182,0.5297,0.5022,0.4908,0.4881,0.4574,0.446,0.4491,0.4794,0.4739,0.4436,0.3821,0.3209,0.2653,-2.0083,0.0,0.0,0.0,0.0,0.0,0.0,0.0,0.0,0.0,0.0,0.0,0.0,0.0,0.0,0.0,0.0,0.0,0.0,0.0,0.0,0.0,-1.8917,-1.8505,-1.8046,-1.7713,-1.7352,-1.696,-1.6918,-1.6918,-1.6918,-1.6803,0.0,0.0,0.0,0.0,0.0,0.0,0.0,-1.6098,0.0,-1.5988,-1.5812,-1.6122,-1.6231,-1.621,-1.6066,-1.5869,-1.5702,-1.565,-1.498,-1.4078,-1.3585,-1.2551,0.0,0.0,0.0,0.0,0.0,0.0,0.0,0.0,0.0,-0.5226,0.0,0.0,0.0,-0.2563,-0.2208,0.0,0.0,0.0,0.0,0.0,0.0,0.0,0.0,0.0,0.0,0.0,0.0,0.0,0.0,0.4254,0.4276,0.4294,0.4276,0.4276,0.4294,0.4294,0.4294,0.4294,0.4294,0.4294,0.4294,0.4294,0.4294,0.4298,0.4399,0.4581,0.4808,0.4958,0.5092,0.5132,0.4684,0.4436,0.4294,0.3793,0.3597,0.3652,0.4128,0.4267,0.4042,0.307,0.2627,0.246,-2.0065,-1.98,0.0,0.0,0.0,0.0,0.0,0.0,0.0,0.0,0.0,0.0,0.0,0.0,0.0,0.0,0.0,0.0,-1.863,0.0,0.0,0.0,0.0,0.0,-1.7848,-1.7787,-1.7578,-1.7178,-1.7065,-1.6981,-1.6981,-1.6897,0.0,0.0,-1.6032,0.0,0.0,0.0,-1.496,0.0,-1.5074,-1.5702,0.0,-1.6371,-1.6371,-1.6328,-1.6076,-1.5724,-1.5342,0.0,-1.4461,-1.3532,0.0,-1.2017,-1.1347,0.0,0.0,0.0,0.0,0.0,0.0,0.0,-0.686,0.0,0.0,0.0,-0.419,-0.3774,0.0,0.0,0.0,0.0,0.0,0.0,0.0,0.0,0.0,0.0,0.0,0.0,0.0,0.0,0.0,0.413,0.417,0.4294,0.4192,0.417,0.4294,0.4294,0.4294,0.4294,0.4294,0.4294,0.4294,0.4294,0.4294,0.4294,0.4318,0.4479,0.4804,0.4824,0.4739,0.4574,0.4519,0.4211,0.371,0.3627,0.3597,0.3599,0.3683,0.3375,0.2875,0.2764,0.235,0.188,-2.0061,-1.9657,0.0,0.0,0.0,0.0,0.0,0.0,0.0,0.0,0.0,0.0,0.0,0.0,0.0,0.0,0.0,-1.85,0.0,0.0,0.0,0.0,0.0,0.0,0.0,-1.7578,-1.7372,-1.7199,-1.7136,-1.7115,-1.7115,-1.7002,0.0,0.0,-1.5966,0.0,-1.4858,0.0,-1.4743,0.0,0.0,0.0,0.0,-1.5669,-1.5591,-1.5512,-1.54,-1.5198,-1.488,0.0,-1.4058,0.0,0.0,0.0,0.0,0.0,0.0,0.0,0.0,0.0,0.0,0.0,0.0,0.0,-0.6209,0.0,-0.5048,0.0,0.0,0.0,0.0,0.0,0.0,0.0,-0.0693,0.0,0.0,0.0,0.0,0.0,0.0,0.0,0.0,0.0,0.0,0.0,0.417,0.4148,0.4294,0.4294,0.4294,0.4294,0.4294,0.4294,0.4294,0.4294,0.4294,0.4298,0.4382,0.4377,0.4289,0.4404,0.4279,0.3959,0.3599,0.332,0.3042,0.2713,0.2547,0.2547,0.2547,0.2627,0.2653,0.2296,0.2018,0.1797,-2.0266,0.0,0.0,0.0,0.0,0.0,0.0,0.0,0.0,0.0,0.0,0.0,-1.9243,-1.9051,0.0,0.0,-1.8224,-1.8127,0.0,0.0,-1.8127,0.0,0.0,0.0,0.0,0.0,-1.7199,-1.7199,-1.7199,-1.7199,-1.7199,-1.701,-1.6531,0.0,0.0,-1.5266,-1.449,0.0,-1.4373,-1.4663,-1.4326,-1.4385,-1.4709,-1.4994,-1.5028,-1.4949,-1.4903,-1.4755,-1.4482,-1.3915,-1.3575,0.0,-1.1901,0.0,0.0,0.0,0.0,0.0,-0.9893,0.0,0.0,0.0,0.0,0.0,0.0,0.0,0.0,0.0,0.0,0.0,0.0,0.0,0.0,0.0,0.0,-0.0782,0.0,0.0,0.0,0.0,0.0,0.0,0.0,0.0,0.0,0.4027,0.3924,0.3994,0.4294,0.4294,0.4294,0.4294,0.4294,0.4294,0.4294,0.4294,0.4228,0.4118,0.4226,0.4089,0.3723,0.3884,0.3726,0.332,0.2903,0.2597,0.2434,0.1992,0.1797,0.1797,0.1797,0.2074,0.2406,0.1964,0.1797,0.1797,-2.0785,-2.0765,0.0,0.0,0.0,0.0,0.0,0.0,0.0,0.0,0.0,0.0,0.0,0.0,0.0,0.0,0.0,-1.724,-1.724,0.0,-1.724,0.0,0.0,-1.722,0.0,0.0,0.0,0.0,-1.7199,-1.7199,-1.7199,-1.6871,-1.6389,0.0,-1.5186,-1.4593,-1.402,-1.3739,-1.3634,-1.3644,-1.3634,-1.3634,-1.3752,0.0,-1.5108,-1.5085,-1.496,0.0,0.0,-1.3515,-1.2962,0.0,0.0,0.0,0.0,0.0,0.0,0.0,0.0,0.0,0.0,-0.9559,0.0,0.0,0.0,0.0,-0.6619,0.0,0.0,0.0,0.0,0.0,0.0,0.0,0.0,0.0,0.0,0.0,0.0,0.0,0.0,0.0,0.0,0.0,0.0,0.3382,0.33,0.3546,0.4254,0.4294,0.4294,0.4294,0.4294,0.4294,0.4294,0.4294,0.4074,0.3631,0.3694,0.3555,0.3224,0.3291,0.3111,0.2736,0.2708,0.2378,0.1825,0.1797,0.1797,0.1797,0.1797,0.1825,0.1825,0.1797,0.1797,0.1797,0.0,0.0,0.0,0.0,0.0,0.0,0.0,-2.0241,0.0,0.0,0.0,0.0,0.0,-1.9342,-1.9068,0.0,0.0,-1.8336,-1.8336,-1.8336,0.0,0.0,0.0,-1.7604,0.0,0.0,0.0,0.0,0.0,0.0,-1.6871,-1.6765,-1.6324,0.0,0.0,-1.4823,0.0,0.0,0.0,0.0,0.0,-1.3597,-1.3644,0.0,0.0,-1.4106,-1.4059,-1.374,0.0,-1.2689,-1.2351,-1.1999,-1.0929,-1.0791,-1.0905,-1.0448,-1.0303,0.0,0.0,0.0,-0.9599,-0.9599,0.0,0.0,0.0,0.0,0.0,0.0,0.0,0.0,0.0,0.0,0.0,0.0,0.0,0.0,0.0,0.0,0.0,0.0,0.0,0.0,0.0,0.0,0.0,0.2893,0.2812,0.2926,0.3341,0.3363,0.3363,0.3363,0.3363,0.3363,0.3363,0.3363,0.3296,0.3145,0.3295,0.3104,0.2622,0.281,0.2601,0.2102,0.2102,0.1992,0.1797,0.1797,0.1797,0.1797,0.1797,0.1797,0.1797,0.1797,0.1797,0.1797,-2.224,0.0,0.0,0.0,0.0,0.0,0.0,0.0,0.0,0.0,-2.0699,0.0,-2.0164,0.0,-1.9643,0.0,-1.9028,-1.8911,-1.8911,-1.8911,0.0,-1.8401,-1.8388,0.0,0.0,0.0,0.0,0.0,0.0,-1.6913,-1.6689,-1.6432,-1.6064,0.0,0.0,-1.4823,-1.4373,-1.4104,-1.3844,0.0,0.0,-1.3454,0.0,0.0,-1.3491,-1.3597,0.0,-1.3297,-1.2832,-1.2345,-1.2027,-1.1698,-1.081,-1.0687,-1.0791,-1.0448,-1.0322,-1.0303,-1.0303,-1.0069,0.0,-0.9638,-0.9299,0.0,-0.8996,0.0,0.0,0.0,0.0,0.0,0.0,0.0,0.0,0.0,0.0,0.0,0.0,-0.1631,0.0,0.0,0.0,0.0,0.0,0.0,0.1901,0.2277,0.2235,0.237,0.0,0.0,0.2854,0.2898,0.2898,0.2898,0.2898,0.2898,0.2787,0.2579,0.2733,0.2507,0.1957,0.2128,0.1989,0.1628,0.1628,0.1628,0.1628,0.1628,0.1657,0.1741,0.1741,0.1769,0.1797,0.1797,0.1797,0.1797,-2.2208,0.0,0.0,0.0,-2.1746,0.0,0.0,0.0,-2.0724,0.0,-2.0674,-2.0674,-2.0674,-2.0141,-1.9815,-1.9815,-1.9292,-1.8989,-1.8989,-1.8989,0.0,0.0,-1.895,-1.8937,-1.8911,0.0,0.0,0.0,0.0,0.0,-1.6637,-1.5932,-1.5603,0.0,-1.5006,0.0,-1.4393,-1.4136,-1.3842,-1.3549,-1.3549,-1.3118,-1.252,-1.2856,-1.3218,-1.3539,-1.3518,-1.322,-1.2779,-1.2357,-1.1923,-1.1468,-1.0937,-1.0678,-1.0544,-1.0399,-1.0332,-1.0283,-1.0283,-1.0283,-1.0157,-0.9697,0.0,0.0,0.0,0.0,-0.8365,0.0,0.0,0.0,0.0,0.0,0.0,0.0,0.0,0.0,0.0,0.0,0.0,0.0,0.0,0.0,0.0,0.0697,0.0943,0.1524,0.1569,0.1878,0.0,0.0,0.2696,0.281,0.2832,0.2832,0.2832,0.2832,0.2529,0.1949,0.2026,0.1797,0.1307,0.1298,0.1291,0.1291,0.1291,0.1291,0.1291,0.1291,0.1403,0.16,0.16,0.1685,0.1797,0.1797,0.1797,0.1797,-2.2208,-2.2208,-2.2067,0.0,-2.1817,-2.1864,0.0,0.0,0.0,0.0,-2.041,-2.0182,-2.0182,-2.0029,-1.9939,-1.9939,-2.0135,0.0,0.0,0.0,0.0,-1.959,-1.9577,-1.9368,-1.8911,-1.8457,0.0,-1.7651,0.0,0.0,-1.5866,-1.5702,-1.568,0.0,0.0,0.0,-1.4474,-1.4401,-1.375,-1.2788,-1.2788,-1.2666,0.0,0.0,-1.2691,-1.274,-1.2433,-1.2181,-1.1912,-1.1252,-1.1055,-1.1006,-1.0575,-1.0303,-1.0127,-0.9991,-0.9864,-0.9785,-0.9785,-0.9785,-0.9746,-0.9619,-0.9299,-0.8996,0.0,0.0,0.0,0.0,0.0,0.0,0.0,0.0,0.0,0.0,0.0,0.0,0.0,0.0,0.0,-0.15,0.0,0.0,0.0134,0.0494,0.0809,0.1056,0.1078,0.1211,0.0,0.0,0.0,0.17,0.1767,0.1767,0.1722,0.1722,0.1576,0.1332,0.141,0.1388,0.1307,0.1298,0.1291,0.1291,0.1291,0.1291,0.1291,0.1291,0.1319,0.1403,0.1543,0.1685,0.1797,0.1797,0.1797,0.1797,-2.2208,0.0,0.0,-2.1447,0.0,0.0,-2.0858,0.0,0.0,-2.0156,-1.9901,0.0,-1.9734,-1.9734,-1.9734,-1.9734,-1.9978,0.0,-2.0144,0.0,0.0,-1.9635,-1.9622,-1.947,-1.9139,-1.8643,0.0,-1.7947,0.0,0.0,-1.629,-1.6115,0.0,0.0,0.0,-1.5708,-1.4805,-1.4215,-1.339,-1.2466,-1.2497,0.0,0.0,-1.2175,-1.2126,-1.1895,-1.1313,-1.1266,-1.1395,-1.0792,-1.0564,-1.0477,-1.0235,-0.999,-0.9774,-0.9696,-0.9518,-0.9339,-0.9339,-0.9339,-0.9299,-0.9119,-0.8906,-0.8741,-0.8741,-0.8683,-0.8553,0.0,0.0,0.0,0.0,0.0,0.0,0.0,0.0,0.0,0.0,0.0,0.0,0.0,-0.1321,0.0,-0.0649,0.0179,0.0652,0.0516,0.0696,0.0,0.0,0.0,0.0,0.1299,0.1277,0.1277,0.1299,0.1232,0.1153,0.105,0.1098,0.1115,0.1118,0.1113,0.1122,0.1122,0.1122,0.1122,0.1122,0.1122,0.115,0.1234,0.1487,0.1657,0.1713,0.1713,0.1741,0.1797,-2.2114,0.0,0.0,0.0,0.0,0.0,0.0,-1.9721,0.0,-1.942,0.0,-1.9316,-1.9316,-1.9316,-1.9316,-1.9316,0.0,-1.9394,-1.9394,-1.9394,-1.9394,-1.9394,-1.9394,-1.9394,-1.9394,-1.8839,0.0,0.0,0.0,0.0,0.0,0.0,0.0,0.0,0.0,0.0,0.0,-1.3776,-1.2865,-1.2331,-1.2388,-1.1972,-1.1352,-1.1703,-1.1568,-1.1105,-1.0371,-1.0535,-1.106,-1.0557,-1.0213,-1.0,-0.9941,-0.9686,-0.9419,-0.9419,-0.9188,-0.8915,-0.8915,-0.8915,-0.8834,-0.8475,-0.8353,-0.8311,-0.8311,-0.8311,-0.8311,-0.8311,-0.8049,-0.7599,0.0,0.0,0.0,0.0,0.0,0.0,0.0,0.0,0.0,0.0,0.0,0.0,0.0,0.0,0.0381,0.0022,0.0381,0.0,0.0,0.0,0.0,0.1232,0.1141,0.0,0.1254,0.0,0.1033,0.0983,0.0988,0.0948,0.0898,0.0898,0.0898,0.0898,0.0898,0.0898,0.0898,0.0898,0.0982,0.1122,0.1431,0.1543,0.1572,0.1572,0.1628,0.1741,-2.164,0.0,0.0,0.0,0.0,-1.9695,-1.8948,-1.9462,-1.9798,-1.9447,-1.9105,-1.8905,-1.8905,-1.8905,-1.8905,-1.8905,-1.921,0.0,0.0,0.0,0.0,-1.9394,-1.9394,-1.9394,-1.9394,-1.8967,-1.8534,0.0,0.0,0.0,0.0,0.0,0.0,0.0,0.0,0.0,-1.4481,-1.3241,0.0,-1.1912,-1.1922,-1.1679,-1.1301,-1.1377,-1.1162,-1.0738,-1.0277,-1.0355,-1.0552,-0.9612,-0.96,-0.9961,-0.9666,-0.929,-0.8921,-0.8921,-0.8716,-0.8496,-0.8496,-0.8496,-0.8496,-0.8414,-0.8106,-0.7816,-0.7816,-0.7816,-0.7816,-0.7816,-0.7342,-0.6894,-0.6725,0.0,0.0,0.0,0.0,0.0,0.0,0.0,0.0,0.0,0.0,-0.1569,0.0,0.0,0.0,0.0,0.0,0.0,0.0,0.0,0.0,0.0,0.1054,0.0,0.0,0.0,0.0892,0.0832,0.0884,0.0917,0.0898,0.0898,0.0898,0.0898,0.0898,0.0898,0.0898,0.0898,0.0982,0.1094,0.1178,0.1262,0.1347,0.1347,0.1375,0.1375,0.0,0.0,0.0,0.0,0.0,0.0,0.0,-1.9549,0.0,-1.8822,-1.8807,-1.874,-1.8472,-1.8449,-1.8449,-1.8449,-1.8625,-1.8732,-1.8732,-1.8732,-1.8732,-1.8732,-1.8732,0.0,-1.8732,-1.8545,-1.832,-1.8052,0.0,0.0,0.0,0.0,0.0,-1.6792,0.0,-1.5457,0.0,0.0,0.0,-1.2079,-1.1892,-1.1593,-1.1301,-1.1301,-1.1045,-1.0644,-1.0228,-1.0076,-0.9965,-0.9245,-0.9217,-0.9457,-0.9297,-0.8947,-0.8602,-0.8602,-0.8324,-0.8044,-0.8044,-0.8044,-0.8044,-0.8044,-0.7857,-0.7691,-0.7691,-0.7691,-0.7649,-0.7482,-0.7048,-0.6598,-0.6252,-0.5739,0.0,0.0,0.0,0.0,0.0,0.0,0.0,0.0,0.0,0.0,0.0,0.0,0.0,0.0,0.0,0.0,0.0,0.0,0.0,0.0,0.0,0.0,0.0,0.0,0.0,0.0807,0.0864,0.0896,0.0898,0.0898,0.0898,0.0898,0.0898,0.0898,0.0898,0.0898,0.0926,0.101,0.1066,0.115,0.1206,0.1206,0.1206,0.1206,0.0,-2.1595,0.0,0.0,-2.0872,0.0,-2.021,-1.9811,-1.9223,-1.8368,-1.8524,-1.8558,-1.8157,-1.8084,-1.8084,-1.8084,-1.8084,-1.8084,-1.8084,-1.8084,-1.8084,-1.8084,-1.8084,-1.8084,-1.8084,-1.8084,-1.8057,0.0,0.0,0.0,0.0,0.0,0.0,0.0,0.0,0.0,0.0,0.0,-1.3114,-1.2419,-1.2072,-1.1687,-1.1301,-1.1301,-1.1045,-1.0653,-1.0145,-0.9751,-0.9388,-0.8939,-0.8854,-0.8935,-0.8996,-0.8692,-0.8332,-0.8394,-0.8064,-0.7691,-0.7691,-0.7691,-0.7691,-0.7691,-0.7691,-0.7691,-0.7691,-0.7607,-0.7454,-0.7188,-0.6732,-0.6188,-0.5653,-0.5459,0.0,0.0,0.0,0.0,0.0,0.0,0.0,0.0,0.0,0.0,-0.2333,0.0,0.0,0.0,0.0,0.0,0.0,0.0,0.0,0.0,0.0,0.0742,0.0855,0.0,0.0809,0.0,0.087,0.0902,0.0898,0.0898,0.0898,0.0898,0.0898,0.0898,0.0898,0.0898,0.0898,0.0898,0.101,0.1066,0.1066,0.1066,0.1066,0.1068,0.0,0.0,0.0,0.0,0.0,0.0,-2.0396,-2.0163,-1.9738,-1.8913,-1.8444,-1.8169,-1.8123,-1.8084,-1.8084,-1.8084,-1.8084,-1.8084,-1.8084,-1.8084,-1.8084,-1.8084,-1.8084,-1.8084,-1.8084,-1.8084,-1.7815,0.0,0.0,0.0,0.0,0.0,0.0,0.0,0.0,0.0,0.0,-1.4064,-1.3435,-1.2583,-1.241,-1.191,-1.1301,-1.1301,-1.1045,-1.0605,-0.982,-0.9288,-0.8883,-0.8302,-0.837,-0.8765,-0.8935,-0.8561,-0.809,-0.8332,-0.8064,-0.7691,-0.7691,-0.7691,-0.7691,-0.7691,-0.7691,-0.7691,-0.7691,-0.7321,-0.6972,-0.693,-0.6039,-0.5205,-0.5096,-0.4727,-0.4556,0.0,0.0,0.0,0.0,0.0,0.0,0.0,0.0,0.0,0.0,-0.2377,0.0,0.0,0.0,0.0,0.0,0.0,0.0,0.0719,0.0,0.0697,0.0719,0.0775,0.0804,0.0807,0.0866,0.0895,0.0898,0.0898,0.0898,0.0898,0.0898,0.0898,0.0898,0.0898,0.0898,0.0898,0.0926,0.0926,0.0926,0.0926,0.0926,0.0929,0.0,0.0,0.0,0.0,0.0,0.0,0.0,-2.0294,-1.9703,-1.8982,-1.8724,-1.8455,-1.8146,-1.8084,-1.8084,-1.8084,-1.8084,-1.7947,-1.7584,-1.7556,-1.739,-1.7056,-1.7028,-1.7028,-1.7028,-1.7028,-1.6905,0.0,0.0,0.0,0.0,0.0,0.0,0.0,0.0,-1.4458,-1.3989,-1.392,-1.3141,-1.2008,-1.1952,-1.1264,-1.0285,-1.0285,-1.0023,-0.9624,-0.9174,-0.8769,-0.8348,-0.7863,-0.7951,-0.8329,-0.857,-0.8214,-0.7731,-0.7821,-0.751,-0.7091,-0.7091,-0.7091,-0.7091,-0.7091,-0.7091,-0.7091,-0.7091,-0.6803,-0.648,-0.6273,-0.548,-0.4748,-0.4596,-0.4661,-0.4683,0.0,0.0,0.0,0.0,0.0,0.0,0.0,0.0,-0.2929,0.0,0.0,0.0,0.0,0.0,0.0,0.0,0.0,0.0,0.0697,0.0,0.0728,0.077,0.0787,0.0816,0.086,0.0877,0.0898,0.0898,0.0898,0.0898,0.0898,0.0898,0.0898,0.0898,0.0898,0.0898,0.0898,0.0898,0.0909,0.0896,0.0896,0.0936,0.0954,-2.2197,0.0,-2.2197,0.0,-2.2092,-2.1685,-2.0836,-2.0143,-1.9389,-1.8542,-1.8265,-1.8059,-1.786,-1.7854,-1.776,-1.7595,-1.7567,-1.739,-1.695,-1.695,-1.6754,-1.6312,-1.6312,0.0,-1.6312,-1.6312,-1.6226,-1.6026,-1.6026,0.0,0.0,0.0,0.0,0.0,-1.4237,-1.3959,-1.3549,-1.3519,-1.2663,-1.1346,-1.1326,-1.0611,-0.9588,-0.9588,-0.9416,-0.9105,-0.8659,-0.8279,-0.7918,-0.739,-0.7356,-0.7586,-0.7959,-0.771,-0.7266,-0.7328,-0.7035,-0.6704,-0.6704,-0.6704,-0.6704,-0.6704,-0.6704,-0.6704,-0.6704,-0.6359,-0.5932,-0.5464,-0.4901,-0.4465,-0.4316,-0.4574,-0.4683,-0.436,0.0,0.0,0.0,0.0,0.0,0.0,-0.348,-0.3103,-0.2862,-0.2467,0.0,0.0,0.0,0.0,0.0,0.0,0.0,0.0,0.0,0.0,0.0,0.0793,0.0822,0.0906,0.091,0.0898,0.0898,0.0898,0.0898,0.0898,0.0898,0.0898,0.0898,0.0898,0.0898,0.0898,0.0898,0.0887,0.0913,0.0913,0.0932,0.099,-2.2197,-2.2197,-2.2197,-2.2197,-2.2197,-2.1777,-2.0488,-1.9678,-1.8744,-1.7501,-1.6746,-1.6567,-1.7146,-1.7202,-1.6978,-1.6358,-1.6312,-1.6312,-1.6301,-1.6301,-1.6301,0.0,0.0,-1.6312,-1.6312,-1.6312,-1.5997,-1.541,0.0,0.0,-1.392,0.0,-1.3861,-1.4297,-1.4079,-1.3631,-1.3009,-1.2856,-1.2047,-1.0806,-1.0665,-1.0227,-0.9588,-0.9588,-0.9607,-0.9449,-0.8383,-0.7919,-0.7679,-0.6808,-0.6468,-0.6532,-0.7133,-0.7043,-0.6747,-0.6937,-0.6852,-0.6704,-0.6704,-0.6704,-0.6704,-0.6704,-0.6704,-0.6704,-0.6704,-0.6087,-0.5275,-0.4491,-0.432,-0.4294,-0.4294,-0.4294,-0.4316,-0.4294,0.0,0.0,0.0,0.0,0.0,0.0,-0.3656,-0.3192,-0.3192,-0.2598,0.0,0.0,0.0,0.0,0.0,0.0,0.0,0.0,0.0449,0.0,0.0789,0.0793,0.0822,0.0906,0.091,0.0898,0.0898,0.0898,0.0898,0.0898,0.0898,0.0898,0.0898,0.0898,0.0898,0.0898,0.0898,0.0887,0.0913,0.0913,0.0932,0.0992,-2.2197,-2.2197,-2.203,-2.1526,-2.1121,-2.0396,-1.9061,-1.8338,-1.7597,-1.6725,-1.6423,-1.6226,-1.5997,-1.633,-1.65,0.0,-1.6312,-1.614,0.0,-1.569,-1.5497,-1.5108,-1.5079,-1.5079,-1.5079,-1.5079,-1.499,-1.4793,0.0,0.0,0.0,-1.4245,-1.4171,-1.4079,-1.404,-1.3511,-1.2665,-1.2604,-1.16,-1.0043,-0.9999,-0.9361,-0.8448,-0.8448,-0.8448,-0.837,-0.7898,-0.7523,-0.7169,-0.6612,-0.6238,-0.6013,-0.6157,-0.6285,-0.6371,-0.6435,-0.6243,-0.6013,-0.6013,-0.6013,-0.6013,-0.6013,-0.6013,-0.6013,-0.6013,-0.5566,-0.5041,-0.46,-0.4403,-0.4294,-0.4294,-0.4294,-0.4294,-0.4294,-0.4294,0.0,0.0,0.0,0.0,0.0,-0.3656,-0.3192,0.0,-0.2598,0.0,0.0,0.0,0.0,0.0,0.0,0.0,0.0,0.0508,0.0,0.0793,0.0848,0.0879,0.0911,0.0893,0.0898,0.0898,0.0898,0.0898,0.0898,0.0898,0.0898,0.0898,0.0898,0.0898,0.09,0.0891,0.0917,0.0976,0.0966,0.1023,0.1082,-2.1831,-2.1788,-2.1557,-2.0837,-2.0272,-1.9428,-1.8069,-1.7395,-1.6711,-1.575,-1.5633,-1.5468,-1.5098,-1.541,0.0,-1.5633,-1.5633,-1.5468,-1.5108,-1.5049,-1.4872,-1.4515,-1.4515,-1.4515,-1.4515,0.0,0.0,-1.4515,-1.4515,-1.4515,-1.4515,-1.4455,-1.4267,-1.398,-1.367,-1.3009,-1.2104,-1.1865,-1.0826,-0.934,-0.934,-0.8752,-0.7901,-0.7901,-0.7901,-0.7865,-0.7667,-0.7417,-0.7084,-0.6579,-0.6192,-0.5919,-0.575,-0.5847,-0.6019,-0.6019,-0.5868,-0.5701,-0.5701,-0.5701,-0.5701,-0.5701,-0.5701,-0.568,-0.5572,-0.5333,-0.505,-0.4801,-0.4578,-0.4425,-0.4425,-0.436,-0.4294,-0.4294,-0.4294,-0.4294,-0.4294,0.0,0.0,0.0,0.0,0.0,0.0,-0.2598,-0.2201,0.0,0.0,0.0,0.0,0.0,0.0,-0.0268,0.0233,0.0,0.0806,0.0863,0.0895,0.0898,0.0898,0.0898,0.0898,0.0898,0.0898,0.0898,0.0898,0.0898,0.0898,0.0898,0.0904,0.0887,0.0906,0.0938,0.1007,0.0994,0.1052,0.1109,-2.123,-2.1092,0.0,0.0,-1.9616,0.0,-1.7409,-1.6779,-1.5999,-1.4701,-1.4506,-1.4515,-1.4515,-1.4515,-1.4515,-1.4515,0.0,0.0,0.0,-1.4515,-1.4515,-1.4515,-1.4515,-1.4515,-1.4515,-1.4515,-1.4515,-1.4515,-1.4515,-1.4515,-1.4515,-1.4327,-1.4109,-1.3881,-1.3078,-1.2235,-1.1392,-1.0755,-0.9808,-0.871,-0.871,-0.8369,-0.7901,-0.7901,-0.7901,-0.7865,-0.7691,-0.7537,-0.7302,-0.6672,-0.6332,-0.6134,-0.5815,-0.5712,-0.5701,-0.5701,-0.5701,-0.5701,-0.5701,-0.5701,-0.5701,-0.5701,-0.5701,-0.5636,-0.5398,-0.5311,-0.5246,-0.505,-0.4801,-0.4596,-0.4596,-0.4443,-0.4294,-0.4294,-0.4294,-0.4294,-0.4254,0.0,0.0,0.0,0.0,0.0,0.0,-0.2576,-0.2201,0.0,0.0,0.0,0.0,0.0,-0.1237,-0.0719,-0.0234,0.0268,0.081,0.0866,0.0897,0.0898,0.0898,0.0898,0.0898,0.0898,0.0898,0.0898,0.0898,0.0898,0.0898,0.0898,0.0887,0.0914,0.0916,0.0952,0.1002,0.1003,0.1053,0.1109,0.0,0.0,-2.0617,-1.9073,-1.8449,-1.7709,-1.6371,-1.57,-1.5183,-1.4734,-1.4556,-1.4515,-1.4515,-1.4515,-1.4515,-1.4515,-1.4515,-1.4515,-1.4515,-1.4515,-1.4515,-1.4515,-1.4515,-1.4515,-1.4515,-1.4515,-1.4515,-1.4515,-1.4515,-1.4515,-1.4485,-1.383,-1.342,-1.3199,-1.2389,-1.1555,-1.073,-1.0579,-0.9808,-0.871,-0.871,-0.8369,-0.7901,-0.7901,-0.7901,-0.7889,-0.7856,-0.7648,-0.7361,-0.7093,-0.6649,-0.6162,-0.5982,-0.582,-0.5701,-0.5701,-0.5701,-0.5701,-0.5701,-0.5701,-0.5701,-0.5701,-0.5701,-0.568,-0.5615,-0.5436,-0.5285,-0.5246,-0.4884,-0.4596,-0.4596,-0.4443,-0.4294,-0.4294,-0.4294,-0.4184,-0.3877,-0.3832,0.0,0.0,-0.3084,-0.2818,-0.2818,-0.2442,-0.2201,0.0,0.0,0.0,0.0,-0.2123,-0.1664,-0.0727,-0.0195,0.0329,0.0867,0.0899,0.089,0.0898,0.0898,0.0898,0.0898,0.0898,0.0898,0.0898,0.0898,0.0898,0.0898,0.0898,0.0887,0.0916,0.0969,0.1001,0.1004,0.1058,0.107,0.1109,-2.0773,-2.0376,-1.9684,-1.8206,-1.7577,-1.6947,-1.5959,-1.5385,-1.5,-1.4745,-1.4636,-1.4556,-1.4506,-1.4515,-1.4515,-1.4515,-1.4515,-1.4515,-1.4515,-1.4515,-1.4515,-1.4515,-1.4515,-1.4515,-1.4515,-1.4515,-1.4357,-1.404,-1.3731,-1.3601,-1.3571,-1.3139,-1.2795,-1.2512,-1.1764,-1.1094,-1.0485,-1.0174,-0.9537,-0.871,-0.871,-0.8369,-0.7901,-0.7901,-0.7901,-0.7901,-0.7901,-0.7785,-0.759,-0.7298,-0.6947,-0.6584,-0.6141,-0.5774,-0.5504,-0.5419,-0.5388,-0.5323,-0.5128,-0.5215,-0.5388,-0.5388,-0.5215,-0.5062,-0.5062,-0.4954,-0.491,-0.5128,-0.4688,-0.4381,-0.4714,-0.4294,-0.3924,-0.4008,-0.3899,-0.3722,-0.3502,-0.348,0.0,-0.3214,-0.2907,-0.2709,-0.2709,-0.24,-0.2201,-0.2201,0.0,0.0,-0.2234,-0.2279,-0.1925,-0.1143,-0.0853,-0.0339,0.0479,0.0772,0.0898,0.0898,0.0898,0.0898,0.0898,0.0898,0.0898,0.0898,0.0898,0.0898,0.0898,0.0913,0.0907,0.0936,0.0997,0.1027,0.1054,0.1104,0.1109,0.1109,-2.0063,-1.9441,-1.8657,-1.7494,-1.695,-1.6468,-1.5842,-1.5436,-1.5088,-1.4775,-1.4715,-1.4666,-1.4506,-1.4515,-1.4515,-1.4515,-1.4515,-1.4515,-1.4515,-1.4515,-1.4515,-1.4515,-1.4515,-1.4446,-1.4357,-1.4258,-1.3911,-1.3351,-1.2787,-1.2512,-1.2512,-1.2389,-1.2143,-1.1826,-1.1142,-1.0622,-1.0301,-0.9734,-0.9203,-0.871,-0.871,-0.8369,-0.7901,-0.7901,-0.7901,-0.7901,-0.7901,-0.7901,-0.7839,-0.7411,-0.7241,-0.7081,-0.6375,-0.5754,-0.525,-0.5021,-0.4876,-0.4727,-0.4381,-0.46,-0.4901,-0.4901,-0.46,-0.4294,-0.4294,-0.4294,-0.4403,-0.4814,-0.436,-0.4082,-0.4696,-0.4038,-0.3439,-0.3612,-0.3391,-0.3192,-0.3126,0.0,-0.3103,-0.3062,-0.2796,-0.262,-0.262,-0.2377,-0.2201,-0.2201,-0.2211,-0.2251,-0.23,-0.2331,-0.2154,-0.177,-0.1623,-0.1013,0.0134,0.0635,0.0898,0.0898,0.0898,0.0898,0.0898,0.0898,0.0898,0.0898,0.0898,0.09,0.0906,0.0903,0.0933,0.0998,0.0992,0.1051,0.1109,0.1109,0.1109,0.1109,-1.9309,-1.9077,-1.8522,-1.7069,-1.6746,-1.6424,-1.5585,-1.5303,-1.5156,-1.497,-1.4804,-1.4666,-1.4506,-1.4515,-1.4515,-1.4515,-1.4515,-1.4515,-1.4515,-1.4515,-1.4515,-1.4515,-1.4515,-1.4228,-1.3662,-1.31,-1.2757,-1.2665,-1.2543,-1.2512,-1.2481,-1.1787,-1.1382,-1.1104,-1.0351,-0.9862,-0.9638,-0.9548,-0.9203,-0.871,-0.871,-0.8369,-0.7901,-0.7901,-0.7901,-0.7901,-0.7901,-0.7901,-0.7869,-0.7682,-0.7425,-0.7169,-0.6926,-0.613,-0.5209,-0.4776,-0.4269,-0.3895,-0.4206,-0.436,-0.4403,-0.4403,-0.436,-0.4294,-0.4294,-0.4294,-0.4316,-0.4403,-0.4144,-0.3902,-0.3899,-0.3638,-0.3376,-0.3281,-0.3236,-0.3103,-0.2818,0.0,-0.2665,-0.24,-0.231,-0.2288,-0.2288,-0.2221,-0.2201,-0.2201,-0.2244,-0.2292,-0.2304,-0.2453,-0.2511,-0.2435,-0.1454,-0.0405,0.0751,0.0867,0.0898,0.0898,0.0898,0.0898,0.0898,0.0898,0.0898,0.0898,0.0898,0.0912,0.0907,0.0911,0.0946,0.0995,0.1,0.1051,0.1109,0.1109,0.1109,0.1109,-1.9077,-1.8721,-1.8171,-1.7252,-1.708,-1.6787,-1.5898,-1.5712,-1.5555,-1.5156,-1.4961,-1.4813,-1.4636,-1.4536,-1.4515,-1.4515,-1.4515,-1.4515,-1.4515,-1.4515,-1.4357,-1.398,-1.395,-1.3662,-1.2978,-1.2305,-1.1965,-1.1965,-1.1632,-1.1476,-1.1476,-1.1115,-1.0769,-1.044,-1.0079,-0.9766,-0.9516,-0.9516,-0.9281,-0.8903,-0.8764,-0.8453,-0.8093,-0.7955,-0.7901,-0.7901,-0.7901,-0.7901,-0.7875,-0.7649,-0.7281,-0.6818,-0.6514,-0.5643,-0.4681,-0.4323,-0.3748,-0.3328,-0.3785,-0.3744,-0.3615,-0.3851,-0.3722,-0.3549,-0.3549,-0.3549,-0.3615,-0.3877,-0.3615,-0.3442,-0.3656,-0.3281,-0.2929,-0.2929,-0.2773,0.0,0.0,-0.242,-0.2377,-0.2223,-0.2201,-0.2201,-0.2201,-0.2242,-0.2246,-0.2246,-0.2305,-0.2376,-0.2451,-0.2561,-0.2605,-0.2655,-0.1476,-0.0606,-0.0084,0.0588,0.0898,0.0898,0.0898,0.0898,0.0898,0.0898,0.0898,0.0898,0.0886,0.0901,0.0916,0.0948,0.0977,0.1002,0.105,0.1064,0.1109,0.1109,0.1109,0.1109,-1.8787,-1.8361,-1.7881,-1.7461,-1.7383,-1.7151,-1.6369,-1.6251,-1.6004,-1.5417,-1.5231,-1.5015,-1.4725,-1.4586,-1.4515,-1.4515,-1.4515,-1.4515,-1.4515,-1.4357,-1.404,-1.3511,-1.3199,-1.2803,-1.2266,-1.1632,-1.1303,-1.1303,-1.0839,-1.0593,-1.0593,-1.0593,-1.0403,-0.9983,-0.9983,-0.983,-0.9516,-0.9516,-0.9354,-0.9083,-0.8878,-0.8644,-0.8351,-0.8093,-0.7991,-0.7985,-0.7925,-0.7901,-0.7875,-0.7628,-0.7133,-0.6531,-0.613,-0.5235,-0.4264,-0.405,-0.3498,-0.3032,-0.3359,-0.3196,-0.3027,-0.3413,-0.322,-0.2931,-0.2931,-0.2912,-0.2998,-0.3369,-0.3151,-0.3021,-0.3391,-0.2948,-0.2526,-0.2595,0.0,0.0,0.0,-0.2201,-0.2201,-0.2201,-0.2217,-0.223,-0.223,-0.2286,-0.2313,-0.2313,-0.2397,-0.2481,-0.2603,-0.2628,-0.259,-0.2491,-0.1454,-0.0755,-0.0475,0.0448,0.0898,0.0898,0.0898,0.0898,0.0898,0.0898,0.0901,0.0909,0.0903,0.0921,0.0938,0.0983,0.1005,0.1013,0.1067,0.1109,0.1109,0.1109,0.1109,0.1109,-1.8076,-1.8042,-1.7881,-1.7461,-1.7383,-1.7227,-1.6716,-1.6648,-1.643,-1.584,-1.563,-1.5357,-1.4753,-1.4586,-1.4515,-1.4515,-1.4515,-1.4515,-1.4515,-1.3911,-1.3541,-1.3511,-1.2313,-1.1608,-1.1577,-1.0996,-1.0688,-1.0688,-1.0624,-1.0593,-1.0593,-1.0593,-1.0403,-0.9983,-0.9983,-0.983,-0.9516,-0.9516,-0.9354,-0.9095,-0.9077,-0.8915,-0.865,-0.8363,-0.8261,-0.8231,-0.7991,-0.7901,-0.7875,-0.7729,-0.7208,-0.6583,-0.6428,-0.5407,-0.4285,-0.4275,-0.3748,-0.3169,-0.3063,-0.3013,-0.3037,-0.3191,-0.3112,-0.2986,-0.2986,-0.2949,-0.2912,-0.2934,-0.2934,-0.2868,-0.2798,-0.2618,-0.246,-0.2346,0.0,0.0,-0.2201,-0.2201,-0.2201,-0.2201,-0.2248,-0.2296,-0.2296,-0.2354,-0.2382,-0.2382,-0.2519,-0.2601,-0.2607,-0.2663,-0.243,-0.1874,-0.1229,-0.0363,0.0757,0.087,0.0898,0.0898,0.0898,0.0898,0.0898,0.0898,0.0913,0.0911,0.0913,0.0944,0.0995,0.1,0.1049,0.1106,0.1109,0.1109,0.1109,0.1109,0.1109,0.1109,-1.8008,-1.8008,-1.7959,-1.7803,-1.7773,-1.7627,-1.7197,-1.7139,-1.695,-1.6449,-1.5994,-1.5621,-1.5298,-1.4874,-1.4586,-1.4506,-1.4515,-1.4515,-1.4515,-1.348,-1.2704,-1.2282,-1.1421,-1.0933,-1.0933,-1.0719,-1.0593,-1.0593,-1.0593,-1.0593,-1.0593,-1.0593,-1.0403,-0.9983,-0.9983,-0.983,-0.9516,-0.9516,-0.9456,-0.9342,-0.9167,-0.9041,-0.8921,-0.8656,-0.856,-0.8524,-0.8237,-0.8141,-0.809,-0.7809,-0.6993,-0.6068,-0.5896,-0.493,-0.3848,-0.3764,-0.3551,-0.3322,-0.3253,-0.3188,-0.3139,-0.3183,-0.3161,-0.3129,-0.3129,-0.304,-0.2956,-0.2956,-0.2919,-0.2868,-0.2732,-0.2662,-0.2573,-0.2437,0.0,-0.2395,-0.2389,-0.2396,-0.2371,-0.2335,-0.2346,-0.2366,-0.2366,-0.2448,-0.2529,-0.2529,-0.2614,-0.2667,-0.2667,-0.2336,-0.1874,-0.1257,-0.0643,-0.0112,0.0336,0.0701,0.0898,0.0898,0.0898,0.0907,0.0897,0.0897,0.0913,0.0972,0.096,0.0981,0.1002,0.1052,0.1066,0.1109,0.1109,0.1109,0.1109,0.1109,0.1109,0.1112,-1.8008,-1.8008,-1.8008,-1.8008,-1.8008,-1.7876,-1.7551,-1.7502,-1.7323,-1.679,-1.6322,-1.5958,-1.5732,-1.5153,-1.48,-1.4698,-1.4579,-1.4515,-1.4515,-1.323,-1.212,-1.124,-1.0807,-1.0593,-1.0593,-1.0593,-1.0593,-1.0593,-1.0593,-1.0593,-1.0593,-1.0593,-1.0403,-0.9983,-0.9983,-0.983,-0.9516,-0.9516,-0.9516,-0.9498,-0.9306,-0.9227,-0.9166,-0.8691,-0.8652,-0.8765,-0.8276,-0.824,-0.8369,-0.7968,-0.6968,-0.5875,-0.5591,-0.4618,-0.3594,-0.3482,-0.3458,-0.3458,-0.3458,-0.3398,-0.3333,-0.3333,-0.3303,-0.325,-0.325,-0.3161,-0.3053,-0.3053,-0.3036,-0.2956,-0.2884,-0.2815,-0.2766,-0.2673,-0.265,-0.263,-0.263,-0.2617,-0.2618,-0.2561,-0.2568,-0.2562,-0.2539,-0.2623,-0.268,-0.2624,-0.2684,-0.2703,-0.2732,-0.1961,-0.1341,-0.0951,-0.0116,0.0318,0.0318,0.0708,0.0902,0.0912,0.0912,0.0899,0.0927,0.0927,0.0943,0.1003,0.0992,0.1006,0.1048,0.1067,0.1109,0.1109,0.1109,0.1109,0.1111,0.1087,0.109,0.1094,-1.8008,-1.8008,-1.8008,-1.8008,-1.8008,-1.793,-1.774,-1.7706,-1.7494,-1.6902,-1.6703,-1.6412,-1.5969,-1.5435,-1.5111,-1.5102,-1.4744,-1.4494,-1.4485,-1.3238,-1.1942,-1.0656,-1.0593,-1.0593,-1.0593,-1.0593,-1.0593,-1.0593,-1.0593,-1.0593,-1.0593,-1.0593,-1.0403,-0.9983,-0.9983,-0.983,-0.9516,-0.9516,-0.9516,-0.9516,-0.9516,-0.9516,-0.939,-0.8456,-0.8511,-0.8973,-0.8026,-0.8121,-0.8609,-0.8217,-0.7236,-0.6109,-0.5633,-0.4622,-0.3613,-0.3613,-0.3613,-0.3613,-0.3613,-0.3613,-0.3613,-0.3613,-0.3493,-0.3403,-0.3403,-0.3308,-0.3193,-0.3193,-0.3193,-0.3193,-0.3193,-0.3091,-0.2991,-0.2991,-0.2946,-0.2901,-0.2901,-0.2901,-0.2901,-0.2903,-0.2965,-0.2949,-0.2821,-0.2859,-0.2833,-0.2719,-0.2693,-0.2732,-0.2792,-0.1587,-0.0924,-0.0984,0.0308,0.0988,0.0988,0.0928,0.0913,0.0914,0.0914,0.0929,0.0988,0.0988,0.1005,0.1002,0.1002,0.105,0.1109,0.1109,0.1109,0.1109,0.1109,0.1109,0.1113,0.111,0.1086,0.1125,-1.8008,-1.8008,-1.8008,-1.8008,-1.8008,-1.7974,-1.794,-1.7784,-1.7634,-1.7441,-1.7049,-1.6656,-1.6435,-1.5947,-1.561,-1.5515,-1.5404,-1.4921,-1.3922,-1.2973,-1.2053,-1.1203,-1.0807,-1.0593,-1.0593,-1.0593,-1.0593,-1.0593,-1.0593,-1.0593,-1.0593,-1.0593,-1.0403,-0.9983,-0.9983,-0.983,-0.9516,-0.9516,-0.9516,-0.9516,-0.9516,-0.9516,-0.9472,-0.9197,-0.8902,-0.8609,-0.8149,-0.7823,-0.7547,-0.7225,-0.6438,-0.5429,-0.457,-0.3981,-0.3613,-0.3613,-0.3613,-0.3613,-0.3613,-0.3613,-0.3613,-0.3613,-0.3583,-0.3528,-0.3528,-0.3436,-0.3346,-0.3346,-0.3253,-0.3193,-0.3193,-0.3168,-0.3141,-0.3141,-0.3118,-0.3122,-0.3102,-0.3112,-0.309,-0.3057,-0.3066,-0.3003,-0.2872,-0.2899,-0.2888,-0.2833,-0.2888,-0.2706,-0.2263,-0.144,-0.0732,-0.0246,0.0586,0.0988,0.0988,0.097,0.0966,0.0975,0.0975,0.099,0.0988,0.0988,0.1036,0.1063,0.1063,0.1068,0.1109,0.1109,0.1109,0.1111,0.1099,0.1108,0.1111,0.1142,0.1153,0.1157,-1.8008,-1.8008,-1.8008,-1.8008,-1.8008,-1.7974,-1.7896,-1.7725,-1.7579,-1.751,-1.7132,-1.6812,-1.6745,-1.6317,-1.6034,-1.5936,-1.5521,-1.4665,-1.321,-1.2673,-1.2105,-1.1423,-1.1089,-1.0881,-1.0767,-1.076,-1.0707,-1.0593,-1.0593,-1.0593,-1.0593,-1.0593,-1.0403,-0.9983,-0.9983,-0.983,-0.9516,-0.9516,-0.9516,-0.9516,-0.9516,-0.9516,-0.9484,-0.9215,-0.885,-0.8436,-0.7979,-0.7553,-0.7175,-0.6934,-0.6168,-0.5152,-0.4237,-0.3833,-0.3679,-0.3679,-0.3649,-0.3613,-0.3613,-0.3613,-0.3613,-0.3613,-0.3613,-0.3613,-0.3613,-0.3526,-0.3474,-0.3474,-0.3414,-0.3362,-0.3362,-0.3362,-0.3362,-0.3362,-0.3362,-0.3361,-0.3353,-0.3363,-0.3335,-0.3292,-0.3299,-0.3246,-0.3109,-0.3109,-0.3042,-0.2939,-0.2965,-0.282,-0.2466,-0.1489,-0.0788,-0.0382,0.0543,0.1055,0.1055,0.1055,0.1017,0.1006,0.1006,0.1022,0.105,0.105,0.1059,0.1109,0.1109,0.1109,0.1111,0.1089,0.1093,0.1097,0.1127,0.1139,0.1142,0.1173,0.1184,0.1189,-1.8008,-1.8008,-1.8008,-1.8008,-1.8008,-1.793,-1.774,-1.7588,-1.7426,-1.7235,-1.7003,-1.6908,-1.6908,-1.6587,-1.6334,-1.6334,-1.5274,-1.399,-1.2592,-1.2422,-1.2114,-1.1503,-1.1469,-1.1335,-1.1076,-1.1022,-1.0894,-1.0633,-1.0606,-1.0593,-1.0593,-1.0593,-1.0403,-0.9983,-1.0047,-0.9849,-0.9516,-0.954,-0.9508,-0.9516,-0.9516,-0.9516,-0.9446,-0.8818,-0.8522,-0.8328,-0.7647,-0.7321,-0.7195,-0.6985,-0.6166,-0.5104,-0.4442,-0.4021,-0.3799,-0.3799,-0.3725,-0.3615,-0.3615,-0.3635,-0.3627,-0.3627,-0.3619,-0.3613,-0.3613,-0.3613,-0.3613,-0.3613,-0.3613,-0.3613,-0.3613,-0.3613,-0.3613,-0.3613,-0.3613,-0.3613,-0.3613,-0.3613,-0.3613,-0.3613,-0.3613,-0.3555,-0.3413,-0.3396,-0.33,-0.3076,-0.3069,-0.3067,-0.3049,-0.1709,-0.0948,-0.1007,0.037,0.1109,0.1109,0.1109,0.1063,0.1005,0.1005,0.1051,0.1109,0.1109,0.1109,0.1109,0.1109,0.1111,0.1116,0.111,0.1088,0.1128,0.1159,0.1207,0.121,0.1204,0.1216,0.122,-1.8008,-1.8008,-1.8008,-1.8008,-1.8008,-1.793,-1.774,-1.7588,-1.7426,-1.7235,-1.7003,-1.6908,-1.6908,-1.6835,-1.678,-1.678,-1.5453,-1.4202,-1.3322,-1.2683,-1.2256,-1.2111,-1.2111,-1.1977,-1.1718,-1.1229,-1.0962,-1.0902,-1.0707,-1.0593,-1.0593,-1.0593,-1.0403,-0.9996,-1.0211,-1.0023,-0.9528,-0.9733,-0.9703,-0.9516,-0.9516,-0.9516,-0.9484,-0.935,-0.8598,-0.7614,-0.7451,-0.6736,-0.5815,-0.561,-0.5174,-0.4706,-0.4431,-0.4151,-0.3865,-0.3865,-0.3846,-0.383,-0.383,-0.3789,-0.3745,-0.3745,-0.3679,-0.3613,-0.3613,-0.3613,-0.3613,-0.3613,-0.3613,-0.3613,-0.3613,-0.3613,-0.3613,-0.3613,-0.3613,-0.3613,-0.3613,-0.3613,-0.3613,-0.3613,-0.3613,-0.3555,-0.3413,-0.3439,-0.3442,-0.3409,-0.3534,-0.333,-0.2667,-0.174,-0.09,-0.0269,0.0638,0.1109,0.1109,0.1109,0.1106,0.1067,0.1067,0.1069,0.1109,0.1109,0.1109,0.1109,0.1109,0.1089,0.1112,0.1083,0.1135,0.1196,0.119,0.1202,0.1206,0.1275,0.1286,0.1288,-1.8008,-1.8008,-1.8008,-1.8008,-1.8008,-1.793,-1.774,-1.7588,-1.7426,-1.7235,-1.7003,-1.6908,-1.6908,-1.6908,-1.6621,-1.586,-1.5073,-1.4135,-1.2989,-1.2519,-1.2305,-1.2305,-1.2305,-1.2231,-1.2078,-1.1672,-1.1276,-1.0995,-1.0874,-1.0695,-1.0466,-1.0561,-1.0339,-0.99,-1.0135,-0.9928,-0.9496,-0.966,-0.9636,-0.9516,-0.9516,-0.9516,-0.9452,-0.9151,-0.8333,-0.7354,-0.7022,-0.6276,-0.5395,-0.5292,-0.5009,-0.4691,-0.4629,-0.4313,-0.3992,-0.3992,-0.3951,-0.3903,-0.3903,-0.389,-0.3841,-0.3841,-0.3795,-0.3721,-0.361,-0.3613,-0.3613,-0.3613,-0.3613,-0.3613,-0.3613,-0.3613,-0.3613,-0.3613,-0.3613,-0.3613,-0.3613,-0.3613,-0.3613,-0.3613,-0.3613,-0.3604,-0.3602,-0.3656,-0.3688,-0.3651,-0.3668,-0.3333,-0.2492,-0.1995,-0.1208,-0.0034,0.037,0.0739,0.1109,0.1109,0.1109,0.1109,0.1109,0.1109,0.1109,0.1109,0.1109,0.111,0.1091,0.1106,0.1088,0.1153,0.1174,0.1191,0.1221,0.1234,0.1236,0.1291,0.1296,0.1296,-1.8008,-1.8008,-1.8008,-1.8008,-1.8008,-1.794,-1.7716,-1.7564,-1.7426,-1.7166,-1.7003,-1.6908,-1.6908,-1.6795,-1.6149,-1.4708,-1.4494,-1.3818,-1.2372,-1.2305,-1.2305,-1.2305,-1.2305,-1.2305,-1.2305,-1.2064,-1.1712,-1.1142,-1.1042,-1.0771,-1.0373,-1.0518,-1.0308,-0.9804,-1.0002,-0.9873,-0.9516,-0.9564,-0.9558,-0.9516,-0.9516,-0.9516,-0.9414,-0.8753,-0.8032,-0.7321,-0.6629,-0.598,-0.5395,-0.5395,-0.5163,-0.4861,-0.4861,-0.4555,-0.418,-0.418,-0.4075,-0.3965,-0.3965,-0.3951,-0.3935,-0.3935,-0.3919,-0.3854,-0.3689,-0.3645,-0.3645,-0.3645,-0.3645,-0.3645,-0.3645,-0.3657,-0.3641,-0.3641,-0.3624,-0.3613,-0.3613,-0.3613,-0.3613,-0.3613,-0.363,-0.3687,-0.3802,-0.3895,-0.3913,-0.3852,-0.3784,-0.3409,-0.2714,-0.2348,-0.1543,-0.0269,0.0,0.0437,0.1109,0.1109,0.1109,0.1109,0.1109,0.1109,0.1109,0.1109,0.1112,0.1084,0.111,0.1092,0.1105,0.1191,0.1215,0.1222,0.1286,0.1296,0.1296,0.1296,0.1296,0.1296,-1.8008,-1.8008,-1.8008,-1.8008,-1.8008,-1.7906,-1.7564,-1.7505,-1.7367,-1.6978,-1.6908,-1.6908,-1.6908,-1.6333,-1.5578,-1.4673,-1.4034,-1.3273,-1.2378,-1.2305,-1.2305,-1.2305,-1.2305,-1.2305,-1.2305,-1.2265,-1.2084,-1.1785,-1.1276,-1.0877,-1.0666,-1.0611,-1.0308,-0.9817,-1.0171,-1.0015,-0.9502,-0.9757,-0.9721,-0.9516,-0.9516,-0.9516,-0.9414,-0.8753,-0.8032,-0.7321,-0.6629,-0.598,-0.5395,-0.5395,-0.5259,-0.5054,-0.5054,-0.4812,-0.4535,-0.4535,-0.4394,-0.4251,-0.4251,-0.4172,-0.4059,-0.4059,-0.3981,-0.3895,-0.3862,-0.3857,-0.3857,-0.3857,-0.3857,-0.3857,-0.3857,-0.3803,-0.3761,-0.3761,-0.3676,-0.3613,-0.3613,-0.3613,-0.3613,-0.3613,-0.3698,-0.3808,-0.3868,-0.3989,-0.4067,-0.4051,-0.4151,-0.4082,-0.3792,-0.2616,-0.1676,-0.1139,0.0067,0.0808,0.1109,0.1109,0.1109,0.1109,0.1109,0.1109,0.1109,0.1109,0.109,0.1115,0.1084,0.1151,0.12,0.1209,0.1227,0.1291,0.1295,0.1296,0.1296,0.1296,0.1296,0.1296,-1.8008,-1.8008,-1.8008,-1.8008,-1.8008,-1.7881,-1.7539,-1.7505,-1.7367,-1.6943,-1.6908,-1.6908,-1.6908,-1.6228,-1.5294,-1.4106,-1.3673,-1.3171,-1.2342,-1.2305,-1.2305,-1.2305,-1.2305,-1.2305,-1.2305,-1.2305,-1.2238,-1.2111,-1.1585,-1.1078,-1.0599,-1.0536,-1.0167,-0.965,-0.9928,-0.9845,-0.9522,-0.9636,-0.9618,-0.9516,-0.9516,-0.9516,-0.9414,-0.8753,-0.8032,-0.7256,-0.621,-0.5653,-0.5395,-0.5395,-0.5259,-0.5087,-0.5087,-0.4858,-0.4592,-0.4592,-0.4464,-0.43,-0.43,-0.4262,-0.4221,-0.4221,-0.4181,-0.414,-0.414,-0.414,-0.407,-0.3932,-0.3903,-0.3903,-0.3903,-0.3862,-0.3854,-0.3854,-0.3814,-0.3781,-0.3781,-0.3781,-0.3781,-0.3781,-0.3884,-0.3977,-0.4,-0.4148,-0.4221,-0.4221,-0.4168,-0.3758,-0.2883,-0.2515,-0.1678,-0.0168,0.0067,0.0471,0.1109,0.1109,0.1109,0.1109,0.1109,0.1109,0.111,0.1093,0.1108,0.1088,0.1157,0.1187,0.1213,0.123,0.1284,0.1296,0.1296,0.1296,0.1296,0.1296,0.1296,0.1296]},{"header":{"parameterUnit":"m.s-1","parameterCategory":1,"la1":30.6,"la2":28.766,"lo1":-90.7593,"lo2":-88.6598,"dy":0.0162,"dx":0.0183,"nx":116,"ny":114,"refTime":"2023-11-03T00:00:00:Z","depth":0,"parameterNumber":3,"parameterNumberName":"V-component_of_WINDS"},"data":[0.0,0.0,0.0,0.0,0.0,0.0,0.0,0.0,0.0,0.0,0.0,0.0,0.0,0.0,0.0,0.0,0.0,0.0,0.0,0.0,0.0,0.0,0.0,0.0,0.0,0.0,0.0,0.0,0.0,0.0,0.0,0.0,0.0,0.0,0.0,0.0,0.0,0.0,0.0,0.0,0.0,0.0,0.0,0.0,0.0,0.0,0.0,0.0,0.0,0.0,0.0,0.0,0.0,0.0,0.0,0.0,0.0,0.0,0.0,0.0,0.0,0.0,0.0,0.0,0.0,0.0,0.0,0.0,0.0,0.0,0.0,0.0,0.0,0.0,0.0,0.0,0.0,0.0,0.0,0.0,0.0,0.0,0.0,0.0,0.0,0.0,0.0,0.0,0.0,0.0,0.0,0.0,0.0,0.0,0.0,0.0,0.0,0.0,0.0,0.0,0.0,0.0,0.0,0.0,0.0,0.0,0.0,0.0,0.0,0.0,0.0,0.0,0.0,0.0,0.0,0.0,0.0,0.0,0.0,0.0,0.0,0.0,0.0,0.0,0.0,0.0,0.0,0.0,0.0,0.0,0.0,0.0,0.0,0.0,0.0,0.0,0.0,0.0,0.0,0.0,0.0,0.0,0.0,0.0,0.0,0.0,0.0,0.0,0.0,0.0,0.0,0.0,0.0,0.0,0.0,0.0,0.0,0.0,0.0,0.0,0.0,0.0,0.0,0.0,0.0,0.0,0.0,0.0,0.0,0.0,0.0,0.0,0.0,0.0,0.0,0.0,0.0,0.0,0.0,0.0,0.0,0.0,0.0,0.0,0.0,0.0,0.0,0.0,0.0,0.0,0.0,0.0,0.0,0.0,0.0,0.0,0.0,0.0,0.0,0.0,0.0,0.0,0.0,0.0,0.0,0.0,0.0,0.0,0.0,0.0,0.0,0.0,0.0,0.0,0.0,0.0,0.0,0.0,0.0,0.0,0.0,0.0,0.0,0.0,0.0,0.0,0.0,0.0,0.0,0.0,0.0,0.0,0.0,0.0,0.0,0.0,0.0,0.0,0.0,0.0,0.0,0.0,0.0,0.0,0.0,0.0,0.0,0.0,0.0,0.0,0.0,0.0,0.0,0.0,0.0,0.0,0.0,0.0,0.0,0.0,0.0,0.0,0.0,0.0,0.0,0.0,0.0,0.0,0.0,0.0,0.0,0.0,0.0,0.0,0.0,0.0,0.0,0.0,0.0,0.0,0.0,0.0,0.0,0.0,0.0,0.0,0.0,0.0,0.0,0.0,0.0,0.0,0.0,0.0,0.0,0.0,0.0,0.0,0.0,0.0,0.0,0.0,0.0,0.0,0.0,0.0,0.0,0.0,0.0,0.0,0.0,0.0,0.0,0.0,0.0,0.0,0.0,0.0,0.0,0.0,0.0,0.0,0.0,0.0,0.0,0.0,0.0,0.0,0.0,0.0,0.0,0.0,0.0,0.0,0.0,0.0,0.0,0.0,0.0,0.0,0.0,0.0,0.0,0.0,0.0,0.0,0.0,0.0,0.0,0.0,0.0,0.0,0.0,0.0,0.0,0.0,0.0,0.0,0.0,0.0,0.0,0.0,0.0,0.0,0.0,0.0,0.0,0.0,0.0,0.0,0.0,0.0,0.0,0.0,0.0,0.0,0.0,0.0,0.0,0.0,0.0,0.0,0.0,0.0,0.0,0.0,0.0,0.0,0.0,0.0,0.0,0.0,0.0,0.0,0.0,0.0,0.0,0.0,0.0,0.0,0.0,0.0,0.0,0.0,0.0,0.0,0.0,0.0,0.0,0.0,0.0,0.0,0.0,0.0,0.0,0.0,0.0,0.0,0.0,0.0,0.0,0.0,0.0,0.0,0.0,0.0,0.0,0.0,0.0,0.0,0.0,0.0,0.0,0.0,0.0,0.0,0.0,0.0,0.0,0.0,0.0,0.0,0.0,0.0,0.0,0.0,0.0,0.0,0.0,0.0,0.0,0.0,0.0,0.0,0.0,0.0,0.0,0.0,0.0,0.0,0.0,0.0,0.0,0.0,0.0,0.0,0.0,0.0,0.0,0.0,0.0,0.0,0.0,0.0,0.0,0.0,0.0,0.0,0.0,0.0,0.0,0.0,0.0,0.0,0.0,0.0,0.0,0.0,0.0,0.0,0.0,0.0,0.0,0.0,0.0,0.0,0.0,0.0,0.0,0.0,0.0,0.0,0.0,0.0,0.0,0.0,0.0,0.0,0.0,0.0,0.0,0.0,0.0,0.0,0.0,0.0,0.0,0.0,0.0,0.0,0.0,0.0,0.0,0.0,0.0,0.0,0.0,0.0,0.0,0.0,0.0,0.0,0.0,0.0,0.0,0.0,0.0,0.0,0.0,0.0,0.0,0.0,0.0,0.0,0.0,0.0,0.0,0.0,0.0,0.0,0.0,0.0,0.0,0.0,0.0,0.0,0.0,0.0,0.0,0.0,0.0,0.0,0.0,0.0,0.0,0.0,0.0,0.0,0.0,0.0,0.0,0.0,0.0,0.0,0.0,0.0,0.0,0.0,0.0,0.0,0.0,0.0,0.0,0.0,0.0,0.0,0.0,0.0,0.0,0.0,0.0,0.0,0.0,0.0,0.0,0.0,0.0,0.0,0.0,0.0,0.0,0.0,0.0,0.0,0.0,0.0,0.0,0.0,0.0,0.0,0.0,0.0,0.0,0.0,0.0,0.0,0.0,0.0,0.0,0.0,0.0,0.0,0.0,0.0,0.0,0.0,0.0,0.0,0.0,0.0,0.0,0.0,0.0,0.0,0.0,0.0,0.0,0.0,0.0,0.0,0.0,0.0,0.0,0.0,0.0,0.0,0.0,0.0,0.0,0.0,0.0,0.0,0.0,0.0,0.0,0.0,0.0,0.0,0.0,0.0,0.0,0.0,0.0,0.0,0.0,0.0,0.0,0.0,0.0,0.0,0.0,0.0,0.0,0.0,0.0,0.0,0.0,0.0,0.0,0.0,0.0,0.0,0.0,0.0,0.0,0.0,0.0,0.0,0.0,0.0,0.0,0.0,0.0,0.0,0.0,0.0,0.0,0.0,0.0,0.0,0.0,0.0,0.0,0.0,0.0,0.0,0.0,0.0,0.0,0.0,0.0,0.0,0.0,0.0,0.0,0.0,0.0,0.0,0.0,0.0,0.0,0.0,0.0,0.0,0.0,0.0,0.0,0.0,0.0,0.0,0.0,0.0,0.0,0.0,0.0,0.0,0.0,0.0,0.0,0.0,0.0,0.0,0.0,0.0,0.0,0.0,0.0,0.0,0.0,0.0,0.0,0.0,0.0,0.0,0.0,0.0,0.0,0.0,0.0,0.0,0.0,0.0,0.0,0.0,0.0,0.0,0.0,0.0,0.0,0.0,0.0,0.0,0.0,0.0,0.0,0.0,0.0,0.0,0.0,0.0,0.0,0.0,0.0,0.0,0.0,0.0,0.0,0.0,0.0,0.0,0.0,0.0,0.0,0.0,0.0,0.0,0.0,0.0,0.0,0.0,0.0,0.0,0.0,0.0,0.0,0.0,0.0,0.0,0.0,0.0,0.0,0.0,0.0,0.0,0.0,0.0,0.0,0.0,0.0,0.0,0.0,0.0,0.0,0.0,0.0,0.0,0.0,0.0,0.0,0.0,0.0,0.0,0.0,0.0,0.0,0.0,0.0,0.0,0.0,0.0,0.0,0.0,0.0,0.0,0.0,0.0,0.0,0.0,0.0,0.0,0.0,0.0,0.0,0.0,0.0,0.0,0.0,0.0,0.0,0.0,0.0,0.0,0.0,0.0,0.0,0.0,0.0,0.0,0.0,0.0,0.0,0.0,0.0,0.0,0.0,0.0,0.0,0.0,0.0,0.0,0.0,0.0,0.0,0.0,0.0,0.0,0.0,0.0,0.0,0.0,0.0,0.0,0.0,0.0,0.0,0.0,0.0,0.0,0.0,0.0,0.0,0.0,0.0,0.0,0.0,0.0,0.0,0.0,0.0,0.0,0.0,0.0,0.0,0.0,0.0,0.0,0.0,0.0,0.0,0.0,0.0,0.0,0.0,0.0,0.0,0.0,0.0,0.0,0.0,0.0,0.0,0.0,0.0,0.0,0.0,0.0,0.0,0.0,0.0,0.0,0.0,0.0,0.0,0.0,0.0,0.0,0.0,0.0,0.0,0.0,0.0,0.0,0.0,0.0,0.0,0.0,0.0,0.0,0.0,0.0,0.0,0.0,0.0,0.0,0.0,0.0,0.0,0.0,0.0,0.0,0.0,0.0,0.0,0.0,0.0,0.0,0.0,0.0,0.0,0.0,0.0,0.0,0.0,0.0,0.0,0.0,0.0,0.0,0.0,0.0,0.0,0.0,0.0,0.0,0.0,0.0,0.0,0.0,0.0,0.0,0.0,0.0,0.0,0.0,0.0,0.0,0.0,0.0,0.0,0.0,0.0,0.0,0.0,0.0,0.0,0.0,0.0,0.0,0.0,0.0,0.0,0.0,0.0,0.0,0.0,0.0,0.0,0.0,0.0,0.0,0.0,0.0,0.0,0.0,0.0,0.0,0.0,0.0,0.0,0.0,0.0,0.0,0.0,0.0,0.0,0.0,0.0,0.0,0.0,0.0,0.0,0.0,0.0,0.0,0.0,0.0,0.0,0.0,0.0,0.0,0.0,0.0,0.0,0.0,0.0,0.0,0.0,0.0,0.0,0.0,0.0,0.0,0.0,0.0,0.0,0.0,0.0,0.0,0.0,0.0,0.0,0.0,0.0,0.0,0.0,0.0,0.0,0.0,0.0,0.0,0.0,0.0,0.0,0.0,0.0,0.0,0.0,0.0,0.0,0.0,0.0,0.0,0.0,0.0,0.0,0.0,0.0,0.0,0.0,0.0,0.0,0.0,0.0,0.0,0.0,0.0,0.0,0.0,0.0,0.0,0.0,0.0,0.0,0.0,0.0,0.0,0.0,0.0,0.0,0.0,0.0,0.0,0.0,0.0,0.0,0.0,0.0,0.0,0.0,0.0,0.0,0.0,0.0,0.0,0.0,0.0,0.0,0.0,0.0,0.0,0.0,0.0,0.0,0.0,0.0,0.0,0.0,0.0,0.0,0.0,0.0,0.0,0.0,0.0,0.0,0.0,0.0,0.0,0.0,0.0,0.0,0.0,0.0,0.0,0.0,0.0,0.0,0.0,0.0,0.0,0.0,0.0,0.0,0.0,0.0,0.0,0.0,0.0,0.0,0.0,0.0,0.0,0.0,0.0,0.0,0.0,0.0,0.0,0.0,0.0,0.0,0.0,0.0,0.0,0.0,0.0,0.0,0.0,0.0,0.0,0.0,0.0,0.0,0.0,0.0,0.0,0.0,0.0,0.0,0.0,0.0,0.0,0.0,0.0,0.0,0.0,0.0,0.0,0.0,0.0,0.0,0.0,0.0,0.0,0.0,0.0,0.0,0.0,0.0,0.0,0.0,0.0,0.0,0.0,0.0,0.0,0.0,0.0,0.0,0.0,0.0,0.0,0.0,0.0,0.0,0.0,0.0,0.0,0.0,0.0,0.0,0.0,0.0,0.0,0.0,0.0,0.0,0.0,0.0,0.0,0.0,0.0,0.0,0.0,0.0,0.0,0.0,0.0,0.0,0.0,0.0,0.0,0.0,0.0,0.0,0.0,0.0,0.0,0.0,0.0,0.0,0.0,0.0,0.0,0.0,0.0,0.0,0.0,0.0,0.0,0.0,0.0,0.0,0.0,0.0,0.0,0.0,0.0,0.0,0.0,0.0,0.0,0.0,0.0,0.0,0.0,0.0,0.0,0.0,0.0,0.0,0.0,0.0,0.0,0.0,0.0,0.0,0.0,0.0,0.0,0.0,0.0,0.0,0.0,0.0,0.0,0.0,0.0,0.0,0.0,0.0,0.0,0.0,0.0,0.0,0.0,0.0,0.0,0.0,0.0,0.0,0.0,0.0,0.0,0.0,0.0,0.0,0.0,0.0,0.0,0.0,0.0,0.0,0.0,0.0,0.0,0.0,0.0,0.0,0.0,0.0,0.0,0.0,0.0,0.0,0.0,0.0,0.0,0.0,0.0,1.6582,0.0,0.0,0.0,0.0,0.0,0.0,0.0,0.0,0.0,0.0,0.0,0.0,0.0,0.0,0.0,0.0,0.0,0.0,0.0,0.0,0.0,0.0,0.0,0.0,0.0,0.0,0.0,0.0,0.0,0.0,0.0,0.0,0.0,0.0,0.0,0.0,0.0,0.0,0.0,1.0855,1.0752,1.0646,0.9946,0.9442,0.9077,0.0,0.0,0.0,0.0,0.0,0.0,0.0,0.0,0.0,0.0,0.0,0.0,0.0,0.0,0.0,0.0,0.0,0.0,0.0,0.0,0.0,0.0,0.0,0.0,0.0,0.0,0.0,0.0,0.0,0.0,0.0,0.0,0.0,0.0,0.0,0.0,0.0,0.0,0.0,0.0,0.0,0.0,0.0,0.0,0.0,0.0,0.0,0.0,0.0,0.0,0.0,0.0,0.0,0.0,0.0,0.0,0.0,0.0,0.0,0.0,0.0,0.0,0.0,0.0,0.0,0.0,0.0,0.0,0.0,0.0,0.0,1.6774,0.0,0.0,0.0,0.0,0.0,0.0,0.0,0.0,0.0,0.0,0.0,0.0,0.0,0.0,0.0,0.0,0.0,0.0,0.0,0.0,0.0,0.0,0.0,0.0,0.0,0.0,0.0,0.0,0.0,0.0,0.0,0.0,0.0,0.0,0.0,0.0,0.0,0.0,1.1199,1.1008,1.0892,1.0723,1.0516,1.0208,0.902,0.0,0.0,0.0,0.0,0.0,0.0,0.0,0.0,0.0,0.0,0.0,0.0,0.0,0.0,0.0,0.0,0.0,0.0,0.0,0.0,0.0,0.0,0.0,0.0,0.0,0.0,0.0,0.0,0.0,0.0,0.0,0.0,0.0,0.0,0.0,0.0,0.0,0.0,0.0,0.0,0.0,0.0,0.0,0.0,0.0,0.0,0.0,0.0,0.0,0.0,0.0,0.0,0.0,0.0,0.0,0.0,0.0,0.0,0.0,0.0,0.0,0.0,0.0,1.841,1.8372,1.8372,1.8463,1.8433,1.8243,1.7639,1.7366,1.7352,0.0,0.0,0.0,0.0,0.0,0.0,0.0,0.0,0.0,0.0,0.0,0.0,0.0,0.0,0.0,0.0,0.0,0.0,0.0,0.0,0.0,0.0,0.0,0.0,0.0,0.0,0.0,0.0,0.0,0.0,0.0,0.0,0.0,0.0,1.3144,1.3002,1.215,1.2229,1.2328,1.2383,1.1584,1.1224,1.1238,0.9865,0.947,0.9819,0.0,0.0,0.0,0.0,0.0,0.0,0.0,0.0,0.0,0.0,0.0,0.0,0.0,0.0,0.0,0.0,0.0,0.0,0.0,0.0,0.0,0.0,0.0,0.0,0.0,0.0,0.0,0.0,0.0,0.0,0.0,0.0,0.0,0.0,0.0,0.0,0.0,0.0,0.0,0.0,0.0,1.7884,1.7863,0.0,0.0,0.0,0.0,0.0,0.0,0.0,0.0,0.0,0.0,0.0,0.0,0.0,1.9449,1.9262,1.9299,1.9221,1.9011,1.8993,1.8993,1.8993,1.8993,1.8993,1.8955,1.8879,0.0,1.7393,1.7289,0.0,0.0,0.0,0.0,0.0,0.0,0.0,0.0,0.0,0.0,0.0,0.0,0.0,0.0,0.0,0.0,0.0,0.0,0.0,0.0,0.0,0.0,0.0,0.0,0.0,0.0,0.0,0.0,0.0,0.0,0.0,0.0,1.2696,1.3022,1.2965,1.2474,1.2526,1.2503,1.2413,1.2003,1.1766,1.1627,1.075,1.0389,1.0413,0.9725,0.0,0.0,0.0,0.0,0.0,0.0,0.0,0.0,0.0,0.0,0.0,0.0,0.0,0.0,0.0,0.0,0.0,0.0,0.0,0.0,0.0,0.0,0.0,0.0,0.0,0.0,0.0,0.0,0.0,0.0,0.0,0.0,0.0,0.0,0.0,0.0,0.0,0.0,0.0,1.8582,1.8848,1.907,1.9086,1.9062,0.0,0.0,0.0,0.0,0.0,0.0,0.0,0.0,0.0,1.9573,1.9839,1.9977,1.9975,1.9993,1.9975,1.9889,1.9889,1.9889,1.9889,1.9889,1.9767,1.9555,1.9515,1.8873,1.7847,1.8021,1.7736,1.7253,0.0,0.0,0.0,0.0,1.7967,1.8185,0.0,0.0,0.0,0.0,0.0,0.0,0.0,0.0,0.0,0.0,0.0,0.0,0.0,0.0,0.0,1.3699,0.0,0.0,0.0,0.0,0.0,0.0,0.0,1.3011,1.2704,1.2766,1.2904,1.3106,1.2946,1.2837,1.2815,1.2564,1.2359,1.2127,1.153,1.1112,1.0785,1.0288,0.9946,0.9685,0.0,0.0,0.0,0.0,0.0,0.0,0.0,0.0,0.0,0.0,0.0,0.0,0.0,0.0,0.0,0.0,0.0,0.0,0.0,0.0,0.0,0.0,0.0,0.0,0.0,0.0,0.0,0.0,0.0,0.0,0.0,0.0,0.0,0.0,0.0,0.0,0.0,1.9642,1.9681,1.9962,1.9737,1.9576,0.0,0.0,0.0,0.0,0.0,0.0,1.9358,1.9526,1.9611,1.9613,1.9815,1.9933,1.9963,1.9996,2.0063,2.0161,2.0161,2.0161,2.0161,2.0161,1.9999,1.9689,1.9653,1.916,1.8399,1.8462,1.8039,1.7408,1.7702,1.7478,1.7079,1.7721,1.8129,1.8407,0.0,0.0,0.0,0.0,0.0,0.0,0.0,0.0,0.0,0.0,0.0,0.0,0.0,0.0,1.555,1.5309,1.5323,1.5245,0.0,0.0,0.0,1.4585,1.4597,1.4087,1.2993,1.2683,1.3184,1.4496,1.387,1.3869,1.4462,1.3562,1.3134,1.3092,1.218,1.1445,1.0874,1.0459,1.0137,0.9873,0.9626,0.0,0.0,0.0,0.0,0.0,0.0,0.0,0.0,0.0,0.0,0.0,0.0,0.0,0.0,0.0,0.0,0.0,0.0,0.0,0.0,0.0,0.0,0.0,0.0,0.0,0.0,0.0,0.0,0.0,0.0,0.0,0.0,0.0,0.0,0.0,0.0,0.0,0.0,2.0495,2.0548,0.0,0.0,0.0,0.0,1.8831,1.8245,1.7964,1.8156,1.8783,1.8878,1.8314,1.9025,1.9232,1.8787,1.8906,1.9065,1.9274,1.9274,1.9274,1.9274,1.9274,1.9218,1.9133,1.9149,1.9076,1.8919,1.8363,1.769,1.703,1.7041,1.7027,1.7049,1.7466,1.7629,1.7709,0.0,0.0,0.0,0.0,0.0,0.0,0.0,0.0,0.0,0.0,0.0,0.0,0.0,1.5776,1.5836,1.5729,1.5717,1.5451,1.4811,0.0,0.0,1.4077,1.4047,1.4146,1.4351,1.4608,1.5051,1.5631,1.543,1.5341,1.5378,1.5114,1.4751,1.4285,1.3937,1.3375,1.2633,1.1587,1.1378,1.1727,1.1263,1.0744,0.0,0.0,0.0,0.0,0.0,0.0,0.0,0.0,0.0,0.0,0.0,0.0,0.0,0.0,0.0,0.0,0.0,0.0,0.0,0.0,0.0,0.0,0.0,0.0,0.0,0.0,0.0,0.0,0.0,0.0,0.0,0.0,0.0,0.0,0.0,0.0,0.0,2.043,2.0412,0.0,1.971,1.9303,1.91,1.9115,1.8865,1.8752,1.8869,1.9108,1.9153,1.8986,1.9241,1.9285,1.902,1.9153,1.9253,1.932,1.9375,1.9372,1.9331,1.9331,1.929,1.9237,1.9237,1.8952,1.8464,1.8207,1.782,1.741,1.7664,1.7509,1.7225,1.7961,1.8238,1.8284,0.0,0.0,0.0,0.0,0.0,0.0,0.0,0.0,0.0,0.0,0.0,1.5847,1.6115,1.6224,1.6192,1.5968,1.5937,1.5634,1.4887,0.0,0.0,1.4259,1.4326,1.4742,1.5551,1.5905,1.6291,1.671,1.6664,1.6633,1.6639,1.6573,1.628,1.5804,1.5311,1.4915,1.4502,1.3304,1.285,1.293,1.2563,1.2142,1.1778,0.0,0.0,0.0,0.0,0.0,0.0,0.0,0.0,0.0,0.0,0.0,0.0,0.0,0.0,0.0,0.0,0.0,0.0,0.0,0.0,0.0,0.0,0.0,0.0,0.0,0.0,0.0,0.0,0.0,0.0,0.0,0.0,0.0,0.0,0.0,2.0842,2.0065,2.0054,1.99,1.9383,1.9067,1.8893,1.8893,1.8667,1.8537,1.8588,1.883,1.8974,1.9031,1.9247,1.9402,1.9464,1.9551,1.9651,1.9744,1.9779,1.9775,1.9749,1.9749,1.971,1.9661,1.9618,1.9329,1.886,1.8667,1.8481,1.8235,1.7926,1.7514,1.7199,1.7822,1.8053,1.8127,0.0,0.0,0.0,0.0,0.0,0.0,0.0,0.0,0.0,0.0,1.6049,1.6622,1.6448,1.6821,1.6784,1.6057,1.5992,1.5782,1.5328,1.5025,0.0,1.5348,1.5654,1.605,1.6568,1.6397,1.6788,1.776,1.7455,1.7654,1.8283,1.7815,1.7575,1.751,1.6143,1.5817,1.6231,1.5451,1.4426,1.3356,1.3453,1.3485,1.3453,0.0,0.0,0.0,0.0,0.0,0.0,0.0,0.0,0.0,0.0,0.0,0.0,0.0,0.0,0.0,0.0,0.0,0.0,0.0,0.0,0.0,0.0,0.0,0.0,0.0,0.0,0.0,0.0,0.0,0.0,0.0,0.0,0.0,2.0357,2.0572,2.0403,1.9413,1.9531,1.9542,1.9191,1.851,1.8101,1.8101,1.7559,1.7261,1.7261,1.7971,1.8374,1.8374,1.8962,1.9515,1.998,1.9959,2.0067,2.0337,2.0349,2.0349,2.0337,2.0337,2.0343,2.0324,2.0206,2.0145,2.011,1.9725,1.9565,1.9406,1.7717,1.707,1.707,1.7083,1.7079,1.721,0.0,0.0,0.0,0.0,0.0,0.0,0.0,0.0,0.0,0.0,1.6378,1.6619,1.7009,1.6648,1.6279,1.6083,1.5715,1.5428,1.5299,0.0,0.0,1.7012,1.7712,1.8153,1.8304,1.8499,1.8782,1.9154,1.8436,1.8076,1.8,1.7494,1.7085,1.6784,1.6407,1.6123,1.5926,1.5594,1.5069,1.4521,1.5219,1.5274,1.495,0.0,0.0,0.0,0.0,0.0,0.0,0.0,0.0,0.0,0.0,0.0,0.0,0.0,0.0,0.0,0.0,0.0,0.0,0.0,0.0,0.0,0.0,0.0,0.0,0.0,0.0,0.0,0.0,0.0,0.0,0.0,0.0,2.0664,2.0591,2.0377,1.9916,1.9098,1.9088,1.8894,1.8313,1.8042,1.7908,1.8018,1.8316,1.8549,1.8647,1.9401,1.9821,1.9811,1.9481,1.9358,1.9481,1.9111,1.8951,1.9024,1.917,1.914,1.8951,1.9048,1.8997,1.8806,1.892,1.8969,1.8969,1.8857,1.8797,1.8792,1.8649,1.8611,1.8624,1.8812,1.8756,1.8586,0.0,0.0,0.0,0.0,0.0,0.0,0.0,0.0,0.0,0.0,1.6251,1.6504,1.6772,1.6517,1.6255,1.6158,1.5861,1.5859,1.6289,0.0,1.8006,1.8514,1.9141,1.9492,1.9591,1.9409,1.9364,1.9448,1.8736,1.8305,1.8108,1.7718,1.744,1.7204,1.6898,1.661,1.6322,1.6077,1.5878,1.5739,1.629,1.6156,1.5665,1.5936,1.6007,1.5932,1.6043,1.6077,1.6065,1.6027,0.0,0.0,0.0,0.0,0.0,0.0,0.0,0.0,0.0,0.0,0.0,0.0,0.0,0.0,0.0,0.0,0.0,0.0,0.0,0.0,0.0,0.0,0.0,0.0,2.0982,2.0503,2.0272,1.9836,1.927,1.8538,1.846,1.8359,1.8059,1.8327,1.8444,1.827,1.8944,1.9254,1.899,1.9457,1.988,2.0177,1.9776,1.9688,2.002,1.9703,1.9545,1.9545,1.9674,1.9645,1.9494,1.9558,1.9517,0.0,1.9469,1.9507,1.9502,1.948,1.9459,0.0,0.0,0.0,0.0,0.0,1.9236,1.9337,0.0,0.0,0.0,0.0,0.0,0.0,0.0,0.0,0.0,0.0,0.0,1.6294,1.6112,1.6361,1.6473,1.6226,1.6236,1.6709,0.0,1.9138,1.9902,1.9904,2.0159,2.0322,2.0392,1.9634,1.9179,1.9069,1.8578,1.8342,1.8342,1.8145,1.8038,1.7992,1.7332,1.704,1.7021,1.6619,1.6548,1.6698,1.6684,1.6391,1.5942,1.6067,1.6458,1.7003,1.7275,1.7119,1.6866,1.73,0.0,0.0,0.0,0.0,0.0,0.0,0.0,0.0,0.0,0.0,0.0,0.0,0.0,0.0,0.0,0.0,0.0,0.0,0.0,0.0,0.0,0.0,0.0,0.0,2.0656,2.0131,1.9672,1.9234,1.875,1.8076,1.8057,1.8177,1.835,1.908,1.9282,1.8665,1.939,1.9571,1.8866,0.0,0.0,0.0,0.0,2.02,2.0872,2.0815,2.0782,2.0802,2.0832,2.0825,2.0825,2.0835,2.0835,2.0832,2.0774,2.0743,2.0758,2.0695,2.0636,2.0449,1.923,1.878,1.8782,1.8731,1.9109,1.9663,0.0,0.0,0.0,0.0,0.0,0.0,0.0,0.0,0.0,1.6004,1.6091,1.6084,1.6101,1.6219,1.6262,1.621,1.6412,1.7225,1.8875,1.9892,2.067,2.1214,2.1379,2.1076,2.025,2.0135,1.9662,1.8852,1.8337,1.8029,1.7908,1.739,1.7056,1.6896,1.6756,1.6701,1.6657,1.633,1.6113,1.5995,1.5979,1.6307,1.6761,1.681,1.7054,1.7418,1.7689,1.7849,1.8016,1.8323,1.8522,1.8664,1.8773,0.0,0.0,0.0,0.0,0.0,0.0,0.0,0.0,0.0,0.0,0.0,0.0,0.0,0.0,0.0,0.0,0.0,0.0,0.0,0.0,2.1753,2.0649,1.971,1.9605,1.9517,1.9416,1.9276,1.9311,1.9373,1.9414,1.9616,1.9446,1.8731,1.9398,1.9781,1.9676,2.0235,0.0,2.0776,2.021,1.9961,2.0103,1.9641,1.9441,1.9547,0.0,0.0,1.9715,1.9874,1.9863,1.9706,1.9808,1.9845,1.9856,1.9837,1.9782,1.9785,2.0248,2.0505,2.0537,2.0038,1.9966,2.002,0.0,0.0,0.0,0.0,0.0,0.0,0.0,0.0,0.0,0.0,1.544,1.5483,1.5672,1.5846,1.601,1.6194,1.7296,1.8462,1.9518,2.0857,2.1768,2.2139,2.1703,2.1222,2.0713,1.9899,1.9273,1.8788,1.8257,1.797,1.7889,1.7461,1.7195,1.7085,1.6932,1.684,1.684,1.6744,1.6665,1.6587,1.6533,1.682,1.7269,1.695,1.7131,1.7569,1.7707,1.7841,1.8051,1.8725,1.9056,1.9273,1.971,1.9991,2.0112,0.0,0.0,0.0,0.0,0.0,0.0,0.0,0.0,0.0,0.0,0.0,0.0,0.0,0.0,2.144,0.0,0.0,2.0946,2.0947,2.0601,2.0253,2.0,2.0297,2.0316,1.9678,1.9656,1.9747,1.9883,1.9922,1.9694,1.9055,1.9705,2.002,1.9717,2.0053,2.0287,2.0345,1.9963,1.9778,1.9792,1.9478,1.9346,1.946,1.9553,1.9586,1.9549,1.9645,1.965,1.9541,1.9612,1.965,1.9656,1.9617,1.9618,1.9694,2.0131,2.0268,2.0203,1.9914,1.9792,1.9753,0.0,0.0,0.0,0.0,0.0,0.0,0.0,0.0,0.0,0.0,1.4816,1.4934,1.5255,1.5551,1.5868,0.0,1.8194,1.9557,1.9874,2.1608,2.2646,2.2699,2.1733,2.1138,2.1002,1.9599,1.8785,1.8645,1.8278,1.8081,1.8027,1.7822,1.7704,1.767,1.7401,1.7261,1.7273,1.7402,1.746,1.7477,1.7442,1.7524,1.762,1.7173,1.7236,1.7593,1.7746,1.7791,1.7913,1.8936,1.9327,1.9547,2.0416,2.0783,2.091,2.0991,2.1039,0.0,0.0,0.0,0.0,0.0,0.0,0.0,0.0,0.0,2.1874,2.2695,2.2017,2.145,2.2036,2.1322,2.0558,2.0291,2.067,2.0909,2.0662,2.1171,2.1205,2.017,2.0089,2.0132,2.0237,2.0254,2.0005,1.9396,1.9963,2.0099,1.9571,1.9538,1.9573,1.9682,1.9644,1.9644,1.9682,1.9644,1.9663,1.9738,1.9738,1.975,1.9774,1.9774,1.9774,1.9774,1.9762,1.9768,1.9793,1.9713,1.9775,1.9871,1.9811,1.9694,1.9532,1.9495,1.9492,1.9492,0.0,0.0,0.0,0.0,0.0,0.0,0.0,0.0,0.0,0.0,0.0,0.0,0.0,0.0,0.0,1.6517,1.8356,1.9611,1.9874,2.1643,2.2685,2.2699,2.1949,2.1121,2.0237,1.97,1.8974,1.809,1.8329,1.8352,1.8179,1.8142,1.8078,1.7961,1.7911,1.79,1.7911,1.799,1.7913,1.7793,1.8135,1.8142,1.7969,1.8005,1.7828,1.7595,1.8253,1.8416,1.8434,1.9268,1.964,1.988,2.07,2.1099,2.1268,2.1402,0.0,2.1601,2.1134,2.1535,2.215,2.2391,2.2699,2.2938,0.0,0.0,2.2925,2.3042,2.244,2.1978,2.2234,2.1087,2.0404,2.1352,2.0967,2.0836,2.1619,2.1803,2.1803,2.1662,2.1596,2.1338,2.0782,2.0786,2.0457,1.9621,1.964,1.9692,1.9688,1.9676,1.9663,1.96,1.9663,1.967,1.96,1.9663,1.975,1.989,1.989,1.9944,2.006,2.006,2.006,2.0055,1.9996,2.0031,2.0144,2.0069,2.0084,2.0143,2.0149,2.0088,2.001,1.9818,1.977,1.977,0.0,0.0,0.0,0.0,0.0,0.0,0.0,0.0,0.0,0.0,0.0,0.0,0.0,0.0,0.0,1.6282,1.7695,1.8959,1.9844,2.1104,2.2103,2.2681,2.1544,2.0734,2.0401,1.9349,1.8638,1.8287,1.8435,1.8463,1.8373,1.8375,1.8328,1.8284,1.8284,1.8315,1.8358,1.845,1.8481,1.8446,1.8584,1.8642,1.8645,1.8616,1.8513,1.8346,1.8154,1.8074,0.0,0.0,1.9207,1.9428,2.0212,2.0552,2.0667,2.0733,2.1123,0.0,2.195,2.2432,2.2848,0.0,2.311,2.3336,2.3336,2.3265,2.3306,2.3621,2.263,2.194,2.2692,2.1488,2.0718,0.0,2.1926,2.2155,2.2547,2.2609,2.2454,2.2055,2.1604,2.1198,2.0826,2.039,1.9989,1.9635,1.9597,1.9643,1.9751,1.9756,1.9792,1.9838,1.986,1.9877,1.9888,1.9925,1.9987,2.0083,2.0105,2.0163,2.0219,2.0219,2.0219,2.0219,2.0184,2.0215,2.0246,2.0195,2.0163,2.0195,2.0161,2.0125,2.0084,2.0014,1.9977,1.9977,0.0,0.0,0.0,0.0,0.0,0.0,0.0,0.0,0.0,0.0,0.0,0.0,0.0,0.0,1.5781,1.5977,1.7151,1.8429,1.9707,2.0668,2.1655,2.2651,2.1246,2.0477,2.0604,1.9112,1.8378,1.8495,1.8571,1.8544,1.8495,1.8593,1.863,1.86,1.8631,1.8678,1.8688,1.8834,1.8887,1.8895,1.8887,1.8975,1.9099,1.9007,1.9017,1.8983,1.8303,1.807,1.8142,1.8663,1.8863,1.9067,1.9861,2.0148,2.0229,2.0385,2.0782,2.1411,2.2433,2.2923,0.0,2.3385,2.358,2.3718,2.3718,2.3649,2.3696,2.4078,2.2978,2.218,2.3026,2.1988,2.1311,2.2139,2.2788,2.3159,2.3227,2.3039,2.2626,2.1968,2.1199,2.0709,2.0646,2.0076,1.9726,1.9745,1.9738,1.9787,1.9909,1.9925,1.9977,2.0036,2.005,2.0097,2.013,2.0146,2.0179,2.0235,2.0276,2.0297,2.0297,2.0299,2.0296,2.0295,2.0305,2.0311,2.0326,2.0263,2.025,2.0279,2.0225,2.0204,2.0208,2.0208,2.0163,2.0131,0.0,0.0,0.0,0.0,0.0,0.0,0.0,0.0,0.0,0.0,0.0,0.0,0.0,0.0,1.5695,1.571,1.7056,1.8362,1.9437,2.0558,2.1655,2.2651,2.1278,2.0535,2.0604,1.915,1.8426,1.8495,1.8695,1.8695,1.8505,1.8825,1.8913,1.8797,1.8982,1.9016,1.8904,1.9023,1.9024,1.8913,1.9035,1.9094,1.9107,1.9176,1.9235,1.9259,1.9031,1.8886,1.878,1.8869,1.894,1.9128,1.9866,2.0155,0.0,2.0815,2.0947,2.1148,2.2223,2.2605,2.2966,2.3989,2.4266,2.4275,2.4275,2.4266,2.4275,2.4284,2.3638,2.3056,2.3101,2.2416,2.2176,2.3114,2.3279,2.3359,2.3571,2.2858,2.2072,2.1403,2.0567,2.0073,0.0,2.0078,2.0007,2.0074,2.0083,2.0115,2.0184,2.0246,2.0223,2.0096,2.0219,2.0269,2.0204,2.0249,2.0294,2.0294,2.0294,2.0297,2.0297,2.0304,2.0303,2.0307,2.0307,2.0344,2.0395,2.0322,2.0371,2.048,2.0495,2.0494,2.0494,2.0494,2.0313,2.0232,0.0,0.0,0.0,0.0,0.0,0.0,0.0,0.0,0.0,0.0,0.0,0.0,0.0,0.0,0.0,0.0,1.6249,1.7255,1.8365,1.9545,2.0668,2.1721,2.0953,2.0547,2.0673,1.9308,1.8639,1.8704,1.8769,1.8816,1.8825,1.8861,1.8913,1.899,1.9074,1.9064,1.9041,1.9091,1.9064,1.9031,1.918,1.9238,1.924,1.9364,1.9372,1.9285,0.0,1.914,1.9051,1.9,1.9048,1.9162,1.9378,1.9486,1.9666,2.0291,2.0581,2.0888,2.1671,0.0,2.2336,2.327,2.3491,2.3647,2.4183,2.4375,2.4461,2.4548,2.3939,2.3562,2.4174,2.3632,2.3378,2.4226,2.4433,2.4525,2.4593,2.3429,2.2479,2.2196,2.0953,0.0,0.0,0.0,0.0,2.015,2.0163,2.0421,2.1029,2.0542,2.0743,2.1861,2.085,2.0565,2.1124,2.0621,2.0366,2.0363,2.0402,2.043,2.043,2.0422,2.0432,2.0421,2.0437,2.0457,2.046,2.0433,2.0468,2.0506,2.0504,2.0501,2.0498,2.0498,2.0447,2.0487,0.0,0.0,0.0,0.0,0.0,0.0,0.0,0.0,0.0,0.0,0.0,0.0,0.0,0.0,0.0,0.0,0.0,1.6637,1.7679,1.8643,1.9673,2.0828,2.0305,2.0085,2.0265,1.9257,1.8724,1.8695,1.8887,1.8957,1.893,1.9042,1.9134,1.9214,1.9271,1.9263,1.9214,1.9212,1.9172,1.9115,1.9193,1.93,1.9383,1.9409,1.9405,0.0,1.9398,1.9387,1.9327,1.924,1.9298,1.9378,1.9388,1.9437,1.9576,1.9996,2.0273,2.0569,2.1306,2.1552,2.1827,2.269,2.2922,2.3053,2.3568,2.3982,2.4267,2.4355,2.4217,2.4256,2.4854,2.4544,2.436,2.4892,2.5036,2.5004,2.4706,2.3514,2.2551,2.2287,2.1041,2.0246,0.0,0.0,0.0,2.0681,2.0419,2.0639,2.1483,2.076,2.0804,2.1903,2.091,2.0648,2.1202,2.0694,2.0443,2.0443,2.0472,2.0498,2.0501,2.0502,2.0504,2.0545,2.0877,2.0994,2.0992,2.0991,2.1006,2.0962,2.0668,2.0549,2.0547,2.0547,2.0547,2.0662,0.0,0.0,0.0,0.0,0.0,0.0,0.0,0.0,0.0,0.0,0.0,0.0,0.0,0.0,0.0,0.0,0.0,0.0,1.7368,1.7893,1.8709,1.9937,1.9421,1.9224,1.9499,1.9047,1.8714,1.8532,1.9033,1.9125,1.8843,1.932,1.9511,1.9413,1.9603,1.9576,1.939,1.9398,1.9271,1.9107,1.9123,1.9266,1.9489,1.936,1.9383,1.9492,1.956,1.9605,1.9593,1.9606,1.967,1.9744,1.986,1.9941,1.9992,2.0006,2.0055,2.0256,2.1027,2.1247,2.1434,2.2315,2.2525,2.2544,2.2596,2.3193,2.3757,2.3801,2.4467,2.5052,0.0,0.0,2.5101,2.5113,2.5111,2.4856,2.4096,2.3223,2.246,0.0,0.0,0.0,0.0,0.0,0.0,2.1543,0.0,2.0758,2.1559,2.0895,2.0502,2.0532,2.0506,2.0515,2.0575,2.0537,2.0537,2.0576,2.0576,2.058,2.0624,2.0625,2.0663,2.0774,2.1594,2.1965,2.1946,2.1911,2.1893,2.1815,2.0937,2.0605,2.0605,2.0605,2.0625,2.0761,0.0,0.0,0.0,0.0,0.0,0.0,0.0,0.0,0.0,0.0,0.0,0.0,0.0,0.0,0.0,0.0,0.0,0.0,1.6314,1.7306,1.8106,1.8581,1.893,1.919,1.9419,1.9008,1.8769,1.8723,1.8861,1.9008,1.9164,1.9115,1.9219,1.9475,1.9475,1.9427,1.934,1.9323,1.9277,1.9192,1.9338,1.9391,1.935,1.9412,1.9416,1.9361,1.9536,1.9604,1.9612,1.978,1.9893,1.9996,2.0045,2.006,2.0055,2.0002,2.0011,2.0088,2.0341,2.036,2.0532,2.1415,2.1625,2.1792,2.2449,2.2713,2.304,2.3793,2.4047,2.4358,0.0,0.0,0.0,2.5327,2.5365,0.0,2.5188,2.4361,0.0,2.3623,0.0,2.1379,2.143,2.0854,0.0,0.0,2.0961,2.083,2.1623,2.0929,2.1083,2.2368,2.1167,2.0809,2.1463,2.0878,2.0895,2.1539,2.1541,2.1854,2.2438,2.2437,2.2429,2.2407,2.2615,2.2718,2.2676,2.2067,2.183,2.1742,2.0915,2.0605,2.0605,2.0605,2.1016,2.1504,0.0,0.0,0.0,0.0,0.0,0.0,0.0,0.0,0.0,0.0,0.0,0.0,0.0,0.0,0.0,0.0,0.0,0.0,0.0,1.674,1.7279,1.7604,1.8061,1.8484,1.8873,1.8745,1.8677,1.8676,1.8825,1.8965,1.9113,1.9056,1.9188,1.9453,1.9439,1.9387,1.9303,1.9334,1.9303,0.0,0.0,1.9405,1.939,1.9405,1.9405,1.9412,1.9624,0.0,0.0,0.0,0.0,2.0195,2.0188,2.019,2.0184,2.0146,0.0,2.0186,2.0184,2.0184,2.0299,2.0783,2.0918,2.1029,2.1519,2.1894,2.2411,2.3332,2.3759,0.0,2.5204,2.5394,0.0,0.0,0.0,0.0,2.5582,2.4817,2.4265,0.0,2.3097,0.0,2.1832,2.1367,2.1116,0.0,2.0773,2.0861,2.1696,2.0956,2.0946,2.1926,2.1011,2.0937,2.1834,2.175,2.1941,2.243,2.2434,2.2667,2.309,2.3067,2.305,2.3015,0.0,2.3348,2.2963,2.2507,2.2119,2.1744,2.1266,2.1097,2.1179,2.1529,2.1958,2.2252,0.0,0.0,0.0,0.0,0.0,0.0,0.0,0.0,0.0,0.0,0.0,0.0,0.0,0.0,0.0,0.0,0.0,0.0,0.0,0.0,0.0,1.6843,1.7105,1.7516,1.8082,1.8306,1.8422,1.8426,1.8744,1.8886,1.886,1.9056,1.9238,1.9375,1.9413,1.9372,1.9274,1.9349,1.9344,1.9308,1.929,1.9368,1.9451,0.0,0.0,0.0,0.0,0.0,0.0,0.0,2.03,2.0292,2.0292,2.0295,2.0294,2.0294,2.0337,2.0376,2.0331,2.0354,2.0402,2.0402,2.0399,2.0399,2.0399,2.1079,2.1913,2.2729,0.0,2.4469,2.5334,2.5501,2.5524,2.5601,0.0,2.5593,2.5616,2.4942,2.4481,2.4482,2.3728,2.2876,2.2042,2.1886,2.1457,2.0579,2.0501,2.0831,2.1588,2.0928,2.0564,2.0683,2.0683,2.113,2.2056,2.276,2.3152,2.3273,2.3272,2.3325,2.3431,2.3374,2.3346,2.3361,0.0,0.0,2.3133,2.2918,2.2409,2.1779,2.1724,2.1745,2.1873,2.2569,2.29,2.2882,0.0,0.0,0.0,0.0,0.0,0.0,0.0,0.0,0.0,0.0,0.0,0.0,0.0,0.0,0.0,0.0,0.0,0.0,0.0,0.0,0.0,0.0,1.67,1.7183,1.7446,1.7866,1.8085,1.8091,1.8249,1.8444,1.8663,1.8789,1.9001,1.9224,1.9198,1.9164,1.9148,1.9274,1.9316,1.9308,1.9311,1.9305,1.9335,0.0,0.0,0.0,0.0,0.0,0.0,0.0,2.0208,2.0308,2.0292,2.0292,2.0292,2.029,2.0311,2.0331,2.0376,2.0399,2.0402,2.0402,2.0354,2.0331,2.0399,2.1039,0.0,0.0,2.3585,2.4474,2.5334,2.5501,2.5537,2.5654,2.5642,2.5624,2.568,2.5506,2.5403,0.0,2.4686,0.0,0.0,0.0,0.0,0.0,0.0,2.0623,2.0722,2.0624,2.0911,2.163,2.167,2.2059,2.2877,2.3033,2.3465,2.4172,2.4178,2.4543,2.5248,2.5178,2.5112,2.5024,2.4458,0.0,2.3798,2.2417,2.1784,2.1714,2.1707,2.1733,2.1815,2.1884,2.2374,2.2872,0.0,0.0,0.0,0.0,0.0,0.0,0.0,0.0,0.0,0.0,1.6836,1.719,0.0,0.0,0.0,0.0,0.0,0.0,0.0,0.0,0.0,0.0,0.0,0.0,0.0,1.7526,1.7749,1.7994,0.0,1.8229,1.8395,1.8489,1.8641,1.8834,1.8948,1.8948,1.8851,1.9174,1.923,1.9158,1.9251,1.9323,0.0,0.0,0.0,0.0,0.0,0.0,0.0,0.0,2.0134,2.021,2.0273,2.0304,2.0306,2.0308,2.0321,2.0354,2.0399,2.0376,2.0354,2.0354,2.0321,2.0314,2.0331,0.0,0.0,0.0,2.3589,2.4462,2.5334,2.5529,0.0,2.5682,2.5669,2.5655,2.5703,2.5662,0.0,2.5702,2.533,0.0,0.0,0.0,0.0,0.0,0.0,2.0596,2.0543,2.1006,2.1445,2.1838,2.2699,2.3316,2.3667,2.416,2.4615,2.5018,2.5028,2.5231,2.5589,2.5561,2.5508,2.541,2.4528,0.0,2.338,2.2114,2.1375,2.1077,2.149,2.1685,2.1789,2.2186,2.2888,2.3498,0.0,0.0,0.0,0.0,0.0,0.0,0.0,1.4157,1.5217,1.6714,1.7239,1.7616,1.8007,1.8354,0.0,0.0,0.0,0.0,0.0,0.0,0.0,0.0,0.0,0.0,0.0,0.0,0.0,1.7692,1.7805,0.0,0.0,0.0,0.0,0.0,1.8716,1.8762,1.8642,1.9041,1.9089,0.0,0.0,1.9246,0.0,0.0,0.0,0.0,0.0,0.0,0.0,0.0,2.0088,2.0124,2.0262,2.0306,2.0304,2.0299,2.035,2.0399,2.0379,2.0334,2.0305,2.0302,2.0318,2.0372,2.0537,2.1243,0.0,2.2997,2.3867,2.4689,2.5393,2.5556,2.5616,0.0,2.5701,2.5703,2.5703,2.5702,2.57,0.0,2.5694,0.0,0.0,0.0,0.0,0.0,0.0,0.0,2.0859,2.1497,2.2008,2.2304,2.3597,2.4343,2.4494,2.5227,2.5593,2.5593,2.5591,2.5554,2.5501,2.5496,2.5467,2.5343,2.4481,0.0,0.0,2.2238,2.1515,2.1021,2.1812,2.2186,2.2304,2.2958,2.3612,2.4099,0.0,0.0,0.0,0.0,0.0,0.0,0.0,1.439,1.5603,1.6443,1.7759,1.8535,1.8226,1.8106,0.0,0.0,0.0,0.0,0.0,0.0,0.0,0.0,0.0,0.0,0.0,0.0,0.0,1.6725,1.698,0.0,0.0,0.0,0.0,0.0,0.0,1.8642,1.8706,1.8807,0.0,0.0,0.0,0.0,0.0,0.0,0.0,0.0,0.0,0.0,0.0,0.0,0.0,2.0121,2.0258,2.0308,2.0302,2.0304,0.0,0.0,2.0331,2.0308,2.0302,2.0304,2.035,2.0588,2.1317,0.0,2.3027,2.3894,2.4776,2.542,2.5559,2.5598,2.5624,0.0,0.0,2.5703,2.5703,2.5701,2.57,2.57,0.0,0.0,0.0,0.0,0.0,0.0,0.0,0.0,2.1696,2.1703,2.2418,2.3931,2.4128,2.4619,2.5463,2.5563,2.5598,2.5604,2.5535,2.5514,2.5501,2.5494,2.5464,2.5343,2.4532,0.0,0.0,2.3141,2.2747,2.2742,2.3555,2.391,2.3983,2.4042,2.4123,2.4196,0.0,0.0,0.0,0.0,0.0,0.0,0.0,1.4278,1.5419,1.663,1.7721,1.8571,1.9108,1.8523,0.0,0.0,0.0,0.0,0.0,0.0,0.0,0.0,0.0,0.0,0.0,0.0,0.0,1.661,1.6789,0.0,0.0,0.0,0.0,0.0,0.0,1.7907,1.7881,0.0,0.0,0.0,0.0,0.0,0.0,0.0,0.0,0.0,0.0,0.0,0.0,0.0,0.0,0.0,2.0118,2.0215,0.0,0.0,2.0324,2.0328,2.0314,2.0301,2.0317,2.0354,2.073,2.1229,2.1575,0.0,2.377,2.4138,2.4892,2.5511,2.5531,2.5561,2.5611,0.0,0.0,0.0,2.6484,2.6932,2.7067,2.6541,0.0,0.0,0.0,0.0,0.0,0.0,0.0,0.0,2.3133,2.3193,2.3497,2.4115,2.4658,2.5089,2.5414,2.5464,2.5487,2.5482,2.5494,2.549,2.5498,2.5503,2.5484,2.5418,2.4567,0.0,0.0,2.3265,2.2905,2.2939,2.3253,2.3392,2.3422,2.3415,2.3747,2.4196,0.0,0.0,0.0,0.0,0.0,0.0,1.3331,1.4274,1.5326,1.6466,1.7507,1.8449,1.9233,1.8656,1.7966,1.7316,0.0,0.0,0.0,0.0,0.0,0.0,0.0,0.0,0.0,0.0,0.0,1.6382,1.6501,1.6567,0.0,0.0,1.6939,1.701,0.0,0.0,0.0,0.0,0.0,0.0,0.0,0.0,0.0,0.0,0.0,0.0,0.0,0.0,0.0,0.0,0.0,0.0,0.0,0.0,0.0,0.0,2.0672,2.0743,2.0996,2.1054,2.1047,2.1094,2.155,2.2068,0.0,0.0,2.4273,2.4525,2.5066,2.5496,2.5503,2.5543,2.5683,2.5949,0.0,2.709,2.7344,2.7908,2.7985,0.0,0.0,0.0,0.0,0.0,0.0,0.0,0.0,0.0,0.0,2.4377,2.4497,2.4454,2.5056,2.5367,2.5332,2.5373,2.5415,2.5427,2.5476,2.5507,2.5507,2.5507,2.5507,2.5468,0.0,0.0,0.0,2.391,2.3663,2.3674,2.3674,2.3674,2.3674,2.3674,2.406,2.4583,0.0,0.0,0.0,0.0,0.0,0.0,0.0,1.4454,1.5545,1.5687,1.7146,1.8193,1.8229,1.8216,1.7978,1.7436,0.0,0.0,0.0,0.0,0.0,0.0,0.0,0.0,0.0,0.0,0.0,1.5914,1.5983,1.6038,1.6109,1.6528,1.6735,1.6815,0.0,0.0,0.0,0.0,0.0,0.0,0.0,0.0,0.0,0.0,0.0,0.0,0.0,0.0,0.0,0.0,0.0,0.0,0.0,2.0055,2.0291,2.1285,2.1593,2.1775,2.2636,2.2828,2.2765,2.2763,2.2833,2.3097,0.0,0.0,2.4442,2.5306,2.5488,2.5495,2.5508,2.5549,2.5887,2.6759,2.695,0.0,2.8163,2.8298,0.0,0.0,0.0,0.0,0.0,0.0,0.0,0.0,0.0,0.0,0.0,2.4851,2.5288,2.5288,2.5308,2.5337,2.541,2.541,2.5432,2.5507,2.5507,2.5507,2.5507,2.5507,2.5507,0.0,0.0,0.0,0.0,2.5488,2.5468,2.5468,2.5468,2.5468,2.5468,2.5468,2.5488,2.5488,0.0,0.0,0.0,0.0,0.0,0.0,0.0,1.383,1.4726,1.5464,1.6468,1.7403,1.8119,1.8204,1.8129,1.7953,0.0,0.0,0.0,0.0,0.0,0.0,0.0,0.0,0.0,0.0,0.0,1.59,1.5969,1.6039,1.6109,1.6313,1.6461,1.653,1.6699,0.0,0.0,0.0,0.0,0.0,0.0,0.0,0.0,0.0,0.0,0.0,0.0,0.0,0.0,0.0,0.0,0.0,0.0,0.0,0.0,2.176,2.1925,2.1783,2.2612,2.2823,2.2819,2.2863,2.3304,2.3802,2.4103,2.4655,2.5178,2.5434,2.5507,2.5496,2.5503,2.5543,2.59,2.6752,2.7453,0.0,0.0,0.0,0.0,0.0,0.0,0.0,0.0,0.0,0.0,0.0,0.0,0.0,0.0,2.5188,2.5308,2.5308,2.5351,2.537,2.5407,2.5395,2.5417,2.5429,2.5484,2.5507,2.5507,2.5507,0.0,0.0,0.0,0.0,0.0,2.5507,2.5507,2.5507,2.5507,2.5507,2.5507,2.5507,2.5507,2.5507,0.0,0.0,0.0,0.0,0.0,0.0,0.0,1.3573,1.4309,1.5147,1.5857,1.6704,1.7781,1.789,1.789,1.789,0.0,0.0,0.0,0.0,0.0,0.0,0.0,0.0,0.0,0.0,1.5477,1.5566,1.5754,1.5868,1.5954,1.6219,1.6355,1.6396,1.6503,0.0,0.0,0.0,0.0,0.0,0.0,0.0,1.7749,0.0,0.0,0.0,0.0,0.0,0.0,0.0,0.0,0.0,0.0,0.0,0.0,0.0,2.193,2.2167,2.3342,2.3679,2.3683,2.3788,2.4195,0.0,0.0,2.5085,2.5488,2.546,2.5484,2.5488,2.548,2.5546,2.5993,2.7205,2.7899,2.8711,0.0,0.0,0.0,0.0,0.0,0.0,0.0,0.0,0.0,0.0,0.0,0.0,0.0,2.5351,2.5341,2.5308,2.5346,2.537,2.5407,2.5395,2.5417,2.5433,2.5484,2.5507,2.5507,2.5507,0.0,0.0,0.0,0.0,0.0,2.5507,2.5507,2.5507,2.5507,2.5507,2.5507,2.5507,2.5507,2.5507,0.0,0.0,0.0,0.0,0.0,0.0,0.0,0.0,0.0,0.0,1.5433,1.6193,1.7217,1.741,0.0,0.0,0.0,0.0,0.0,0.0,0.0,0.0,0.0,0.0,0.0,1.4872,1.4936,1.5013,1.536,1.5594,1.571,1.615,1.6373,1.646,1.658,0.0,0.0,0.0,0.0,0.0,0.0,0.0,0.0,0.0,0.0,0.0,0.0,0.0,0.0,0.0,0.0,0.0,0.0,0.0,0.0,0.0,0.0,0.0,0.0,2.5033,2.5121,2.5243,2.5332,0.0,0.0,0.0,0.0,2.5406,2.5456,2.546,2.5406,2.5559,2.6246,2.793,2.831,2.8984,0.0,0.0,0.0,0.0,0.0,0.0,0.0,0.0,0.0,0.0,0.0,0.0,0.0,2.5365,2.5365,2.5317,2.5313,2.5337,2.541,2.5391,2.5432,2.5507,2.5507,2.5507,2.5507,2.5507,0.0,0.0,0.0,0.0,0.0,2.5507,2.5507,2.5507,2.5507,2.5507,2.5507,2.5507,2.5507,2.5507,0.0,0.0,0.0,0.0,0.0,0.0,0.0,0.0,0.0,0.0,0.0,1.6025,1.6632,1.7488,0.0,0.0,0.0,0.0,0.0,0.0,0.0,0.0,0.0,0.0,0.0,1.4892,1.4873,1.5013,1.509,1.5285,1.5551,1.571,1.624,1.7033,1.7104,0.0,0.0,0.0,0.0,0.0,0.0,0.0,0.0,0.0,0.0,0.0,1.9217,1.9192,0.0,0.0,0.0,0.0,0.0,0.0,0.0,0.0,2.1321,2.2357,2.3561,0.0,2.4942,2.4994,2.5084,2.5189,0.0,0.0,0.0,0.0,0.0,2.5425,2.5401,2.6051,2.6952,2.8028,2.8817,2.9668,0.0,0.0,0.0,0.0,0.0,0.0,0.0,0.0,0.0,0.0,0.0,0.0,0.0,2.5387,2.5387,2.5376,2.5378,2.5378,2.541,2.5404,2.5425,2.5507,2.5507,2.5507,2.5507,2.5507,0.0,0.0,0.0,0.0,2.5507,2.5507,2.5507,2.5507,2.5507,2.5507,2.5507,2.5507,2.5507,2.5507,0.0,0.0,0.0,0.0,0.0,0.0,0.0,0.0,0.0,0.0,0.0,0.0,0.0,0.0,0.0,0.0,0.0,0.0,0.0,0.0,0.0,0.0,0.0,0.0,0.0,1.5212,1.5237,1.536,1.5557,1.5819,1.6155,1.6376,1.6832,1.7502,1.7868,0.0,0.0,0.0,0.0,0.0,1.8775,0.0,0.0,0.0,0.0,0.0,1.9795,1.9601,0.0,1.9343,1.9129,1.8948,0.0,0.0,0.0,0.0,2.0729,2.1648,2.2566,2.3783,2.4818,2.4888,2.4993,2.5122,2.5187,0.0,0.0,0.0,0.0,2.541,2.5441,2.6243,2.7192,2.8068,2.8998,0.0,0.0,0.0,0.0,0.0,0.0,0.0,0.0,0.0,0.0,0.0,0.0,0.0,0.0,2.5404,2.5404,2.5408,2.5395,2.5395,2.5404,2.5397,2.5429,2.5507,2.5507,2.5507,2.5507,2.5507,2.5507,0.0,0.0,0.0,2.5507,2.5507,2.5507,2.5507,2.5507,2.5507,2.5507,2.5507,2.5507,2.5507,0.0,0.0,0.0,0.0,0.0,0.0,0.0,0.0,0.0,0.0,0.0,0.0,0.0,0.0,0.0,0.0,0.0,0.0,0.0,0.0,0.0,0.0,0.0,1.6153,1.5644,1.5595,1.5655,1.5803,1.6136,1.6494,1.6861,1.7188,1.7547,1.7958,1.8771,0.0,0.0,0.0,0.0,0.0,1.9154,0.0,0.0,0.0,0.0,0.0,0.0,0.0,0.0,1.9754,1.9416,1.8967,1.9119,0.0,0.0,0.0,0.0,0.0,2.1773,2.3227,2.4569,2.4821,2.4962,2.5088,2.5176,0.0,0.0,0.0,0.0,0.0,0.0,2.6376,0.0,0.0,0.0,0.0,0.0,0.0,0.0,0.0,0.0,0.0,0.0,0.0,0.0,0.0,0.0,0.0,0.0,2.5393,2.5408,2.5369,2.5378,2.5387,2.5376,2.538,2.5417,2.5476,2.5476,2.548,2.5507,2.5507,2.5507,0.0,0.0,0.0,2.5507,2.5507,2.5507,2.5507,2.5507,2.5507,2.5507,2.5507,2.5507,2.5507,0.0,0.0,0.0,0.0,0.0,0.0,0.0,0.0,0.0,0.0,0.0,0.0,0.0,0.0,0.0,0.0,0.0,0.0,0.0,0.0,0.0,0.0,1.671,1.6349,1.6258,1.5767,1.5618,1.5803,1.5863,1.6154,1.6652,1.6705,1.7358,1.8531,1.9659,2.017,0.0,0.0,0.0,0.0,0.0,0.0,0.0,0.0,0.0,0.0,0.0,0.0,0.0,1.9751,1.9479,1.9459,1.8823,0.0,0.0,0.0,0.0,0.0,2.1773,2.2824,2.3859,2.4569,2.4832,2.4968,2.5088,0.0,0.0,0.0,0.0,0.0,0.0,2.6867,2.8041,0.0,0.0,0.0,0.0,0.0,0.0,0.0,0.0,0.0,0.0,0.0,0.0,0.0,0.0,0.0,0.0,2.5417,2.5415,2.5243,2.5289,2.5293,2.5224,2.5284,2.5322,2.5335,2.5335,2.538,2.5507,2.5507,2.5507,0.0,0.0,2.5507,2.5507,2.5507,2.5507,2.5507,2.5507,2.5507,2.5507,2.5507,2.5507,2.5507,0.0,0.0,0.0,0.0,0.0,0.0,0.0,0.0,0.0,0.0,0.0,0.0,0.0,0.0,0.0,0.0,0.0,0.0,0.0,0.0,0.0,0.0,1.7127,1.6975,1.6927,1.6685,1.6586,1.6717,1.6717,1.6969,1.7459,1.7688,1.8194,1.8902,1.9596,1.9909,1.9945,0.0,0.0,0.0,0.0,0.0,0.0,0.0,0.0,0.0,0.0,0.0,0.0,0.0,2.0181,1.9647,1.9345,0.0,0.0,0.0,0.0,0.0,2.1662,2.2337,2.303,2.4459,2.4915,2.5024,0.0,0.0,0.0,0.0,0.0,0.0,0.0,0.0,0.0,0.0,0.0,0.0,0.0,0.0,0.0,0.0,0.0,0.0,0.0,0.0,0.0,0.0,0.0,0.0,0.0,0.0,2.5336,2.5198,2.5229,2.5208,2.5159,2.5181,2.5206,2.5254,2.5279,2.5312,2.5341,2.5459,2.5452,2.5404,0.0,2.5507,2.5507,2.5507,2.5507,2.5507,2.5507,2.5507,2.5507,2.5507,2.5507,2.5507,0.0,0.0,0.0,0.0,0.0,0.0,0.0,0.0,0.0,0.0,0.0,0.0,0.0,0.0,0.0,0.0,0.0,0.0,0.0,0.0,1.7404,1.7412,1.7502,1.7522,1.7432,1.7412,1.7461,1.755,1.755,1.7794,1.8282,1.8683,1.8936,1.9101,1.9384,1.9497,1.9548,2.0083,2.0342,0.0,0.0,0.0,0.0,0.0,0.0,0.0,0.0,0.0,0.0,0.0,0.0,0.0,0.0,0.0,0.0,1.9251,1.9409,1.9961,2.1551,2.2027,2.2499,2.4382,0.0,0.0,0.0,0.0,0.0,0.0,0.0,0.0,0.0,0.0,0.0,0.0,0.0,0.0,0.0,0.0,0.0,0.0,0.0,0.0,0.0,0.0,0.0,0.0,0.0,0.0,0.0,0.0,2.5244,2.5157,2.5168,2.5134,2.5076,2.5076,2.5106,2.5179,2.5229,2.5239,2.5217,2.5355,2.5387,2.5302,2.5408,2.5476,2.5507,2.5507,2.5507,2.5507,2.5507,2.5507,2.5507,2.5507,2.5507,2.5507,0.0,0.0,0.0,0.0,0.0,0.0,0.0,0.0,0.0,0.0,0.0,0.0,0.0,0.0,0.0,0.0,0.0,0.0,0.0,0.0,1.7432,1.7475,1.7625,1.7625,1.7496,1.7496,1.755,1.7679,1.7679,1.7963,1.8498,1.8893,1.9082,1.9101,1.9384,1.9497,1.953,1.9884,2.0168,2.041,0.0,0.0,0.0,0.0,0.0,0.0,0.0,0.0,0.0,0.0,0.0,0.0,0.0,0.0,1.9975,1.9232,1.93,1.9961,2.1551,2.2088,2.2586,2.4283,2.4823,0.0,2.5233,2.5284,0.0,2.5313,0.0,0.0,0.0,0.0,0.0,0.0,0.0,0.0,0.0,0.0,0.0,0.0,0.0,0.0,0.0,0.0,0.0,0.0,0.0,0.0,0.0,0.0,0.0,2.5011,2.5076,2.5076,2.5017,2.5017,2.5044,2.5119,2.5106,2.5134,2.5192,2.5203,2.5249,2.5297,2.5302,2.54,2.5507,2.5507,2.5507,2.5507,2.5507,2.5507,2.5507,2.5507,2.5507,2.5507,0.0,0.0,0.0,0.0,0.0,0.0,0.0,0.0,0.0,0.0,0.0,0.0,0.0,0.0,0.0,0.0,0.0,0.0,0.0,0.0,1.7522,1.7625,1.7747,1.7801,1.7747,1.7666,1.7833,1.8271,1.797,1.7983,1.8321,1.8464,1.86,1.8736,1.9016,1.9262,1.9515,1.9889,2.0254,2.0594,2.0628,0.0,0.0,0.0,0.0,0.0,0.0,0.0,0.0,0.0,2.1833,2.1785,2.1243,2.0986,2.0823,2.0563,2.0788,2.1328,2.2442,2.2873,2.3298,2.4514,2.4929,0.0,0.0,2.5243,2.5313,2.5356,2.5433,0.0,0.0,0.0,0.0,0.0,0.0,0.0,0.0,0.0,0.0,0.0,0.0,0.0,0.0,0.0,0.0,0.0,0.0,0.0,0.0,0.0,0.0,2.501,2.5018,2.5024,2.5003,2.5003,2.5004,2.5037,2.5076,2.5095,2.5082,2.5162,2.5208,2.5244,2.5279,2.5376,2.5507,2.5507,2.5507,2.5507,2.5507,2.5507,2.5507,2.5507,2.5507,2.5507,0.0,0.0,0.0,0.0,0.0,0.0,0.0,0.0,0.0,0.0,0.0,0.0,0.0,0.0,0.0,0.0,0.0,0.0,0.0,1.7427,1.755,1.7625,1.7821,1.7997,1.8174,1.7896,1.7963,1.8388,1.8113,1.8063,1.8202,1.8262,1.838,1.8517,1.8688,1.8921,1.9199,1.9475,1.9871,2.0323,2.0376,2.0512,0.0,0.0,0.0,0.0,0.0,0.0,0.0,0.0,2.2118,2.2113,2.1935,2.1777,2.1634,2.1438,2.1669,2.2197,2.3053,2.3405,2.3726,2.4659,0.0,0.0,2.509,2.5192,2.5313,2.5356,2.5441,0.0,0.0,0.0,0.0,0.0,0.0,0.0,0.0,0.0,0.0,0.0,0.0,0.0,0.0,0.0,0.0,0.0,0.0,0.0,0.0,0.0,0.0,0.0,2.5003,2.5003,2.5003,2.5003,2.5003,2.5003,2.505,2.505,2.501,2.5107,2.5145,2.5174,2.5214,2.5317,2.544,2.544,2.5452,2.5507,2.5507,2.5507,2.5507,2.5507,2.5499,2.5507,0.0,0.0,0.0,0.0,0.0,0.0,0.0,0.0,0.0,0.0,0.0,0.0,0.0,0.0,0.0,0.0,0.0,0.0,0.0,1.7393,1.7496,1.7496,1.7767,1.8174,1.8793,1.8201,1.7902,1.7902,1.8103,1.8202,1.8222,1.84,1.8498,1.8498,1.8498,1.8498,1.8498,1.8517,1.8893,1.9497,1.9512,1.9925,2.051,0.0,0.0,0.0,0.0,0.0,0.0,0.0,2.2446,2.2767,2.2031,2.2127,2.2345,2.1552,2.166,2.224,2.3244,2.3513,2.3745,0.0,0.0,0.0,2.5096,2.5217,2.5308,2.5293,0.0,2.5543,2.566,0.0,0.0,0.0,0.0,0.0,0.0,0.0,0.0,0.0,0.0,0.0,0.0,0.0,0.0,0.0,0.0,0.0,0.0,0.0,0.0,0.0,2.5003,2.5003,2.5003,2.5003,2.5003,2.5003,2.5003,2.5003,2.5003,2.5003,2.5037,2.5107,2.5107,2.5179,2.5297,2.5297,2.5376,2.5507,2.5507,2.5507,2.5507,2.5507,2.5499,2.5508,0.0,0.0,0.0,0.0,0.0,0.0,0.0,0.0,0.0,0.0,0.0,0.0,0.0,0.0,0.0,0.0,0.0,0.0,0.0,1.7391,1.7494,1.7625,1.772,1.7882,1.816,1.7997,1.7902,1.7902,1.7963,1.8129,1.8397,1.8169,1.8228,1.8509,1.8509,1.8509,1.8533,1.9151,1.9533,1.9749,2.0067,2.0325,2.051,0.0,0.0,0.0,0.0,0.0,0.0,0.0,0.0,0.0,2.2783,2.297,2.3221,2.326,2.3465,2.3786,2.4222,2.4414,0.0,2.4943,0.0,0.0,0.0,2.5333,0.0,0.0,2.5548,2.5417,2.488,0.0,0.0,0.0,0.0,0.0,0.0,0.0,0.0,0.0,0.0,0.0,0.0,0.0,0.0,0.0,0.0,0.0,0.0,0.0,0.0,0.0,2.5003,2.5003,2.5003,2.5003,2.5003,2.5003,2.5003,2.5003,2.5003,2.5003,2.5037,2.5107,2.5107,2.5179,2.5302,2.5408,2.5452,2.5507,2.5507,2.5507,2.5507,2.5507,2.5499,2.5495,0.0,0.0,0.0,0.0,0.0,0.0,0.0,0.0,0.0,0.0,1.6755,1.7002,0.0,0.0,0.0,0.0,0.0,0.0,0.0,0.0,1.7466,1.7604,1.7679,1.776,1.7902,1.7902,1.7902,1.7902,1.7902,1.8009,1.8274,1.8175,1.8274,1.85,1.85,1.85,1.8519,1.8888,1.9225,1.9551,1.9836,2.0135,2.0409,0.0,0.0,0.0,0.0,0.0,0.0,0.0,0.0,0.0,2.3052,2.333,2.361,2.3991,2.4302,2.4564,2.4805,2.4927,0.0,2.5149,2.5283,2.5406,2.547,0.0,0.0,0.0,0.0,0.0,0.0,0.0,0.0,0.0,0.0,0.0,0.0,0.0,0.0,0.0,0.0,0.0,0.0,0.0,0.0,0.0,0.0,0.0,0.0,0.0,0.0,0.0,2.5003,2.5003,2.5003,2.5003,2.5003,2.5003,2.5003,2.5003,2.5003,2.5003,2.5018,2.5051,2.5088,2.5157,2.5274,2.5387,2.5448,2.5507,2.5507,2.5507,2.5492,2.5491,2.552,2.5535,0.0,0.0,0.0,0.0,0.0,0.0,0.0,0.0,0.0,0.0,1.7073,1.7117,0.0,0.0,0.0,0.0,0.0,0.0,0.0,0.0,1.7412,1.7475,1.7625,1.776,1.7882,1.7942,1.7963,1.7963,1.7963,1.7983,1.8023,1.8378,1.8558,1.8597,1.8572,1.8519,1.8475,1.8149,1.8431,1.9101,1.9139,1.9603,2.0304,2.0371,0.0,0.0,0.0,0.0,0.0,0.0,0.0,0.0,2.304,2.3342,2.3646,2.4005,2.4397,2.4734,2.5012,0.0,0.0,2.5279,2.5361,0.0,2.5587,2.5496,2.5184,2.4459,0.0,0.0,0.0,0.0,0.0,0.0,0.0,0.0,0.0,0.0,0.0,0.0,0.0,0.0,0.0,0.0,0.0,0.0,0.0,0.0,0.0,0.0,0.0,2.501,2.5003,2.5003,2.5003,2.5003,2.5003,0.0,2.5003,2.5003,2.5003,2.5003,2.5003,2.501,2.5063,2.5136,2.5206,2.5265,2.5372,2.5484,2.5507,2.5507,2.5496,2.5501,2.5535,2.5601,0.0,0.0,0.0,0.0,0.0,0.0,0.0,0.0,0.0,0.0,0.0,0.0,0.0,0.0,0.0,0.0,0.0,0.0,0.0,0.0,1.7295,1.7412,1.7597,1.7699,1.774,1.8155,1.8378,1.8378,1.8378,1.8533,1.8836,1.8931,1.9143,1.942,1.9105,1.8803,1.8514,1.8745,1.895,1.912,1.9453,1.9869,2.0304,2.0321,2.0354,0.0,0.0,0.0,0.0,0.0,0.0,0.0,2.3206,2.3369,2.3548,2.4107,2.4381,2.4604,2.4874,2.5059,0.0,0.0,2.547,2.5587,2.5653,2.5147,2.4598,0.0,0.0,0.0,0.0,0.0,0.0,0.0,0.0,0.0,0.0,0.0,0.0,0.0,0.0,0.0,0.0,0.0,0.0,0.0,0.0,0.0,0.0,0.0,0.0,2.5003,2.5003,2.5003,2.5003,2.5003,2.5003,0.0,2.5003,2.5003,2.5003,2.5003,2.5003,2.501,2.5063,2.5119,2.5136,2.5259,2.5326,2.5344,2.5452,2.5507,2.5496,2.5501,2.5535,2.5604,0.0,0.0,0.0,0.0,0.0,0.0,0.0,0.0,0.0,0.0,0.0,0.0,0.0,0.0,0.0,0.0,0.0,0.0,0.0,0.0,0.0,0.0,1.7536,1.7706,1.7942,1.8214,1.8436,1.8649,1.8865,1.903,1.9101,1.9306,1.9493,1.969,1.949,1.9273,1.9087,1.9087,1.9213,1.9417,1.9617,1.994,2.0304,2.0304,2.0321,2.0356,2.0424,0.0,0.0,0.0,0.0,0.0,0.0,0.0,2.357,2.4164,2.4501,2.4697,2.4883,0.0,0.0,2.5418,0.0,2.5611,2.5682,2.4692,2.3775,0.0,0.0,0.0,0.0,0.0,0.0,0.0,0.0,0.0,0.0,0.0,0.0,0.0,0.0,0.0,0.0,0.0,0.0,0.0,0.0,0.0,0.0,2.5044,2.5004,2.5004,2.4991,2.5003,2.5003,2.5003,2.5003,2.5003,2.5003,2.5003,2.5003,2.5003,2.5003,2.501,2.5037,2.5063,2.5113,2.5179,2.5249,2.5302,2.5417,2.5476,2.551,2.5544,2.5574,2.5609,0.0,0.0,0.0,0.0,0.0,0.0,0.0,0.0,0.0,0.0,0.0,0.0,0.0,0.0,0.0,0.0,0.0,0.0,0.0,0.0,0.0,0.0,1.744,1.7693,1.8149,1.8248,1.8489,1.8898,1.9369,0.0,0.0,1.9654,1.9797,1.9797,1.9744,1.9708,1.9672,1.9269,1.9343,1.9708,1.9708,1.994,2.0304,2.0304,2.0304,2.0304,2.0388,2.0877,2.1507,2.1583,0.0,0.0,0.0,0.0,2.3592,2.4146,2.4524,2.4782,2.4935,0.0,2.5359,2.5486,2.5578,0.0,2.5683,2.4342,2.3097,0.0,0.0,0.0,0.0,0.0,0.0,0.0,0.0,0.0,0.0,0.0,0.0,0.0,0.0,0.0,0.0,0.0,0.0,0.0,0.0,0.0,2.4645,2.4594,2.4581,2.4575,2.4701,2.4782,2.4782,2.4934,2.501,2.4991,2.4991,2.5017,2.5023,2.5023,2.5017,2.5003,2.5003,2.5031,2.5082,2.5107,2.5174,2.5269,2.5344,2.5426,2.5492,2.5543,2.5568,2.5598,0.0,0.0,0.0,0.0,0.0,0.0,0.0,0.0,0.0,0.0,1.8823,1.8388,0.0,0.0,0.0,0.0,0.0,0.0,0.0,0.0,0.0,0.0,1.735,1.7604,1.8022,1.8475,1.8931,1.9321,0.0,0.0,0.0,0.0,0.0,2.02,0.0,1.9708,1.9672,1.9269,1.9343,1.9708,1.9708,1.994,2.0304,2.0304,2.0304,2.0304,2.0388,2.0877,2.1507,2.1583,2.2082,0.0,0.0,0.0,2.35,2.3868,2.4248,2.4583,0.0,0.0,2.5492,0.0,2.5642,2.5683,0.0,0.0,0.0,0.0,0.0,0.0,0.0,0.0,0.0,0.0,0.0,0.0,0.0,0.0,0.0,0.0,0.0,0.0,0.0,0.0,0.0,0.0,0.0,0.0,2.2857,2.2833,2.2821,2.2828,2.3569,2.3961,2.3961,2.4656,2.4998,2.5005,2.5005,2.5018,2.5089,2.5089,2.5056,2.5003,2.5003,2.501,2.5011,2.5075,2.5115,2.513,2.5269,2.5344,2.5418,2.5414,2.5453,2.5515,0.0,0.0,0.0,0.0,0.0,0.0,0.0,0.0,0.0,0.0,0.0,1.839,0.0,0.0,0.0,0.0,0.0,0.0,0.0,0.0,0.0,0.0,0.0,1.7468,1.7868,1.8383,1.8822,1.9228,0.0,0.0,0.0,2.0061,2.0183,0.0,0.0,0.0,0.0,1.9851,1.9869,2.0028,2.0028,2.0133,2.0304,0.0,0.0,0.0,0.0,0.0,2.1198,2.14,2.188,2.2433,2.2902,0.0,0.0,0.0,2.4126,2.4508,2.4835,2.5192,2.5517,0.0,2.5614,2.5709,2.5697,0.0,0.0,0.0,0.0,0.0,0.0,0.0,0.0,0.0,0.0,0.0,0.0,0.0,0.0,0.0,0.0,0.0,0.0,0.0,0.0,0.0,0.0,2.2593,2.2552,2.256,2.2563,2.2557,2.2895,2.3068,2.3068,2.3904,2.4569,2.5057,2.5057,2.507,2.5101,2.5101,2.5082,2.5056,2.5056,2.5056,2.5063,2.5088,2.5124,2.5162,2.5219,2.5335,2.5467,2.5452,2.5522,2.5615,0.0,0.0,0.0,0.0,0.0,0.0,0.0,0.0,0.0,0.0,0.0,0.0,0.0,0.0,0.0,0.0,0.0,0.0,0.0,0.0,0.0,0.0,0.0,0.0,1.7787,1.8266,1.8707,0.0,0.0,0.0,1.9797,1.9937,2.0078,0.0,2.0218,2.0235,0.0,0.0,2.027,2.0304,2.0304,2.0304,0.0,0.0,0.0,0.0,0.0,0.0,0.0,0.0,0.0,2.2195,2.2734,2.314,0.0,0.0,0.0,0.0,0.0,0.0,2.5502,2.5495,2.5605,2.5696,0.0,0.0,0.0,0.0,0.0,0.0,0.0,0.0,0.0,0.0,0.0,0.0,0.0,0.0,0.0,0.0,0.0,0.0,0.0,0.0,0.0,0.0,0.0,2.197,2.197,2.1969,2.1953,2.1967,2.21,2.2197,2.2203,2.328,2.4143,2.4809,2.5,2.512,2.5126,2.5126,2.5126,2.5126,2.5108,2.5101,2.5101,2.5108,2.5138,2.517,2.5182,2.5302,2.5462,2.5466,2.5523,2.5643,0.0,0.0,0.0,0.0,0.0,0.0,0.0,0.0,0.0,0.0,0.0,0.0,0.0,0.0,1.7199,1.7199,0.0,0.0,0.0,0.0,0.0,0.0,0.0,0.0,0.0,1.8266,1.8707,0.0,0.0,0.0,1.9797,1.9937,2.0005,2.0023,2.0023,2.0043,2.01,0.0,0.0,0.0,0.0,0.0,0.0,0.0,0.0,0.0,0.0,0.0,0.0,0.0,0.0,0.0,0.0,0.0,0.0,0.0,0.0,0.0,0.0,2.511,0.0,2.5502,2.5597,0.0,0.0,0.0,0.0,0.0,0.0,0.0,0.0,0.0,0.0,0.0,0.0,0.0,0.0,0.0,0.0,0.0,0.0,0.0,0.0,0.0,0.0,0.0,0.0,2.0227,2.0227,2.0227,2.0232,2.0222,2.0979,2.1365,2.1356,2.3053,2.3931,2.3963,2.4745,2.5125,2.5185,2.5185,2.5185,2.518,2.5133,2.5101,2.5101,2.5095,2.5107,2.5113,2.518,2.5274,2.5402,2.5336,2.5402,2.5507,0.0,0.0,0.0,0.0,0.0,0.0,0.0,0.0,0.0,0.0,0.0,0.0,0.0,1.7044,1.7115,1.7199,1.7199,0.0,0.0,0.0,0.0,0.0,0.0,0.0,0.0,1.8127,0.0,0.0,0.0,1.9744,1.9744,1.978,1.9797,1.9797,1.9937,2.0008,2.0043,2.008,0.0,0.0,0.0,0.0,0.0,0.0,0.0,0.0,0.0,0.0,0.0,0.0,0.0,0.0,0.0,0.0,0.0,0.0,0.0,0.0,0.0,0.0,0.0,2.5483,2.5574,2.5654,0.0,0.0,0.0,0.0,0.0,0.0,0.0,0.0,0.0,0.0,0.0,0.0,0.0,0.0,0.0,0.0,0.0,0.0,0.0,0.0,0.0,0.0,0.0,0.0,2.0093,2.0093,2.0108,2.0098,2.038,2.0804,2.1354,2.1979,2.2838,2.3902,2.4183,2.4633,2.5191,2.5191,2.5191,2.521,2.5162,2.515,2.5156,2.5162,2.5168,2.5168,2.5185,2.5261,2.5345,2.5352,2.5418,2.5507,0.0,0.0,0.0,0.0,0.0,0.0,0.0,0.0,0.0,0.0,0.0,0.0,0.0,0.0,1.7094,1.7199,1.7199,1.7199,1.7199,1.7199,0.0,0.0,0.0,0.0,0.0,1.8108,0.0,0.0,0.0,0.0,0.0,1.9708,1.9708,1.9708,1.9848,1.9902,0.0,0.0,0.0,2.01,0.0,0.0,2.0304,0.0,0.0,0.0,0.0,0.0,0.0,0.0,0.0,0.0,0.0,0.0,0.0,0.0,0.0,0.0,2.3272,0.0,0.0,0.0,0.0,2.5171,2.5254,0.0,0.0,0.0,0.0,0.0,0.0,0.0,0.0,0.0,0.0,0.0,0.0,0.0,0.0,0.0,0.0,0.0,0.0,0.0,0.0,0.0,0.0,0.0,2.0093,2.0093,2.0093,2.0093,2.0093,2.0384,2.0962,2.1254,2.1956,2.3078,2.3632,2.4205,2.4765,2.5077,2.5191,2.5191,2.5191,2.5191,2.5191,2.5191,2.5191,2.5191,2.5191,2.5241,2.534,2.5352,2.5455,2.5573,0.0,0.0,0.0,0.0,0.0,0.0,0.0,0.0,0.0,0.0,0.0,0.0,0.0,0.0,0.0,1.7199,1.7199,1.7199,1.7199,1.7199,0.0,0.0,0.0,0.0,0.0,1.8246,1.8688,1.9082,1.9508,0.0,0.0,0.0,1.9708,1.9708,1.9708,1.9744,1.9797,0.0,1.9904,2.0083,0.0,2.0185,2.0287,0.0,0.0,0.0,2.0304,2.0304,0.0,2.0678,0.0,0.0,0.0,0.0,0.0,0.0,0.0,0.0,0.0,0.0,0.0,0.0,0.0,0.0,2.4333,0.0,0.0,0.0,0.0,0.0,0.0,0.0,0.0,0.0,0.0,0.0,0.0,0.0,0.0,0.0,0.0,0.0,0.0,0.0,0.0,0.0,0.0,2.0093,2.0093,2.0093,2.0093,2.0093,2.0093,2.0093,2.0093,2.0943,2.1369,2.1426,2.3078,2.3875,2.3932,2.4803,2.5191,2.5191,2.5191,2.5191,2.5191,2.5191,2.5191,2.5191,2.5191,2.5283,2.5394,2.5322,2.546,2.5669,0.0,0.0,0.0,0.0,0.0,0.0,0.0,0.0,0.0,0.0,0.0,0.0,0.0,0.0,1.7044,1.6981,1.7115,1.7199,1.7199,1.7199,1.7199,1.7199,1.7199,0.0,0.0,1.8108,1.8553,1.8669,1.9365,1.9708,1.9708,0.0,0.0,0.0,1.9708,1.9708,1.9726,1.978,0.0,1.9904,2.0045,2.0133,0.0,0.0,0.0,0.0,0.0,2.0304,2.0356,0.0,2.0876,2.1071,0.0,0.0,0.0,0.0,0.0,0.0,2.1332,0.0,0.0,0.0,0.0,0.0,2.3366,2.2747,2.209,0.0,0.0,0.0,0.0,0.0,0.0,0.0,0.0,0.0,0.0,0.0,0.0,0.0,0.0,0.0,0.0,0.0,0.0,0.0,2.0093,2.0093,2.0093,2.0093,2.0093,2.0093,2.0093,2.0093,2.0093,2.0341,2.079,2.1407,2.2453,2.3288,2.3932,2.4803,2.5191,2.5191,2.5191,2.5191,2.5191,2.5191,2.5191,2.5191,2.5191,2.5212,2.5252,2.5293,2.5385,2.5479,0.0,0.0,0.0,0.0,0.0,0.0,0.0,0.0,0.0,0.0,0.0,0.0,0.0,0.0,0.0,1.6897,1.7044,1.7115,1.7115,1.7178,1.7199,1.7199,1.7199,1.7372,1.774,1.8246,1.8655,1.8997,1.9475,1.9708,1.9708,1.9708,0.0,0.0,0.0,0.0,0.0,0.0,0.0,0.0,1.9975,0.0,0.0,2.0252,2.0304,0.0,0.0,0.0,2.0321,2.0527,2.0778,0.0,0.0,0.0,0.0,0.0,0.0,0.0,0.0,0.0,0.0,0.0,0.0,0.0,2.2444,2.2092,2.1669,0.0,0.0,0.0,0.0,0.0,0.0,0.0,0.0,0.0,0.0,0.0,0.0,0.0,0.0,0.0,0.0,0.0,0.0,2.0093,2.0093,2.0093,2.0093,2.0093,2.0093,2.0093,2.0093,2.0093,2.0093,2.0093,2.0341,2.0867,2.2046,2.2868,2.3403,2.4631,2.5191,2.5191,2.5191,2.5191,2.5191,2.5191,2.5191,2.5191,2.5191,2.522,2.5245,2.5288,2.5357,2.5446,0.0,0.0,0.0,0.0,0.0,0.0,0.0,0.0,0.0,0.0,0.0,0.0,0.0,0.0,0.0,0.0,1.6939,1.6981,1.6981,1.7094,0.0,0.0,1.7178,1.7557,1.8364,1.8422,1.8827,1.9603,1.9672,1.969,1.969,1.9708,0.0,0.0,0.0,0.0,0.0,0.0,0.0,1.9851,1.9937,2.0008,0.0,0.0,2.0287,2.0287,2.0287,2.0304,2.0304,2.0304,2.0778,0.0,0.0,0.0,0.0,0.0,2.0097,0.0,0.0,0.0,0.0,0.0,0.0,0.0,2.1515,2.1545,2.1349,2.0644,0.0,0.0,0.0,0.0,0.0,0.0,0.0,0.0,0.0,0.0,0.0,0.0,0.0,0.0,2.0093,2.0093,2.0093,2.0093,2.0093,2.0093,2.0093,2.0093,2.0093,2.0093,2.0093,2.0093,2.0093,2.0093,2.0093,2.0112,2.1703,2.2505,2.2658,2.4306,2.5115,2.5191,2.5191,2.5191,2.5191,2.5191,2.5191,2.5191,2.5191,2.5239,2.5308,2.5308,2.5371,2.5501,0.0,0.0,0.0,0.0,0.0,0.0,0.0,0.0,0.0,0.0,0.0,0.0,0.0,0.0,0.0,0.0,1.6846,1.6918,1.6918,1.6939,1.696,1.696,1.696,1.7199,1.7679,1.8001,1.8433,1.8974,1.9413,1.9629,1.9629,1.9672,0.0,0.0,0.0,0.0,0.0,0.0,0.0,2.012,1.9922,0.0,1.9869,2.008,2.015,2.015,2.027,2.0304,2.0304,2.0304,2.091,2.1562,0.0,0.0,0.0,0.0,0.0,0.0,0.0,0.0,0.0,0.0,0.0,0.0,2.052,2.062,2.0621,0.0,0.0,0.0,0.0,0.0,0.0,0.0,0.0,0.0,0.0,0.0,0.0,0.0,0.0,0.0,2.0093,2.0093,2.0093,2.0093,2.0093,2.0093,2.0093,2.0093,2.0093,2.0093,2.0093,2.0093,2.0093,2.0093,2.0093,2.0112,2.1134,2.1975,2.2639,2.3689,2.4536,2.5191,2.5191,2.5191,2.5191,2.5191,2.5191,2.5191,2.5191,2.5239,2.5308,2.5308,2.5371,2.5501,0.0,0.0,0.0,0.0,0.0,0.0,0.0,0.0,0.0,0.0,0.0,0.0,0.0,0.0,0.0,0.0,0.0,0.0,0.0,0.0,0.0,1.6897,1.7094,1.7393,1.7794,1.8218,1.866,1.9101,1.9376,1.9501,1.9501,1.9596,0.0,0.0,0.0,0.0,0.0,0.0,1.9945,1.9945,1.9851,0.0,2.0098,2.0063,2.0061,2.0063,2.015,2.0252,2.0304,2.0304,2.0525,0.0,0.0,1.9761,1.9232,0.0,1.8656,1.8232,0.0,0.0,0.0,1.9523,0.0,0.0,0.0,2.0231,2.0321,2.0424,2.0446,0.0,0.0,0.0,0.0,0.0,0.0,0.0,0.0,0.0,0.0,0.0,0.0,0.0,2.0093,2.0093,2.0093,2.0093,2.0093,2.0093,2.0093,2.0093,2.0093,2.0093,2.0093,2.0093,2.0093,2.0093,2.0093,2.0112,2.0981,2.1822,2.2639,2.3498,2.4377,2.5191,2.5248,2.525,2.5255,2.5293,2.5293,2.5308,2.5252,2.5262,2.5317,2.5378,2.5443,2.5507,1.601,0.0,0.0,0.0,0.0,0.0,0.0,0.0,0.0,0.0,0.0,0.0,0.0,0.0,0.0,0.0,0.0,0.0,0.0,0.0,0.0,0.0,1.7372,1.7754,1.8165,1.8544,1.8936,1.9339,1.9376,1.9376,1.9376,1.9501,0.0,0.0,0.0,0.0,0.0,0.0,0.0,2.0013,0.0,2.01,2.0239,2.0043,1.9955,1.9973,2.0063,2.022,2.0325,2.0167,2.0015,1.9874,1.9813,1.9189,0.0,0.0,0.0,0.0,0.0,0.0,0.0,0.0,0.0,1.9851,0.0,0.0,0.0,2.0327,2.0369,0.0,0.0,0.0,0.0,0.0,0.0,0.0,0.0,0.0,0.0,0.0,0.0,0.0,0.0,2.0122,2.0117,2.0093,2.0117,2.0117,2.0093,2.0093,2.0093,2.0093,2.0093,2.0093,2.0093,2.0093,2.0093,2.0112,2.081,2.1669,2.262,2.3326,2.4216,2.5225,2.5273,2.5317,2.5322,2.5382,2.5391,2.5383,2.535,2.5327,2.5344,2.546,2.5529,2.5546,1.6032,1.6358,0.0,0.0,0.0,0.0,0.0,0.0,0.0,0.0,0.0,0.0,0.0,0.0,0.0,0.0,0.0,0.0,1.7679,0.0,0.0,0.0,0.0,0.0,1.8442,1.85,1.8726,1.912,1.9246,1.9321,1.9321,1.9395,0.0,0.0,2.0065,0.0,0.0,0.0,2.0877,0.0,2.0795,2.0325,0.0,1.9815,1.9815,1.9851,2.003,2.0308,2.0452,0.0,1.9767,2.0015,0.0,1.8372,1.8427,0.0,0.0,0.0,0.0,0.0,0.0,0.0,1.9306,0.0,0.0,0.0,2.0035,2.0118,0.0,0.0,0.0,0.0,0.0,0.0,0.0,0.0,0.0,0.0,0.0,0.0,0.0,0.0,0.0,2.0187,2.0159,2.0093,2.0155,2.0159,2.0093,2.0093,2.0093,2.0093,2.0093,2.0093,2.0093,2.0093,2.0093,2.0093,2.0208,2.1072,2.2601,2.2696,2.3691,2.5293,2.5303,2.5336,2.5394,2.5406,2.5391,2.541,2.5398,2.5421,2.5483,2.5495,2.5576,2.5673,1.6318,1.6531,0.0,0.0,0.0,0.0,0.0,0.0,0.0,0.0,0.0,0.0,0.0,0.0,0.0,0.0,0.0,1.7787,0.0,0.0,0.0,0.0,0.0,0.0,0.0,1.8726,1.8917,1.9101,1.9157,1.9176,1.9176,1.9302,0.0,0.0,2.0118,0.0,2.0926,0.0,2.1055,0.0,0.0,0.0,0.0,2.0375,2.041,2.0446,2.053,2.068,2.0718,0.0,1.9528,0.0,0.0,0.0,0.0,0.0,0.0,0.0,0.0,0.0,0.0,0.0,0.0,0.0,1.9545,0.0,1.9877,0.0,0.0,0.0,0.0,0.0,0.0,0.0,2.0477,0.0,0.0,0.0,0.0,0.0,0.0,0.0,0.0,0.0,0.0,0.0,2.0159,2.0164,2.0093,2.0093,2.0093,2.0093,2.0093,2.0093,2.0093,2.0093,2.0093,2.0112,2.0614,2.1512,2.2724,2.3199,2.4115,2.5357,2.541,2.5429,2.5463,2.554,2.5577,2.5577,2.5577,2.5529,2.5507,2.56,2.5643,2.5699,1.7232,0.0,0.0,0.0,0.0,0.0,0.0,0.0,0.0,0.0,0.0,0.0,1.9454,1.926,0.0,0.0,1.8264,1.8167,0.0,0.0,1.8167,0.0,0.0,0.0,0.0,0.0,1.9101,1.9101,1.9101,1.9101,1.9101,1.9269,1.9657,0.0,0.0,2.063,2.1182,0.0,2.1309,2.1087,2.134,2.1277,2.1055,2.0876,2.0828,2.0861,2.0893,2.0975,2.0974,2.0012,1.9297,0.0,1.8238,0.0,0.0,0.0,0.0,0.0,1.7986,0.0,0.0,0.0,0.0,0.0,0.0,0.0,0.0,0.0,0.0,0.0,0.0,0.0,0.0,0.0,0.0,2.0473,0.0,0.0,0.0,0.0,0.0,0.0,0.0,0.0,0.0,2.0128,2.0188,2.0195,2.0093,2.0093,2.0093,2.0093,2.0093,2.0093,2.0093,2.0093,2.0107,2.013,2.1005,2.1927,2.2863,2.3687,2.4563,2.5429,2.548,2.5513,2.5568,2.5665,2.5699,2.5699,2.5699,2.5639,2.5571,2.5667,2.5699,2.5699,1.9005,1.9027,0.0,0.0,0.0,0.0,0.0,0.0,0.0,0.0,0.0,0.0,0.0,0.0,0.0,0.0,0.0,1.9064,1.9064,0.0,1.9064,0.0,0.0,1.9082,0.0,0.0,0.0,0.0,1.9101,1.9101,1.9101,1.9365,1.9749,0.0,2.0664,2.1135,2.1589,2.1723,2.1766,2.1783,2.1766,2.1766,2.1691,0.0,2.0794,2.0811,2.0877,0.0,0.0,1.9482,1.9127,0.0,0.0,0.0,0.0,0.0,0.0,0.0,0.0,0.0,0.0,1.8121,0.0,0.0,0.0,0.0,1.9431,0.0,0.0,0.0,0.0,0.0,0.0,0.0,0.0,0.0,0.0,0.0,0.0,0.0,0.0,0.0,0.0,0.0,0.0,2.0207,2.026,2.0239,2.0122,2.0093,2.0093,2.0093,2.0093,2.0093,2.0093,2.0093,2.0139,2.0204,2.1085,2.198,2.2939,2.3797,2.4668,2.5498,2.5501,2.5573,2.5697,2.5699,2.5699,2.5699,2.5699,2.5697,2.5697,2.5699,2.5699,2.5699,0.0,0.0,0.0,0.0,0.0,0.0,0.0,2.1611,0.0,0.0,0.0,0.0,0.0,2.1481,2.1177,0.0,0.0,2.0364,2.0364,2.0364,0.0,0.0,0.0,1.9551,0.0,0.0,0.0,0.0,0.0,0.0,1.9365,1.9457,1.9803,0.0,0.0,2.0974,0.0,0.0,0.0,0.0,0.0,2.1812,2.1783,0.0,0.0,2.1463,2.1494,2.1259,0.0,1.9775,1.9064,1.8477,1.779,1.7439,1.7368,1.7692,1.78,0.0,0.0,0.0,1.8101,1.8101,0.0,0.0,0.0,0.0,0.0,0.0,0.0,0.0,0.0,0.0,0.0,0.0,0.0,0.0,0.0,0.0,0.0,0.0,0.0,0.0,0.0,0.0,0.0,2.0263,2.0334,2.0337,2.0234,2.023,2.023,2.023,2.023,2.023,2.023,2.023,2.0241,2.0285,2.1724,2.262,2.3015,2.4429,2.5277,2.5637,2.5637,2.5665,2.5699,2.5699,2.5699,2.5699,2.5699,2.5699,2.5699,2.5699,2.5699,2.5699,2.1337,0.0,0.0,0.0,0.0,0.0,0.0,0.0,0.0,0.0,2.2888,0.0,2.2345,0.0,2.1815,0.0,2.1133,2.1003,2.1003,2.1003,0.0,2.0436,2.0422,0.0,0.0,0.0,0.0,0.0,0.0,1.9328,1.9497,1.9714,2.0015,0.0,0.0,2.0974,2.1309,2.1511,2.1679,0.0,0.0,2.1901,0.0,0.0,2.1855,2.1812,0.0,2.1332,2.0586,1.99,1.9062,1.823,1.7771,1.7526,1.7439,1.7692,1.7789,1.78,1.78,1.7888,0.0,1.808,1.83,0.0,1.8495,0.0,0.0,0.0,0.0,0.0,0.0,0.0,0.0,0.0,0.0,0.0,0.0,2.0443,0.0,0.0,0.0,0.0,0.0,0.0,2.0439,2.0381,2.0405,2.041,0.0,0.0,2.0308,2.0302,2.0302,2.0302,2.0302,2.0302,2.0475,2.0817,2.2255,2.3126,2.3552,2.4948,2.5626,2.5691,2.5691,2.5691,2.5691,2.5691,2.5708,2.5703,2.5703,2.5701,2.5699,2.5699,2.5699,2.5699,2.1399,0.0,0.0,0.0,2.1841,0.0,0.0,0.0,2.2865,0.0,2.291,2.291,2.291,2.2418,2.2055,2.2055,2.1474,2.109,2.109,2.109,0.0,0.0,2.1046,2.1032,2.1003,0.0,0.0,0.0,0.0,0.0,1.9566,2.012,2.0426,0.0,2.094,0.0,2.1389,2.156,2.1727,2.1842,2.1842,2.2104,2.247,2.2212,2.1998,2.1825,2.1792,2.1311,2.055,1.9823,1.9081,1.8352,1.7717,1.7554,1.7635,1.7698,1.776,1.7811,1.7811,1.7811,1.7861,1.8048,0.0,0.0,0.0,0.0,1.8788,0.0,0.0,0.0,0.0,0.0,0.0,0.0,0.0,0.0,0.0,0.0,0.0,0.0,0.0,0.0,0.0,2.0594,2.0564,2.051,2.0506,2.0441,0.0,0.0,2.031,2.0314,2.0311,2.0311,2.0311,2.0311,2.0784,2.1729,2.2585,2.3486,2.4438,2.5299,2.571,2.571,2.571,2.571,2.571,2.571,2.5704,2.5692,2.5692,2.5707,2.5699,2.5699,2.5699,2.5699,2.1399,2.1399,2.1544,0.0,2.1769,2.1722,0.0,0.0,0.0,0.0,2.312,2.3268,2.3268,2.3142,2.3039,2.3039,2.2659,0.0,0.0,0.0,0.0,2.1757,2.1743,2.1511,2.1003,2.1092,0.0,2.0395,0.0,0.0,2.0172,2.0325,2.0808,0.0,0.0,0.0,2.2342,2.2389,2.2383,2.2318,2.2318,2.2388,0.0,0.0,2.2374,2.2234,2.1644,2.0887,2.0071,1.9439,1.8581,1.7742,1.773,1.78,1.79,1.7932,1.798,1.8023,1.8023,1.8023,1.8044,1.809,1.83,1.8495,0.0,0.0,0.0,0.0,0.0,0.0,0.0,0.0,0.0,0.0,0.0,0.0,0.0,0.0,0.0,2.0492,0.0,0.0,2.0527,2.056,2.059,2.0578,2.0577,2.0531,0.0,0.0,0.0,2.0457,2.0451,2.0451,2.0455,2.0455,2.0898,2.1776,2.2651,2.3533,2.4438,2.5299,2.571,2.571,2.571,2.571,2.571,2.571,2.5708,2.5704,2.5696,2.5707,2.5699,2.5699,2.5699,2.5699,2.1399,0.0,0.0,2.2161,0.0,0.0,2.2663,0.0,0.0,2.3341,2.356,0.0,2.3674,2.3674,2.3674,2.3674,2.3494,0.0,2.3378,0.0,0.0,2.2888,2.2873,2.2695,2.231,2.2218,0.0,2.1579,0.0,0.0,2.1326,2.1434,0.0,0.0,0.0,2.2643,2.3128,2.3084,2.3076,2.3079,2.2661,0.0,0.0,2.2659,2.2685,2.2609,2.1502,2.0641,1.9988,1.9319,1.8483,1.7743,1.7861,1.7977,1.8095,1.8093,1.8187,1.828,1.828,1.828,1.83,1.8391,1.8516,1.8638,1.8638,1.8622,1.866,0.0,0.0,0.0,0.0,0.0,0.0,0.0,0.0,0.0,0.0,0.0,0.0,0.0,2.0504,0.0,2.0498,2.0566,2.0595,2.056,2.0574,0.0,0.0,0.0,0.0,2.0506,2.0507,2.0507,2.0506,2.051,2.1121,2.2378,2.2864,2.3763,2.4975,2.5483,2.5698,2.5698,2.5698,2.5698,2.5698,2.5698,2.5697,2.5693,2.5699,2.5708,2.5705,2.5705,2.5703,2.5699,2.1496,0.0,0.0,0.0,0.0,0.0,0.0,2.3659,0.0,2.3982,0.0,2.4067,2.4067,2.4067,2.4067,2.4067,0.0,2.4003,2.4003,2.4003,2.4003,2.4003,2.4003,2.4003,2.4003,2.3473,0.0,0.0,0.0,0.0,0.0,0.0,0.0,0.0,0.0,0.0,0.0,2.3801,2.3818,2.3879,2.3055,2.2877,2.3082,2.2906,2.2887,2.2768,2.1323,2.0564,2.0108,1.9293,1.8568,1.7994,1.8027,1.8121,1.8239,1.8239,1.8378,1.8534,1.8534,1.8534,1.8573,1.876,1.8815,1.8833,1.8833,1.8833,1.8833,1.8833,1.8905,1.9048,0.0,0.0,0.0,0.0,0.0,0.0,0.0,0.0,0.0,0.0,0.0,0.0,0.0,0.0,2.0563,2.0508,2.0543,0.0,0.0,0.0,0.0,2.051,2.0496,0.0,2.0509,0.0,2.1499,2.3104,2.3221,2.4122,2.5707,2.5707,2.5707,2.5707,2.5707,2.5707,2.5707,2.5707,2.5704,2.5698,2.5702,2.5696,2.5694,2.5694,2.5691,2.5703,2.1973,0.0,0.0,0.0,0.0,2.3681,2.4307,2.3873,2.3595,2.3961,2.4234,2.4416,2.4416,2.4416,2.4416,2.4416,2.4151,0.0,0.0,0.0,0.0,2.4003,2.4003,2.4003,2.4003,2.4168,2.3937,0.0,0.0,0.0,0.0,0.0,0.0,0.0,0.0,0.0,2.54,2.51,0.0,2.4222,2.4042,2.3618,2.3107,2.307,2.2697,2.2078,2.1129,2.0655,2.027,1.9018,1.8343,1.8016,1.8131,1.8283,1.8444,1.8444,1.8585,1.8751,1.8751,1.8751,1.8751,1.8788,1.8923,1.9045,1.9045,1.9045,1.9045,1.9045,1.919,1.9335,1.9394,0.0,0.0,0.0,0.0,0.0,0.0,0.0,0.0,0.0,0.0,2.0506,0.0,0.0,0.0,0.0,0.0,0.0,0.0,0.0,0.0,0.0,2.0539,0.0,0.0,0.0,2.2091,2.311,2.3831,2.4709,2.5707,2.5707,2.5707,2.5707,2.5707,2.5707,2.5707,2.5707,2.5704,2.5699,2.5696,2.5692,2.5707,2.5707,2.5705,2.5705,0.0,0.0,0.0,0.0,0.0,0.0,0.0,2.5078,0.0,2.4529,2.4957,2.5153,2.4793,2.4762,2.4762,2.4762,2.4605,2.4523,2.4523,2.4523,2.4523,2.4523,2.4523,0.0,2.4523,2.4666,2.459,2.4229,0.0,0.0,0.0,0.0,0.0,2.5072,0.0,2.5916,0.0,0.0,0.0,2.4835,2.4449,2.3834,2.3107,2.3107,2.2645,2.1885,2.1088,2.0488,1.9933,1.8851,1.8385,1.8263,1.8345,1.8497,1.8659,1.8659,1.8807,1.8949,1.8949,1.8949,1.8949,1.8949,1.9027,1.9095,1.9095,1.9095,1.9112,1.9178,1.93,1.9438,1.9532,1.9688,0.0,0.0,0.0,0.0,0.0,0.0,0.0,0.0,0.0,0.0,0.0,0.0,0.0,0.0,0.0,0.0,0.0,0.0,0.0,0.0,0.0,0.0,0.0,0.0,0.0,2.3111,2.3988,2.4867,2.5707,2.5707,2.5707,2.5707,2.5707,2.5707,2.5707,2.5707,2.5706,2.5703,2.5701,2.5697,2.5694,2.5694,2.5694,2.5694,0.0,2.5452,0.0,0.0,2.6123,0.0,2.6638,2.623,2.5743,2.5282,2.5555,2.5602,2.5049,2.5005,2.5005,2.5005,2.5005,2.5005,2.5005,2.5005,2.5005,2.5005,2.5005,2.5005,2.5005,2.5005,2.5025,0.0,0.0,0.0,0.0,0.0,0.0,0.0,0.0,0.0,0.0,0.0,2.6089,2.5322,2.4752,2.3962,2.3107,2.3107,2.2645,2.1902,2.115,2.0386,1.9628,1.8847,1.8563,1.8524,1.8495,1.8639,1.8824,1.8797,1.8941,1.9095,1.9095,1.9095,1.9095,1.9095,1.9095,1.9095,1.9095,1.9129,1.9168,1.929,1.9413,1.9552,1.9713,1.9768,0.0,0.0,0.0,0.0,0.0,0.0,0.0,0.0,0.0,0.0,2.0473,0.0,0.0,0.0,0.0,0.0,0.0,0.0,0.0,0.0,0.0,2.0592,2.0607,0.0,2.2466,0.0,2.4164,2.5042,2.5707,2.5707,2.5707,2.5707,2.5707,2.5707,2.5707,2.5707,2.5707,2.5707,2.5703,2.5701,2.5701,2.5701,2.5701,2.574,0.0,0.0,0.0,0.0,0.0,0.0,2.6521,2.6576,2.6432,2.5972,2.5444,2.5065,2.5001,2.5005,2.5005,2.5005,2.5005,2.5005,2.5005,2.5005,2.5005,2.5005,2.5005,2.5005,2.5005,2.5005,2.515,0.0,0.0,0.0,0.0,0.0,0.0,0.0,0.0,0.0,0.0,2.738,2.6583,2.5306,2.5304,2.4418,2.3107,2.3107,2.2645,2.1925,2.1302,2.0558,1.9776,1.9093,1.8744,1.8584,1.8524,1.8678,1.8887,1.8824,1.8941,1.9095,1.9095,1.9095,1.9095,1.9095,1.9095,1.9095,1.9095,1.9198,1.9286,1.9301,1.9599,1.9857,1.9885,1.9976,2.0035,0.0,0.0,0.0,0.0,0.0,0.0,0.0,0.0,0.0,0.0,2.0468,0.0,0.0,0.0,0.0,0.0,0.0,0.0,2.0593,0.0,2.0594,2.0593,2.2193,2.3033,2.3111,2.479,2.5629,2.5707,2.5707,2.5707,2.5707,2.5707,2.5707,2.5707,2.5707,2.5707,2.5707,2.5706,2.5706,2.5706,2.5706,2.5706,2.5804,0.0,0.0,0.0,0.0,0.0,0.0,0.0,2.6992,2.6628,2.6067,2.5772,2.546,2.5033,2.5005,2.5005,2.5005,2.5005,2.5103,2.5288,2.5307,2.5422,2.5647,2.5666,2.5666,2.5666,2.5666,2.5723,0.0,0.0,0.0,0.0,0.0,0.0,0.0,0.0,2.7263,2.7529,2.7542,2.6795,2.5605,2.5631,2.4787,2.3513,2.3513,2.3052,2.2267,2.1546,2.0784,2.0029,1.9279,1.8904,1.8762,1.8696,1.8834,1.9016,1.9,1.9125,1.9285,1.9285,1.9285,1.9285,1.9285,1.9285,1.9285,1.9285,1.9346,1.9437,1.9525,1.9762,1.9971,2.0006,1.9991,1.9986,0.0,0.0,0.0,0.0,0.0,0.0,0.0,0.0,2.0357,0.0,0.0,0.0,0.0,0.0,0.0,0.0,0.0,0.0,2.0594,0.0,2.0847,2.1373,2.2525,2.3365,2.3891,2.5121,2.5707,2.5707,2.5707,2.5707,2.5707,2.5707,2.5707,2.5707,2.5707,2.5707,2.5707,2.5707,2.6019,2.6489,2.6489,2.68,2.7308,2.8411,0.0,2.8411,0.0,2.8468,2.8388,2.7903,2.7347,2.6809,2.6358,2.6146,2.579,2.5213,2.5146,2.5188,2.5304,2.5323,2.5422,2.567,2.567,2.5799,2.6104,2.6104,0.0,2.6104,2.6104,2.6157,2.628,2.628,0.0,0.0,0.0,0.0,0.0,2.7423,2.7544,2.7704,2.7719,2.7002,2.5863,2.5893,2.5074,2.3806,2.3806,2.3454,2.2821,2.1842,2.1152,2.0559,1.9569,1.9164,1.9074,1.8922,1.9024,1.9178,1.9154,1.9263,1.9402,1.9402,1.9402,1.9402,1.9402,1.9402,1.9402,1.9402,1.9497,1.9631,1.9787,1.9934,2.0036,2.0088,2.0011,1.9986,2.0079,0.0,0.0,0.0,0.0,0.0,0.0,2.025,2.0311,2.0366,2.0457,0.0,0.0,0.0,0.0,0.0,0.0,0.0,0.0,0.0,0.0,0.0,2.2701,2.354,2.4417,2.5277,2.5707,2.5707,2.5707,2.5707,2.5707,2.5707,2.5707,2.5707,2.5707,2.5707,2.5707,2.5707,2.6235,2.6996,2.6996,2.7543,2.8342,2.8411,2.8411,2.8411,2.8411,2.8411,2.8317,2.8135,2.7588,2.7146,2.7014,2.6477,2.5943,2.554,2.5503,2.5652,2.6052,2.6104,2.6104,2.6087,2.6087,2.6087,0.0,0.0,2.6104,2.6104,2.6104,2.6298,2.6691,0.0,0.0,2.6111,0.0,2.6628,2.7392,2.7483,2.7642,2.7897,2.7968,2.7219,2.6008,2.6151,2.5233,2.3806,2.3806,2.3777,2.3609,2.22,2.1685,2.1461,1.9985,1.9543,1.9522,1.9206,1.9219,1.9387,1.932,1.935,1.9402,1.9402,1.9402,1.9402,1.9402,1.9402,1.9402,1.9402,1.9604,1.9858,2.005,2.0108,2.0093,2.0093,2.0093,2.0088,2.0093,0.0,0.0,0.0,0.0,0.0,0.0,2.0219,2.0297,2.0297,2.0421,0.0,0.0,0.0,0.0,0.0,0.0,0.0,2.0508,2.0561,0.0,2.19,2.2701,2.354,2.4417,2.5277,2.5707,2.5707,2.5707,2.5707,2.5707,2.5707,2.5707,2.5707,2.5707,2.5707,2.5707,2.5707,2.6235,2.6996,2.6996,2.7543,2.842,2.8411,2.8411,2.8517,2.8826,2.8543,2.8202,2.7994,2.7445,2.6904,2.6444,2.6219,2.6157,2.6298,2.607,2.5962,0.0,2.6104,2.621,0.0,2.6505,2.6641,2.6908,2.6925,2.6925,2.6925,2.6925,2.6974,2.7105,0.0,0.0,0.0,2.6933,2.7149,2.7483,2.7481,2.7701,2.8034,2.8061,2.7412,2.6334,2.6392,2.5546,2.4275,2.4275,2.4275,2.4137,2.3101,2.2403,2.1821,2.0811,2.0089,1.9668,1.9603,1.9562,1.9534,1.9513,1.9576,1.9668,1.9668,1.9668,1.9668,1.9668,1.9668,1.9668,1.9668,1.9819,1.9939,2.0025,2.0069,2.0093,2.0093,2.0093,2.0093,2.0093,2.0093,0.0,0.0,0.0,0.0,0.0,2.0219,2.0297,0.0,2.0421,0.0,0.0,0.0,0.0,0.0,0.0,0.0,0.0,2.1146,0.0,2.2701,2.3559,2.4418,2.5296,2.557,2.5707,2.5707,2.5707,2.5707,2.5707,2.5707,2.5707,2.5707,2.5707,2.5707,2.5765,2.6352,2.7113,2.7952,2.8558,2.9298,3.0039,2.8645,2.8653,2.8803,2.928,2.8818,2.8334,2.8158,2.7569,2.7005,2.6605,2.6539,2.6657,2.6891,2.6691,0.0,2.6539,2.6539,2.6657,2.6908,2.6941,2.7039,2.7299,2.7299,2.7299,2.7299,0.0,0.0,2.7299,2.7299,2.7299,2.7299,2.733,2.7407,2.7511,2.7644,2.7897,2.8259,2.8381,2.7748,2.6653,2.6653,2.5782,2.45,2.45,2.45,2.4388,2.3508,2.2911,2.2382,2.1271,2.0573,2.0144,1.9889,1.9738,1.9686,1.9686,1.9732,1.9801,1.9801,1.9801,1.9801,1.9801,1.9801,1.9807,1.9838,1.9903,1.9977,1.9998,2.003,2.0065,2.0065,2.0079,2.0093,2.0093,2.0093,2.0093,2.0093,0.0,0.0,0.0,0.0,0.0,0.0,2.0421,2.0507,0.0,0.0,0.0,0.0,0.0,0.0,2.0506,2.1385,0.0,2.3091,2.3969,2.4847,2.5707,2.5707,2.5707,2.5707,2.5707,2.5707,2.5707,2.5707,2.5707,2.5707,2.5707,2.5883,2.6235,2.6781,2.7738,2.885,2.9397,3.0118,3.08,2.902,2.9097,0.0,0.0,2.9151,0.0,2.8479,2.7856,2.7365,2.7288,2.7282,2.7299,2.7299,2.7299,2.7299,2.7299,0.0,0.0,0.0,2.7299,2.7299,2.7299,2.7299,2.7299,2.7299,2.7299,2.7299,2.7299,2.7299,2.7299,2.7299,2.7376,2.7467,2.7539,2.7886,2.8224,2.8554,2.8862,2.8186,2.6907,2.6907,2.5949,2.45,2.45,2.45,2.4388,2.3582,2.3283,2.3071,2.157,2.104,2.0875,2.0114,1.9839,1.9801,1.9801,1.9801,1.9801,1.9801,1.9801,1.9801,1.9801,1.9801,1.982,1.9886,1.9909,1.9926,1.9977,1.9998,2.0006,2.0006,2.0041,2.0093,2.0093,2.0093,2.0093,2.0122,0.0,0.0,0.0,0.0,0.0,0.0,2.0424,2.0507,0.0,0.0,0.0,0.0,0.0,2.0588,2.0593,2.1444,2.2303,2.3189,2.4047,2.4906,2.5707,2.5707,2.5707,2.5707,2.5707,2.5707,2.5707,2.5707,2.5707,2.5707,2.5707,2.6215,2.7016,2.7074,2.8128,2.9612,2.9651,3.0157,3.08,0.0,0.0,2.9173,2.944,2.8889,2.834,2.8143,2.7538,2.7112,2.7137,2.7233,2.7299,2.7299,2.7299,2.7299,2.7299,2.7299,2.7299,2.7299,2.7299,2.7299,2.7299,2.7299,2.7299,2.7299,2.7299,2.7299,2.7299,2.7299,2.7299,2.7315,2.7587,2.7745,2.7829,2.8156,2.8509,2.8892,2.8968,2.8186,2.6907,2.6907,2.5949,2.45,2.45,2.45,2.4462,2.4268,2.3802,2.3257,2.2932,2.2006,2.0969,2.0777,2.0295,1.9801,1.9801,1.9801,1.9801,1.9801,1.9801,1.9801,1.9801,1.9801,1.9807,1.9826,1.9855,1.9896,1.9926,1.9958,2.0006,2.0006,2.0041,2.0093,2.0093,2.0093,2.0116,2.0178,2.0186,0.0,0.0,2.0334,2.0372,2.0372,2.0441,2.0507,0.0,0.0,0.0,0.0,2.1085,2.1439,2.1492,2.2343,2.3201,2.4086,2.4964,2.5492,2.5707,2.5707,2.5707,2.5707,2.5707,2.5707,2.5707,2.5707,2.5707,2.5707,2.5707,2.6215,2.7074,2.7737,2.8654,2.967,3.0294,3.0645,3.08,2.9325,2.9579,2.974,2.9709,2.9109,2.8485,2.8065,2.7402,2.6991,2.7086,2.7168,2.7233,2.7282,2.7299,2.7299,2.7299,2.7299,2.7299,2.7299,2.7299,2.7299,2.7299,2.7299,2.7299,2.7299,2.7299,2.736,2.7481,2.7615,2.7657,2.7672,2.7858,2.7996,2.8102,2.8402,2.8713,2.9003,2.9134,2.8299,2.6907,2.6907,2.5949,2.45,2.45,2.45,2.45,2.45,2.4229,2.38,2.3502,2.2813,2.1964,2.124,2.0734,2.0363,1.9961,1.9848,1.9866,1.9917,1.9894,1.9848,1.9848,1.9894,1.9934,1.9934,1.9961,1.9972,1.9917,2.0005,2.0074,2.0019,2.0093,2.0188,2.0152,2.0174,2.0207,2.0246,2.025,0.0,2.0294,2.036,2.0407,2.0407,2.0465,2.0507,2.0507,0.0,0.0,2.1034,2.1461,2.1731,2.1806,2.2992,2.3884,2.4409,2.5262,2.5707,2.5707,2.5707,2.5707,2.5707,2.5707,2.5707,2.5707,2.5707,2.5707,2.5726,2.6136,2.6801,2.7679,2.8557,2.9416,3.0196,3.0644,3.08,3.08,2.9815,3.0225,3.0372,2.9998,2.9433,2.8741,2.7929,2.7284,2.6942,2.707,2.7103,2.7152,2.7282,2.7299,2.7299,2.7299,2.7299,2.7299,2.7299,2.7299,2.7299,2.7299,2.7299,2.7313,2.736,2.739,2.7524,2.7757,2.7978,2.8102,2.8102,2.8156,2.8264,2.8376,2.8652,2.889,2.9089,2.9304,2.843,2.6907,2.6907,2.5949,2.45,2.45,2.45,2.45,2.45,2.45,2.4397,2.3774,2.35,2.316,2.1782,2.1287,2.1055,2.0327,2.002,1.9976,2.0074,2.0025,1.9934,1.9934,2.0025,2.0093,2.0093,2.0093,2.0069,1.9955,2.0079,2.0177,2.0043,2.0186,2.0277,2.0227,2.0265,2.0297,2.0308,0.0,2.0311,2.0337,2.0375,2.0418,2.0418,2.0468,2.0507,2.0507,2.0604,2.0973,2.1655,2.1947,2.2122,2.2176,2.3577,2.4413,2.4589,2.5324,2.5707,2.5707,2.5707,2.5707,2.5707,2.5707,2.5707,2.5707,2.5707,2.5765,2.5941,2.6684,2.7582,2.8576,2.9319,3.0099,3.08,3.08,3.08,3.08,3.0309,3.0456,3.0225,2.9342,2.9077,2.8519,2.7131,2.691,2.6926,2.7007,2.7054,2.7152,2.7282,2.7299,2.7299,2.7299,2.7299,2.7299,2.7299,2.7299,2.7299,2.7299,2.7299,2.7405,2.7627,2.7855,2.7992,2.8034,2.8088,2.8102,2.8116,2.8456,2.862,2.8646,2.903,2.9262,2.9336,2.9386,2.843,2.6907,2.6907,2.5949,2.45,2.45,2.45,2.45,2.45,2.45,2.449,2.4364,2.3913,2.3358,2.3105,2.2196,2.1185,2.1107,2.0637,2.0154,2.0112,2.0079,2.0069,2.0069,2.0079,2.0093,2.0093,2.0093,2.0088,2.0069,2.0144,2.0193,2.0174,2.0242,2.0307,2.0283,2.029,2.0311,2.0372,0.0,2.0413,2.0465,2.0475,2.0478,2.0478,2.0485,2.0507,2.0507,2.1131,2.1578,2.1694,2.3093,2.3892,2.3919,2.4214,2.4743,2.5497,2.563,2.5707,2.5707,2.5707,2.5707,2.5707,2.5707,2.5707,2.5707,2.5707,2.6117,2.6801,2.6938,2.7953,2.9417,2.9553,3.0099,3.08,3.08,3.08,3.08,3.0456,3.0699,3.0619,2.9732,2.9583,2.9076,2.7537,2.7351,2.7284,2.6993,2.699,2.7071,2.7168,2.7266,2.7299,2.7299,2.7299,2.7299,2.7299,2.7299,2.736,2.7511,2.7526,2.7627,2.7911,2.8215,2.836,2.836,2.852,2.8583,2.8583,2.8767,2.8899,2.8978,2.9167,2.9294,2.9396,2.9396,2.8672,2.7501,2.7074,2.621,2.5094,2.4667,2.45,2.45,2.45,2.45,2.4508,2.4539,2.4385,2.4073,2.3691,2.317,2.2626,2.224,2.1254,2.0295,2.0175,2.0203,2.0246,2.0163,2.0207,2.0258,2.0258,2.0258,2.0246,2.0178,2.0246,2.0296,2.0219,2.0283,2.0357,2.0357,2.0379,0.0,0.0,2.0443,2.0468,2.0505,2.0507,2.0507,2.0507,2.0896,2.1151,2.1151,2.193,2.261,2.3073,2.3867,2.453,2.4996,2.5035,2.5247,2.5644,2.5677,2.5707,2.5707,2.5707,2.5707,2.5707,2.5707,2.5707,2.5726,2.6196,2.6625,2.7074,2.8011,2.887,2.9631,3.0079,3.047,3.08,3.08,3.08,3.08,3.0658,3.0938,3.097,3.0243,3.0108,2.9632,2.828,2.8077,2.7859,2.725,2.7197,2.7228,2.712,2.7217,2.7299,2.7299,2.7299,2.7299,2.7299,2.736,2.7481,2.7701,2.7829,2.8014,2.821,2.852,2.8694,2.8694,2.8893,2.9005,2.9005,2.9005,2.9074,2.92,2.92,2.9272,2.9396,2.9396,2.8895,2.8059,2.7427,2.6702,2.5894,2.5094,2.4778,2.476,2.4574,2.45,2.4508,2.4566,2.4673,2.4698,2.4136,2.3986,2.388,2.3263,2.2088,2.0914,2.0627,2.0613,2.0717,2.0816,2.0767,2.0692,2.0692,2.0556,2.0366,2.0269,2.0324,2.0363,2.0265,2.0334,2.0391,2.0402,0.0,0.0,0.0,2.0507,2.0507,2.0507,2.0663,2.0779,2.0779,2.152,2.2008,2.2008,2.2804,2.36,2.4255,2.4488,2.4905,2.5582,2.5603,2.5614,2.5621,2.566,2.5707,2.5707,2.5707,2.5707,2.5707,2.5707,2.5805,2.6039,2.6703,2.723,2.7718,2.9046,2.9709,2.9944,3.0567,3.08,3.08,3.08,3.08,3.08,3.1151,3.1171,3.097,3.0243,3.0108,2.9837,2.9027,2.8908,2.8673,2.7998,2.7981,2.7776,2.7171,2.7217,2.7299,2.7299,2.7299,2.7299,2.7299,2.7524,2.7686,2.7701,2.8233,2.8551,2.8563,2.8834,2.897,2.897,2.8994,2.9005,2.9005,2.9005,2.9074,2.92,2.92,2.9272,2.9396,2.9396,2.8895,2.8096,2.804,2.7538,2.6721,2.5931,2.5615,2.5522,2.4778,2.45,2.4508,2.4513,2.4631,2.4785,2.4745,2.4388,2.3995,2.3938,2.3334,2.2552,2.1797,2.1607,2.1781,2.2529,2.2146,2.1591,2.1591,2.0985,2.0399,2.0395,2.0395,2.0405,2.0395,2.0399,2.0399,2.0393,0.0,0.0,2.0507,2.0507,2.0507,2.0507,2.117,2.1617,2.1617,2.2396,2.2904,2.2904,2.3714,2.4236,2.4294,2.5074,2.5529,2.5595,2.5595,2.5622,2.5692,2.5708,2.5707,2.5707,2.5707,2.5707,2.5707,2.5707,2.6136,2.6918,2.6977,2.7914,2.9417,2.9553,3.004,3.0722,3.0781,3.08,3.08,3.08,3.08,3.08,3.119,3.119,3.1106,3.0835,3.0784,3.0531,2.9786,2.9685,2.9433,2.8707,2.8269,2.7964,2.7741,2.7394,2.7217,2.7282,2.7299,2.7299,2.7299,2.7716,2.8037,2.8246,2.8626,2.8858,2.8858,2.8959,2.9005,2.9005,2.9005,2.9005,2.9005,2.9005,2.9074,2.92,2.92,2.9272,2.9396,2.9396,2.9211,2.8858,2.8319,2.7929,2.7557,2.6739,2.6442,2.633,2.554,2.5243,2.5178,2.4673,2.4693,2.4916,2.4917,2.4927,2.4821,2.428,2.3937,2.3635,2.3329,2.2865,2.2517,2.2826,2.2671,2.2439,2.2439,2.1801,2.1201,2.1201,2.0772,2.0405,2.0404,2.0393,2.0405,2.0402,0.0,2.0623,2.1174,2.1232,2.1432,2.1986,2.2318,2.2513,2.2513,2.329,2.3811,2.3811,2.4608,2.5113,2.5113,2.542,2.5595,2.5594,2.5636,2.5664,2.5701,2.5694,2.5707,2.5707,2.5707,2.598,2.6508,2.6508,2.6977,2.7835,2.8382,2.8987,2.9631,3.0138,3.0528,3.08,3.08,3.08,3.08,3.08,3.08,3.0878,3.119,3.119,3.119,3.119,3.119,3.1041,3.0552,3.0467,3.0232,2.9525,2.9071,2.8715,2.8528,2.7909,2.7545,2.7644,2.742,2.7299,2.7299,2.7815,2.8295,2.8718,2.8905,2.9005,2.9005,2.9005,2.9005,2.9005,2.9005,2.9005,2.9005,2.9005,2.9074,2.92,2.92,2.9272,2.9396,2.9396,2.9396,2.9341,2.8746,2.8505,2.8422,2.7671,2.7335,2.7176,2.645,2.6134,2.5949,2.5175,2.5126,2.5323,2.5088,2.5225,2.5372,2.4776,2.4602,2.4602,2.4602,2.4176,2.3712,2.3712,2.3499,2.331,2.331,2.2671,2.2075,2.2075,2.1604,2.1201,2.1191,2.1201,2.1187,2.1199,2.1202,2.1421,2.2011,2.2111,2.2327,2.2924,2.3218,2.3395,2.3417,2.4194,2.4718,2.4705,2.5268,2.5718,2.599,2.6,2.6137,2.6409,2.6484,2.6521,2.6521,2.5967,2.5844,2.6117,2.6117,2.6567,2.7406,2.7406,2.7875,2.8732,2.9339,2.9749,3.0021,3.0567,3.08,3.08,3.08,3.08,3.0839,3.1114,3.1211,3.1328,3.119,3.119,3.119,3.119,3.119,3.1213,3.1276,3.1295,3.1079,3.0492,3.0446,3.0226,2.9489,2.8801,2.842,2.8403,2.773,2.7332,2.7315,2.7832,2.8391,2.8982,2.9005,2.9005,2.9005,2.9005,2.9005,2.9005,2.9005,2.9005,2.9005,2.9005,2.9074,2.92,2.92,2.9272,2.9396,2.9396,2.9396,2.9396,2.9396,2.9396,2.9334,2.8661,2.8278,2.8032,2.7424,2.709,2.6795,2.606,2.5984,2.6071,2.5278,2.5244,2.5507,2.5507,2.5507,2.5507,2.5507,2.5507,2.5507,2.5507,2.4853,2.4215,2.4215,2.3538,2.2903,2.2903,2.2903,2.2903,2.2903,2.2898,2.2911,2.2911,2.2956,2.3001,2.3001,2.3001,2.3001,2.3021,2.3722,2.4235,2.429,2.5092,2.5605,2.5598,2.5621,2.599,2.6847,2.6906,2.7309,2.8166,2.828,2.8303,2.8303,2.6585,2.6156,2.7016,2.7016,2.7465,2.8303,2.8303,2.8791,2.9612,2.9612,3.006,3.08,3.08,3.08,3.08,3.08,3.08,3.0917,3.1797,3.211,3.2226,3.119,3.119,3.119,3.119,3.119,3.121,3.123,3.1274,3.1247,3.1064,3.0678,3.036,3.0191,2.9523,2.9128,2.9179,2.8972,2.9048,2.9518,2.9926,3.0308,3.0675,2.9592,2.9005,2.9005,2.9005,2.9005,2.9005,2.9005,2.9005,2.9005,2.9005,2.9074,2.92,2.92,2.9272,2.9396,2.9396,2.9396,2.9396,2.9396,2.9396,2.937,2.917,2.9119,2.9064,2.8303,2.8091,2.8045,2.7201,2.7077,2.7138,2.6424,2.5867,2.5507,2.5507,2.5507,2.5507,2.5507,2.5507,2.5507,2.5507,2.5294,2.5105,2.5105,2.4447,2.3809,2.3809,2.3329,2.2903,2.2903,2.2907,2.2891,2.2891,2.2914,2.313,2.3763,2.3841,2.408,2.4675,2.4969,2.5134,2.5208,2.5441,2.5599,2.5605,2.611,2.6581,2.6878,2.7482,2.794,2.8182,2.8275,2.8303,2.8303,2.7776,2.7659,2.7913,2.7913,2.8362,2.9202,2.9202,2.9669,3.0431,3.0431,3.0587,3.08,3.08,3.08,3.0859,3.1465,3.1719,3.1816,3.2695,3.3007,3.3144,3.119,3.119,3.119,3.119,3.119,3.121,3.1232,3.1329,3.1389,3.1428,3.1146,3.0964,3.1001,3.0367,2.992,2.9972,2.9815,2.9985,3.0654,3.088,3.1128,3.1384,3.0467,2.9794,2.9482,2.9464,2.9317,2.9005,2.9005,2.9005,2.9005,2.9005,2.9074,2.92,2.92,2.9272,2.9396,2.9396,2.9396,2.9396,2.9396,2.9396,2.9407,2.9451,2.9522,2.9542,2.9142,2.9074,2.9049,2.8203,2.7821,2.7629,2.733,2.664,2.5971,2.5971,2.5758,2.5507,2.5507,2.5507,2.5507,2.5507,2.5507,2.5507,2.5507,2.5085,2.4718,2.4718,2.4292,2.3925,2.3925,2.3925,2.3925,2.3925,2.3925,2.4103,2.4636,2.4714,2.4914,2.5432,2.549,2.5517,2.5554,2.5554,2.5699,2.6046,2.6534,2.7119,2.784,2.8418,2.8876,2.9216,2.9272,2.9297,2.9297,2.9297,2.9123,2.881,2.881,2.9259,3.0079,3.0079,3.0333,3.08,3.08,3.08,3.0839,3.1172,3.1309,3.1407,3.2265,3.2617,3.2714,3.3593,3.3905,3.4042,3.119,3.119,3.119,3.119,3.119,3.1213,3.1276,3.1406,3.1519,3.1579,3.1727,3.18,3.18,3.1196,3.08,3.08,3.0468,3.0521,3.1166,3.1234,3.1354,3.1604,3.1617,3.125,3.043,3.0283,2.9831,2.9115,2.9042,2.9005,2.9005,2.9005,2.9074,2.92,2.9281,2.9328,2.9396,2.9471,2.9481,2.9396,2.9396,2.9396,2.9399,2.9532,2.9598,2.9653,2.9836,2.9918,2.9828,2.9095,2.8401,2.7876,2.8049,2.752,2.6822,2.6822,2.63,2.5724,2.5724,2.5662,2.5604,2.5604,2.5546,2.5507,2.5507,2.5507,2.5507,2.5507,2.5507,2.5507,2.5507,2.5507,2.5507,2.5507,2.5507,2.5507,2.5507,2.5507,2.5507,2.5507,2.5507,2.5496,2.5495,2.5576,2.5943,2.6738,2.6935,2.7721,2.9314,2.9521,2.9965,3.0765,3.0798,3.08,3.08,3.08,3.0431,2.9709,2.9709,3.0099,3.08,3.08,3.08,3.08,3.08,3.0839,3.0976,3.1777,3.215,3.2304,3.3183,3.3513,3.3611,3.4491,3.4822,3.494,3.119,3.119,3.119,3.119,3.119,3.1213,3.1276,3.1406,3.1519,3.1579,3.1727,3.18,3.18,3.1662,3.1558,3.1558,3.1947,3.2373,3.2766,3.304,3.3221,3.3275,3.3275,3.2908,3.2087,3.0852,3.0118,2.9953,2.9317,2.9005,2.9005,2.9005,2.9074,2.9237,2.9865,2.9846,2.9434,3.0065,2.9973,2.9396,2.9396,2.9396,2.9407,2.9429,2.9617,2.9845,2.9886,3.0075,3.0267,3.0087,2.9531,2.8897,2.8999,2.8409,2.772,2.772,2.7585,2.7469,2.7469,2.6962,2.6435,2.6435,2.5971,2.5507,2.5507,2.5507,2.5507,2.5507,2.5507,2.5507,2.5507,2.5507,2.5507,2.5507,2.5507,2.5507,2.5507,2.5507,2.5507,2.5507,2.5507,2.5496,2.5495,2.6122,2.6595,2.6796,2.802,2.895,2.9371,3.0067,3.0553,3.08,3.0794,3.08,3.08,3.08,3.0703,3.0548,3.0548,3.0626,3.08,3.08,3.08,3.08,3.08,3.1192,3.1836,3.2013,3.25,3.3201,3.4081,3.4413,3.453,3.5407,3.5719,3.5758,3.119,3.119,3.119,3.119,3.119,3.1213,3.1276,3.1406,3.1519,3.1579,3.1727,3.18,3.18,3.18,3.1929,3.2249,3.2602,3.2999,3.3508,3.3707,3.3807,3.3807,3.3807,3.3605,3.3183,3.1959,3.098,3.021,2.9776,2.9384,2.9051,2.9017,2.9096,2.9269,2.9643,2.9672,2.9444,2.9842,2.9768,2.9396,2.9396,2.9396,2.9417,2.9471,2.9672,2.991,2.9969,3.0174,3.0404,3.0402,3.0133,2.9829,2.9858,2.9294,2.8629,2.8629,2.8339,2.7991,2.7991,2.7677,2.7329,2.7329,2.7,2.6478,2.5685,2.5507,2.5507,2.5507,2.5507,2.5507,2.5507,2.5507,2.5507,2.5507,2.5507,2.5507,2.5507,2.5507,2.5507,2.5507,2.5507,2.5646,2.6041,2.6862,2.7547,2.7966,2.883,2.9539,2.9994,3.0442,3.0738,3.0801,3.0798,3.0792,3.08,3.08,3.08,3.08,3.08,3.08,3.08,3.08,3.08,3.082,3.1231,3.168,3.2169,3.3007,3.3612,3.412,3.4979,3.533,3.5389,3.5836,3.5992,3.5992,3.119,3.119,3.119,3.119,3.119,3.123,3.1312,3.1443,3.1519,3.1617,3.1727,3.18,3.18,3.1838,3.2126,3.2747,3.2842,3.3154,3.3762,3.3807,3.3807,3.3807,3.3807,3.3807,3.3807,3.3146,3.2069,3.0613,3.0338,2.9896,2.9292,2.9095,2.9108,2.9302,2.9359,2.9402,2.9396,2.9545,2.9527,2.9396,2.9396,2.9396,2.9409,2.9551,2.9715,2.9918,3.0059,3.0235,3.0404,3.0404,3.0444,3.0474,3.0474,3.0028,2.951,2.951,2.8992,2.8436,2.8436,2.8339,2.8223,2.8223,2.8107,2.7643,2.6246,2.5936,2.5936,2.5936,2.5936,2.5936,2.5936,2.5816,2.57,2.57,2.5584,2.5507,2.5507,2.5507,2.5507,2.5507,2.5623,2.6029,2.6841,2.7716,2.8522,2.9259,2.9485,2.9924,3.0642,3.0691,3.0723,3.078,3.0801,3.0817,3.08,3.08,3.08,3.08,3.08,3.08,3.08,3.08,3.0878,3.1055,3.1797,3.2267,3.2657,3.41,3.4783,3.4998,3.5719,3.5992,3.5992,3.5992,3.5992,3.5992,3.119,3.119,3.119,3.119,3.119,3.1249,3.1443,3.1498,3.1574,3.1763,3.18,3.18,3.18,3.2055,3.2386,3.2763,3.3063,3.3375,3.378,3.3807,3.3807,3.3807,3.3807,3.3807,3.3807,3.3697,3.3201,3.2271,3.0876,3.019,3.012,2.9352,2.9108,2.9339,2.9961,2.9931,2.9463,3.014,3.0028,2.9396,2.9396,2.9396,2.9409,2.9551,2.9715,2.9918,3.0059,3.0235,3.0404,3.0404,3.0408,3.0403,3.0403,3.0383,3.0346,3.0346,3.0308,3.025,3.025,2.9689,2.9113,2.9113,2.8552,2.7933,2.7701,2.7662,2.7662,2.7662,2.7662,2.7662,2.7662,2.7058,2.6551,2.6551,2.5952,2.5507,2.5507,2.5507,2.5507,2.5507,2.6107,2.688,2.7739,2.861,2.9171,2.9291,3.0007,3.049,3.0606,3.067,3.0696,3.0701,3.082,3.0868,3.08,3.08,3.08,3.08,3.08,3.08,3.08,3.08,3.1211,3.1934,3.2052,3.2968,3.4374,3.4608,3.5135,3.5836,3.5953,3.5992,3.5992,3.5992,3.5992,3.5992,3.119,3.119,3.119,3.119,3.119,3.1286,3.1479,3.1498,3.1574,3.1781,3.18,3.18,3.18,3.2109,3.252,3.3032,3.3214,3.3437,3.3793,3.3807,3.3807,3.3807,3.3807,3.3807,3.3807,3.3807,3.3623,3.3275,3.2156,3.1176,3.0351,2.9959,2.9632,2.9373,2.9672,2.9638,2.9415,2.9768,2.9712,2.9396,2.9396,2.9396,2.9409,2.9551,2.9715,2.9934,3.0188,3.0317,3.0404,3.0404,3.0408,3.0398,3.0398,3.0455,3.0496,3.0496,3.0554,3.0598,3.0598,3.0327,3.0037,3.0037,2.9747,2.9457,2.9457,2.9457,2.919,2.8204,2.7991,2.7991,2.7991,2.7701,2.7426,2.7426,2.7136,2.6904,2.6904,2.6904,2.6904,2.6904,2.7638,2.8296,2.8687,2.9515,3.0037,3.0037,3.0379,3.061,3.0646,3.0678,3.0735,3.08,3.084,3.0836,3.08,3.08,3.08,3.08,3.08,3.08,3.082,3.1309,3.1738,3.215,3.3124,3.3983,3.4744,3.5232,3.5641,3.5992,3.5992,3.5992,3.5992,3.5992,3.5992,3.5992]}]]